[[{"header":{"parameterUnit":"m.s-1","parameterCategory":1,"la1":31.0,"la2":29.5877,"lo1":-88.7671,"lo2":-86.6584,"dy":0.0162,"dx":0.0185,"nx":115,"ny":88,"refTime":"2023-06-28T00:00:00:Z","depth":0,"parameterNumber":2,"parameterNumberName":"U-component_of_WINDS"},"data":[0.0,0.0,0.0,0.0,0.0,0.0,0.0,0.0,0.0,0.0,0.0,0.0,0.0,0.0,0.0,0.0,0.0,0.0,0.0,0.0,0.0,0.0,0.0,0.0,0.0,0.0,0.0,0.0,0.0,0.0,0.0,0.0,0.0,0.0,0.0,0.0,0.0,0.0,0.0,0.0,0.0,0.0,0.0,0.0,0.0,0.0,0.0,0.0,0.0,0.0,0.0,0.0,0.0,0.0,0.0,0.0,0.0,0.0,0.0,0.0,0.0,0.0,0.0,0.0,0.0,0.0,0.0,0.0,0.0,0.0,0.0,0.0,0.0,0.0,0.0,0.0,0.0,0.0,0.0,0.0,0.0,0.0,0.0,0.0,0.0,0.0,0.0,0.0,0.0,0.0,0.0,0.0,0.0,0.0,0.0,0.0,0.0,0.0,0.0,0.0,0.0,0.0,0.0,0.0,0.0,0.0,0.0,0.0,0.0,0.0,0.0,0.0,0.0,0.0,0.0,0.0,0.0,0.0,0.0,0.0,0.0,0.0,0.0,0.0,0.0,0.0,0.0,0.0,0.0,0.0,0.0,0.0,0.0,0.0,0.0,0.0,0.0,0.0,0.0,0.0,0.0,0.0,0.0,0.0,0.0,0.0,0.0,0.0,0.0,0.0,0.0,0.0,0.0,0.0,0.0,0.0,0.0,0.0,0.0,0.0,0.0,0.0,0.0,0.0,0.0,0.0,0.0,0.0,0.0,0.0,0.0,0.0,0.0,0.0,0.0,0.0,0.0,0.0,0.0,0.0,0.0,0.0,0.0,0.0,0.0,0.0,0.0,0.0,0.0,0.0,0.0,0.0,0.0,0.0,0.0,0.0,0.0,0.0,0.0,0.0,0.0,0.0,0.0,0.0,0.0,0.0,0.0,0.0,0.0,0.0,0.0,0.0,0.0,0.0,0.0,0.0,0.0,0.0,0.0,0.0,0.0,0.0,0.0,0.0,0.0,0.0,0.0,0.0,0.0,0.0,0.0,0.0,0.0,0.0,0.0,0.0,0.0,0.0,0.0,0.0,0.0,0.0,0.0,0.0,0.0,0.0,0.0,0.0,0.0,0.0,0.0,0.0,0.0,0.0,0.0,0.0,0.0,0.0,0.0,0.0,0.0,0.0,0.0,0.0,0.0,0.0,0.0,0.0,0.0,0.0,0.0,0.0,0.0,0.0,0.0,0.0,0.0,0.0,0.0,0.0,0.0,0.0,0.0,0.0,0.0,0.0,0.0,0.0,0.0,0.0,0.0,0.0,0.0,0.0,0.0,0.0,0.0,0.0,0.0,0.0,0.0,0.0,0.0,0.0,0.0,0.0,0.0,0.0,0.0,0.0,0.0,0.0,0.0,0.0,0.0,0.0,0.0,0.0,0.0,0.0,0.0,0.0,0.0,0.0,0.0,0.0,0.0,0.0,0.0,0.0,0.0,0.0,0.0,0.0,0.0,0.0,0.0,0.0,0.0,0.0,0.0,0.0,0.0,0.0,0.0,0.0,0.0,0.0,0.0,0.0,0.0,0.0,0.0,0.0,0.0,0.0,0.0,0.0,0.0,0.0,0.0,0.0,0.0,0.0,0.0,0.0,0.0,0.0,0.0,0.0,0.0,0.0,0.0,0.0,0.0,0.0,0.0,0.0,0.0,0.0,0.0,0.0,0.0,0.0,0.0,0.0,0.0,0.0,0.0,0.0,0.0,0.0,0.0,0.0,0.0,0.0,0.0,0.0,0.0,0.0,0.0,0.0,0.0,0.0,0.0,0.0,0.0,0.0,0.0,0.0,0.0,0.0,0.0,0.0,0.0,0.0,0.0,0.0,0.0,0.0,0.0,0.0,0.0,0.0,0.0,0.0,0.0,0.0,0.0,0.0,0.0,0.0,0.0,0.0,0.0,0.0,0.0,0.0,0.0,0.0,0.0,0.0,0.0,0.0,0.0,0.0,0.0,0.0,0.0,0.0,0.0,0.0,0.0,0.0,0.0,0.0,0.0,0.0,0.0,0.0,0.0,0.0,0.0,0.0,0.0,0.0,0.0,0.0,0.0,0.0,0.0,0.0,0.0,0.0,0.0,0.0,0.0,0.0,0.0,0.0,0.0,0.0,0.0,0.0,0.0,0.0,0.0,0.0,0.0,0.0,0.0,0.0,0.0,0.0,0.0,0.0,0.0,0.0,0.0,0.0,0.0,0.0,0.0,0.0,0.0,0.0,0.0,0.0,0.0,0.0,0.0,0.0,0.0,0.0,0.0,0.0,0.0,0.0,0.0,0.0,0.0,0.0,0.0,0.0,0.0,0.0,0.0,0.0,0.0,0.0,0.0,0.0,0.0,0.0,0.0,0.0,0.0,0.0,0.0,0.0,0.0,0.0,0.0,0.0,0.0,0.0,0.0,0.0,0.0,0.0,0.0,0.0,0.0,0.0,0.0,0.0,0.0,0.0,0.0,0.0,0.0,0.0,0.0,0.0,0.0,0.0,0.0,0.0,0.0,0.0,0.0,0.0,0.0,0.0,0.0,0.0,0.0,0.0,0.0,0.0,0.0,0.0,0.0,0.0,0.0,0.0,0.0,0.0,0.0,0.0,0.0,0.0,0.0,0.0,0.0,0.0,0.0,0.0,0.0,0.0,0.0,0.0,0.0,0.0,0.0,0.0,0.0,0.0,0.0,0.0,0.0,0.0,0.0,0.0,0.0,0.0,0.0,0.0,0.0,0.0,0.0,0.0,0.0,0.0,0.0,0.0,0.0,0.0,0.0,0.0,0.0,0.0,0.0,0.0,0.0,0.0,0.0,0.0,0.0,0.0,0.0,0.0,0.0,0.0,0.0,0.0,0.0,0.0,0.0,0.0,0.0,0.0,0.0,0.0,0.0,0.0,0.0,0.0,0.0,0.0,0.0,0.0,0.0,0.0,0.0,0.0,0.0,0.0,0.0,0.0,0.0,0.0,0.0,0.0,0.0,0.0,0.0,0.0,0.0,0.0,0.0,0.0,0.0,0.0,0.0,0.0,0.0,0.0,0.0,0.0,0.0,0.0,0.0,0.0,0.0,0.0,0.0,0.0,0.0,0.0,0.0,0.0,0.0,0.0,0.0,0.0,0.0,0.0,0.0,0.0,0.0,0.0,0.0,0.0,0.0,0.0,0.0,0.0,0.0,0.0,0.0,0.0,0.0,0.0,0.0,0.0,0.0,0.0,0.0,0.0,0.0,0.0,0.0,0.0,0.0,0.0,0.0,0.0,0.0,0.0,0.0,0.0,0.0,0.0,0.0,0.0,0.0,0.0,0.0,0.0,0.0,0.0,0.0,0.0,0.0,0.0,0.0,0.0,0.0,0.0,0.0,0.0,0.0,0.0,0.0,0.0,0.0,0.0,0.0,0.0,0.0,0.0,0.0,0.0,0.0,0.0,0.0,0.0,0.0,0.0,0.0,0.0,0.0,0.0,0.0,0.0,0.0,0.0,0.0,0.0,0.0,0.0,0.0,0.0,0.0,0.0,0.0,0.0,0.0,0.0,0.0,0.0,0.0,0.0,0.0,0.0,0.0,0.0,0.0,0.0,0.0,0.0,0.0,0.0,0.0,0.0,0.0,0.0,0.0,0.0,0.0,0.0,0.0,0.0,0.0,0.0,0.0,0.0,0.0,0.0,0.0,0.0,0.0,0.0,0.0,0.0,0.0,0.0,0.0,0.0,0.0,0.0,0.0,0.0,0.0,0.0,0.0,0.0,0.0,0.0,0.0,0.0,0.0,0.0,0.0,0.0,0.0,0.0,0.0,0.0,0.0,0.0,0.0,0.0,0.0,0.0,0.0,0.0,0.0,0.0,0.0,0.0,0.0,0.0,0.0,0.0,0.0,0.0,0.0,0.0,0.0,0.0,0.0,0.0,0.0,0.0,0.0,0.0,0.0,0.0,0.0,0.0,0.0,0.0,0.0,0.0,0.0,0.0,0.0,0.0,0.0,0.0,0.0,0.0,0.0,0.0,0.0,0.0,0.0,0.0,0.0,0.0,0.0,0.0,0.0,0.0,0.0,0.0,0.0,0.0,0.0,0.0,0.0,0.0,0.0,0.0,0.0,0.0,0.0,0.0,0.0,0.0,0.0,0.0,0.0,0.0,0.0,0.0,0.0,0.0,0.0,0.0,0.0,0.0,0.0,0.0,0.0,0.0,0.0,0.0,0.0,0.0,0.0,0.0,0.0,0.0,0.0,0.0,0.0,0.0,0.0,0.0,0.0,0.0,0.0,0.0,0.9725,0.0,0.0,0.0,0.0,0.0,0.0,0.0,0.0,0.0,0.0,0.0,0.0,0.0,0.0,0.0,0.0,0.0,0.0,0.0,0.0,0.0,0.0,0.0,0.0,0.0,0.0,0.0,0.0,0.0,0.0,0.0,0.0,0.0,0.0,0.0,0.0,0.0,0.0,0.0,0.0,0.0,0.0,0.0,0.0,0.0,0.0,0.0,0.0,0.0,0.0,0.0,0.0,0.0,0.0,0.0,0.0,0.0,0.0,0.0,0.0,0.0,0.0,0.0,0.0,0.0,0.0,0.0,0.0,0.0,0.0,0.0,0.0,0.0,0.0,0.0,0.0,0.0,0.0,0.0,0.0,0.0,0.0,0.0,0.0,0.0,0.0,0.0,0.0,0.0,0.0,0.0,0.0,0.0,0.0,0.0,0.0,0.0,0.0,0.0,0.0,0.0,0.0,0.0,0.0,0.0,0.0,0.0,0.0,0.0,0.0,1.1499,1.0731,1.0023,0.9725,0.9806,0.0,0.0,0.0,0.0,0.0,0.0,0.0,0.0,0.0,0.0,0.0,0.0,0.0,0.0,0.0,0.0,0.0,0.0,0.0,0.0,0.0,0.0,0.0,0.0,0.0,0.0,0.0,0.0,0.0,0.0,0.0,0.0,0.0,0.0,0.0,0.0,0.0,0.0,0.0,0.0,0.0,0.0,0.0,0.0,0.0,0.0,0.0,0.0,0.0,0.0,0.0,0.0,0.0,0.0,0.0,0.0,0.0,0.0,0.0,0.0,0.0,0.0,0.0,0.0,0.0,0.0,0.0,0.0,0.0,0.0,0.0,0.0,0.0,0.0,0.0,0.0,0.0,0.0,0.0,0.0,0.0,0.0,0.0,0.0,0.0,0.0,0.0,0.0,0.0,0.0,0.0,0.0,0.0,0.0,0.0,0.0,0.0,0.0,0.0,0.0,0.0,0.0,0.0,0.0,0.0,0.0,0.0,0.0,0.0,0.0,0.0,0.0,1.0373,0.9869,0.9395,0.0,0.0,0.0,0.0,0.0,0.0,0.0,0.0,0.0,0.0,0.0,0.0,0.0,0.0,0.0,0.0,0.0,0.0,0.0,0.0,0.0,0.0,0.0,0.0,0.0,0.0,0.0,0.0,0.0,0.0,0.0,0.0,0.0,0.0,0.0,0.0,0.0,0.0,0.0,0.0,0.0,0.0,0.0,0.0,0.0,0.0,0.0,0.0,0.0,0.0,0.0,0.0,0.0,0.0,0.0,0.0,0.0,0.0,0.0,0.0,0.0,0.0,0.0,0.0,0.0,0.0,0.0,0.0,0.0,0.0,0.0,0.0,0.0,0.0,0.0,0.0,0.0,0.0,0.0,0.0,0.0,0.0,0.0,0.0,0.0,0.0,0.0,0.0,0.0,0.0,0.0,0.0,0.0,0.0,0.0,0.0,0.0,0.0,0.0,0.0,0.0,0.0,0.0,0.0,0.0,0.0,0.0,0.0,0.0,0.0,1.1105,1.0986,1.1017,0.0,0.8023,0.0,0.0,0.0,0.0,0.0,0.0,0.0,0.0,0.0,0.0,0.0,0.0,0.0,0.0,0.0,0.0,0.0,0.0,0.0,0.0,0.0,0.0,0.0,0.0,0.0,0.0,0.0,0.0,0.0,0.0,0.0,0.0,0.0,0.0,0.0,0.0,0.0,0.0,0.0,0.0,0.0,0.0,0.0,0.0,0.0,0.0,0.0,0.0,0.0,0.0,0.0,0.0,0.0,0.0,0.0,0.0,0.0,0.0,0.0,0.0,0.0,0.0,0.0,0.0,0.0,0.0,0.0,0.0,0.0,0.0,0.0,0.0,0.0,0.0,0.0,0.0,0.0,0.0,0.0,0.0,0.0,0.0,0.0,0.0,0.0,0.0,0.0,0.0,0.0,0.0,0.0,0.0,0.0,0.0,0.0,0.0,0.0,0.0,0.0,0.0,0.0,0.0,0.0,0.0,0.0,0.0,0.0,0.0,0.0,0.0,1.0984,1.047,1.0489,0.9594,0.0,0.0,0.0,0.0,0.0,0.0,0.0,0.0,0.0,0.0,0.0,0.0,0.0,0.0,0.0,0.0,0.0,0.0,0.0,0.0,0.0,0.0,0.0,0.0,0.0,0.0,0.0,0.0,0.0,0.0,0.0,0.0,0.0,0.0,0.0,0.0,0.0,0.0,0.0,0.0,0.0,0.0,0.0,0.0,0.0,0.0,0.0,0.0,0.0,0.0,0.0,0.0,0.0,0.0,0.0,0.0,0.0,0.0,0.0,0.0,0.0,0.0,0.0,0.0,0.0,0.0,0.0,0.0,0.0,0.0,0.0,0.0,0.0,0.0,0.0,0.0,0.0,0.0,0.0,0.0,0.0,0.0,0.0,0.0,0.0,0.0,0.0,0.0,0.0,0.0,0.0,0.0,0.0,0.0,0.0,0.0,0.0,0.0,0.0,0.0,0.0,0.0,0.0,0.0,0.0,0.0,0.0,0.0,0.0,0.0,1.1034,1.1153,1.079,1.0275,0.9528,0.8538,0.0,0.0,0.0,0.0,0.0,0.0,0.0,0.0,0.0,0.0,0.0,0.0,0.0,0.0,0.0,0.0,0.0,0.0,0.0,0.0,0.0,0.0,0.0,0.0,0.0,0.0,0.0,0.0,0.0,0.0,0.0,0.0,0.0,0.0,0.0,0.0,0.0,0.0,0.0,0.0,0.0,0.0,0.0,0.0,0.0,0.0,0.0,0.0,0.0,0.0,0.0,0.0,0.0,0.0,0.0,0.0,0.0,0.0,0.0,0.0,0.0,0.0,0.0,0.0,0.0,0.0,0.0,0.0,0.0,0.0,0.0,0.0,0.0,0.0,0.0,0.0,0.0,0.0,0.0,0.0,0.0,0.0,0.0,0.0,0.0,0.0,0.0,0.0,0.0,0.0,0.0,0.0,0.0,0.0,0.0,0.0,0.0,0.0,0.0,0.0,0.0,0.0,0.0,0.0,0.0,0.0,0.0,0.0,1.1333,1.1376,1.1753,1.238,1.0865,1.023,0.0,0.0,0.0,0.0,0.0,0.0,0.0,0.0,0.0,0.0,0.0,0.0,0.0,0.0,0.0,0.0,0.0,0.0,0.0,0.0,0.0,0.0,0.0,0.0,0.0,0.0,0.0,0.0,0.0,0.0,0.0,0.0,0.0,0.0,0.0,0.0,0.0,0.0,0.0,0.0,0.0,0.0,0.0,0.0,0.0,0.0,0.0,0.0,0.0,0.0,0.0,0.0,0.0,0.0,0.0,0.0,0.0,0.0,0.0,0.0,0.0,0.0,0.0,0.0,0.0,0.0,0.0,0.0,0.0,0.0,0.0,0.0,0.0,0.0,0.0,0.0,0.0,0.0,0.0,0.0,0.0,0.0,0.0,0.0,0.0,0.0,0.0,0.0,0.0,0.0,0.0,0.0,0.0,0.0,0.0,0.0,0.0,0.0,0.0,0.0,0.0,0.0,0.0,0.0,0.0,0.0,0.0,0.0,0.0,1.146,1.1968,1.2329,1.2483,1.1378,1.0852,0.0,0.0,0.0,0.0,0.0,0.0,0.0,0.0,0.0,0.0,0.0,0.0,0.0,0.0,0.0,0.0,0.0,0.0,0.0,0.0,0.0,0.0,0.0,0.0,0.0,0.0,0.0,0.0,0.0,0.0,0.0,0.0,0.0,0.0,0.0,0.0,0.0,0.0,0.0,0.0,0.0,0.0,0.0,0.0,0.0,0.0,0.0,0.0,0.0,0.0,0.0,0.0,0.0,0.0,0.0,0.0,0.0,0.0,0.0,0.0,0.0,0.0,0.0,0.0,0.0,0.0,0.0,0.0,0.0,0.0,0.0,0.0,0.0,0.0,0.0,0.0,0.0,0.0,0.0,0.0,0.0,0.0,0.0,0.0,0.0,0.0,0.0,0.0,0.0,0.0,0.0,0.0,0.0,0.0,0.0,0.0,0.0,0.0,0.0,0.0,0.0,0.0,0.0,0.0,0.0,0.0,0.0,0.0,0.0,1.2296,0.0,1.2752,1.2901,1.1861,1.1094,0.0,0.0,0.0,0.0,0.0,0.0,0.0,0.0,0.0,0.0,0.0,0.0,0.0,0.0,0.0,0.0,0.0,0.0,0.0,0.0,0.0,0.0,0.0,0.0,0.0,0.0,0.0,0.0,0.0,0.0,0.0,0.0,0.0,0.0,0.0,0.0,0.0,0.0,0.0,0.0,0.0,0.0,0.0,0.0,0.0,0.0,0.0,0.0,0.0,0.0,0.0,0.0,0.0,0.0,0.0,0.0,0.0,0.0,0.0,0.0,0.0,0.0,0.0,0.0,0.0,0.0,0.0,0.0,0.0,0.0,0.0,0.0,0.0,0.0,0.0,0.0,0.0,0.0,0.0,0.0,0.0,0.0,0.0,0.0,0.0,0.0,0.0,0.0,0.0,0.0,0.0,0.0,0.0,0.0,0.0,0.0,0.0,0.0,0.0,0.0,0.0,0.0,0.0,0.0,0.0,0.0,0.0,0.0,1.3136,1.3899,1.3123,1.3102,1.3802,1.2299,1.098,0.0,0.0,0.0,0.0,0.0,0.0,0.0,0.0,0.0,0.0,0.0,0.0,0.0,0.0,0.0,0.0,0.0,0.0,0.0,0.0,0.0,0.0,0.0,0.0,0.0,0.0,0.0,0.0,0.0,0.0,0.0,0.0,0.0,0.0,0.0,0.0,0.0,0.0,0.0,0.0,0.0,0.0,0.0,0.0,0.0,0.0,0.0,0.0,0.0,0.0,0.0,0.0,0.0,0.0,0.0,0.0,0.0,0.0,0.0,0.0,0.0,0.0,0.0,0.0,0.0,0.0,0.0,0.0,0.0,0.0,0.0,0.0,0.0,0.0,0.0,0.0,0.0,0.0,0.0,0.0,0.0,0.0,0.0,0.0,0.0,0.0,0.0,0.0,0.0,0.0,0.0,0.0,0.0,0.0,0.0,0.0,0.0,0.0,0.0,0.0,0.0,0.0,0.0,0.0,0.0,0.0,0.0,0.0,0.0,1.3971,1.4264,1.4194,1.3761,1.3209,1.198,0.0,0.0,0.0,0.0,0.0,0.0,0.0,0.0,0.0,0.0,0.0,0.0,0.0,0.0,0.0,0.0,0.0,0.0,0.0,0.0,0.0,0.0,0.0,0.0,0.0,0.0,0.0,0.0,0.0,0.0,0.0,0.0,0.0,0.0,0.0,0.0,0.0,0.0,0.0,0.0,0.0,0.0,0.0,0.0,0.0,0.0,0.0,0.0,0.0,0.0,0.0,0.0,0.0,0.0,0.0,0.0,0.0,0.0,0.0,0.0,0.0,0.0,0.0,0.0,0.0,0.0,0.0,0.0,0.0,0.0,0.0,0.0,0.0,0.0,0.0,0.0,0.0,0.0,0.0,0.0,0.0,0.0,0.0,0.0,0.0,0.0,0.0,0.0,0.0,0.0,0.0,0.0,0.0,0.0,0.0,0.0,0.0,0.0,0.0,0.0,0.0,0.0,0.0,0.0,0.0,0.0,0.0,0.0,0.0,1.4769,1.5292,1.5236,1.4627,1.4271,1.295,1.0601,0.0,0.0,0.0,0.0,0.0,0.0,0.0,0.0,0.0,0.0,0.0,0.0,0.0,0.0,0.0,0.0,0.0,0.0,0.0,0.0,0.0,0.0,0.0,0.0,0.0,0.0,0.0,0.0,0.0,0.0,0.0,0.0,0.0,0.0,0.0,0.0,0.0,0.0,0.0,0.0,0.0,0.0,0.0,0.0,0.0,0.0,0.0,0.0,0.0,0.0,0.0,0.0,0.0,0.0,0.0,0.0,0.0,0.0,0.0,0.0,0.0,0.0,0.0,0.0,0.0,0.0,0.0,0.0,0.0,0.0,0.0,0.0,0.0,0.0,0.0,0.0,0.0,0.0,0.0,0.0,0.0,0.0,0.0,0.0,0.0,0.0,0.0,0.0,0.0,0.0,0.0,0.0,0.0,0.0,0.0,0.0,0.0,0.0,0.0,0.0,0.0,0.0,0.0,0.0,0.0,0.0,0.0,0.0,1.62,1.6158,1.6092,1.6036,1.5193,1.3691,0.0,0.0,0.0,0.0,0.0,0.0,0.0,0.0,0.0,0.0,0.0,0.0,0.0,0.0,0.0,0.0,0.0,0.0,0.0,0.0,0.0,0.0,0.0,0.0,0.0,0.0,0.0,0.0,0.0,0.0,0.0,0.0,0.0,0.0,0.0,0.0,0.0,0.0,0.0,0.0,0.0,0.0,0.0,0.0,0.0,0.0,0.0,0.0,0.0,0.0,0.0,0.0,0.0,0.0,0.0,0.0,0.0,0.0,0.0,0.0,0.0,0.0,0.0,0.0,0.0,0.0,0.0,0.0,0.0,0.0,0.0,0.0,0.0,0.0,0.0,0.0,0.0,0.0,0.0,0.0,0.0,0.0,0.0,0.0,0.0,0.0,0.0,0.0,0.0,0.0,0.0,0.0,0.0,0.0,0.0,0.0,0.0,0.0,0.0,0.0,0.0,0.0,0.0,0.0,0.0,0.0,0.0,0.0,0.0,1.6661,1.6533,1.6198,1.5806,1.426,1.2659,0.0,0.0,0.0,0.0,0.0,0.0,0.0,0.0,0.0,0.0,0.0,0.0,0.0,0.0,0.0,0.0,0.0,0.0,0.0,0.0,0.0,0.0,0.0,0.0,0.0,0.0,0.0,0.0,0.0,0.0,0.0,0.0,0.0,0.0,0.0,0.0,0.0,0.0,0.0,0.0,0.0,0.0,0.0,0.0,0.0,0.0,0.0,0.0,0.0,0.0,0.0,0.0,0.0,0.0,0.0,0.0,0.0,0.0,0.0,0.0,0.0,0.0,0.0,0.0,0.0,0.0,0.0,0.0,0.0,0.0,0.0,0.0,0.0,0.0,0.0,0.0,0.0,0.0,0.0,0.0,0.0,0.0,0.0,0.0,0.0,0.0,0.0,0.0,0.0,0.0,0.0,0.0,0.0,0.0,0.0,0.0,0.0,0.0,0.0,0.0,0.0,0.0,0.0,0.0,0.0,0.0,0.0,0.0,1.471,1.6804,1.6219,1.6002,1.6279,1.5065,1.3739,0.0,0.0,0.0,0.0,0.0,0.0,0.0,0.0,0.0,0.0,0.0,0.0,0.0,0.0,0.0,0.0,0.0,0.0,0.0,0.0,0.0,0.0,0.0,0.0,0.0,0.0,0.0,0.0,0.0,0.0,0.0,0.0,0.0,0.0,0.0,0.0,0.0,0.0,0.0,0.0,0.0,0.0,0.0,0.0,0.0,0.0,0.0,0.0,0.0,0.0,0.0,0.0,0.0,0.0,0.0,0.0,0.0,0.0,0.0,0.0,0.0,0.0,0.0,0.0,0.0,0.0,0.0,0.0,0.0,0.0,0.0,0.0,0.0,0.0,0.0,0.0,0.0,0.0,0.0,0.0,0.0,0.0,0.0,0.0,0.0,0.0,0.0,0.0,0.0,0.0,0.0,0.0,0.0,0.0,0.0,0.0,0.0,0.0,0.0,0.0,0.0,0.0,0.0,0.0,0.0,0.0,0.0,0.0,1.4648,1.6587,1.562,1.5714,1.6976,1.6517,1.5623,0.0,0.0,0.0,0.0,0.0,0.0,0.0,0.0,0.0,0.0,0.0,0.0,0.0,0.0,0.0,0.0,0.0,0.0,0.0,0.0,0.0,0.0,0.0,0.0,0.0,0.0,0.0,0.0,0.0,0.0,0.0,0.0,0.0,0.0,0.0,0.0,0.0,0.0,0.0,0.0,0.0,0.0,0.0,0.0,0.0,0.0,0.0,0.0,0.0,0.0,0.0,0.0,0.0,0.0,0.0,0.0,0.0,0.0,0.0,0.0,0.0,0.0,0.0,0.0,0.0,0.0,0.0,0.0,0.0,0.0,0.0,0.0,0.0,0.0,0.0,0.0,0.0,0.0,0.0,0.0,0.0,0.0,0.0,0.0,0.0,0.0,0.0,0.0,0.0,0.0,0.0,0.0,0.0,0.0,0.0,0.0,0.0,0.0,0.0,0.0,0.0,0.0,0.0,0.0,0.0,0.0,0.0,0.0,1.4977,1.6324,1.5836,1.5942,1.674,1.5712,1.4746,0.0,0.0,0.0,0.0,0.0,0.0,0.0,0.0,0.0,0.0,0.0,0.0,0.0,0.0,0.0,0.0,0.0,0.0,0.0,0.0,0.0,0.0,0.0,0.0,0.0,0.0,0.0,0.0,0.0,0.0,0.0,0.0,0.0,0.0,0.0,0.0,0.0,0.0,0.0,0.0,0.0,0.0,0.0,0.0,0.0,0.0,0.0,0.0,0.8057,0.0,0.0,0.0,0.0,0.0,0.0,0.0,0.0,0.0,0.0,0.0,0.0,0.0,0.0,0.0,0.0,0.0,0.0,0.0,0.0,0.0,0.0,0.0,0.0,0.0,0.0,0.0,0.0,0.0,0.0,0.0,0.0,0.0,0.0,0.0,0.0,0.0,0.0,0.0,0.0,0.0,0.0,0.0,0.0,0.0,0.0,0.0,0.0,0.0,0.0,0.0,0.0,0.0,0.0,0.0,0.0,0.0,0.0,0.0,1.4782,1.5585,1.5261,1.5392,1.5959,1.4978,1.4314,0.0,0.0,0.0,0.0,0.0,0.0,0.0,0.0,0.0,0.0,0.0,0.0,0.0,0.0,0.0,0.0,0.0,0.0,0.0,0.0,0.0,0.0,0.0,0.0,0.0,0.0,0.0,0.0,0.0,0.0,0.0,0.0,0.0,0.0,0.0,0.0,0.0,0.0,0.0,0.0,0.0,0.0,0.0,0.0,0.0,0.0,0.0,0.0,0.0,0.0,0.0,0.0,0.0,0.0,0.0,0.0,0.0,0.0,0.0,0.0,0.0,0.0,0.0,0.0,0.0,0.0,0.0,0.0,0.0,0.0,0.0,0.0,0.0,0.0,0.0,0.0,0.0,0.0,0.0,0.0,0.0,0.0,0.0,0.0,0.0,0.0,0.0,0.0,0.0,0.0,0.0,0.0,0.0,0.0,0.0,0.0,0.0,0.0,0.0,0.0,0.0,0.0,0.0,0.0,0.0,0.0,0.0,1.4148,1.4623,1.4828,1.4721,1.4833,1.5069,1.4333,1.3979,1.4024,0.0,0.0,0.0,0.0,0.0,0.0,0.0,0.0,0.0,0.0,0.0,0.0,0.0,0.0,0.0,0.0,0.0,0.0,0.0,0.0,0.0,0.0,0.0,0.0,0.0,0.0,0.0,0.0,0.0,0.0,0.0,0.0,0.0,0.0,0.0,0.0,0.0,0.0,0.7415,0.8271,0.0,0.0,0.0,0.0,0.0,0.0,0.0,0.0,0.8159,0.0,0.0,0.0,0.0,0.0,0.0,0.0,0.0,0.0,0.0,0.0,0.0,0.0,0.0,0.0,0.0,0.0,0.0,0.0,0.0,0.0,0.0,0.0,0.0,0.0,0.0,0.0,0.0,0.0,0.0,0.0,0.0,0.0,0.0,0.0,0.0,0.0,0.0,0.0,0.0,0.0,0.0,0.0,0.0,0.0,0.0,0.0,0.0,0.0,0.0,0.0,0.0,0.0,0.0,0.0,0.0,1.3092,1.4986,1.5494,1.4622,1.5486,1.5374,1.4112,1.3811,1.3355,1.2629,0.0,0.0,0.0,0.0,0.0,0.0,0.0,0.0,0.0,0.0,0.0,0.0,0.0,0.0,0.0,0.0,0.0,0.0,0.0,0.0,0.0,0.0,0.0,0.0,0.0,0.0,0.0,0.0,0.0,0.0,0.0,0.0,0.0,0.0,0.0,0.0,0.0,0.0,0.0,0.3995,0.312,0.0,0.0,0.0,0.0,0.0,0.0,0.0,0.0,0.8172,0.0,0.0,0.0,0.0,0.0,0.0,0.0,0.0,0.0,0.0,0.0,0.0,0.0,0.0,0.0,0.0,0.0,0.0,0.0,0.0,0.0,0.0,0.0,0.0,0.0,0.0,0.0,0.0,0.0,0.0,0.0,0.0,0.0,0.0,0.0,0.0,0.0,0.0,0.0,0.0,0.0,0.0,0.0,0.0,0.0,0.0,0.0,0.0,0.0,0.0,0.0,0.0,0.0,0.0,0.0,1.3561,1.5185,1.566,1.49,1.5324,1.4962,1.369,1.3005,1.2266,0.0,0.0,0.0,0.0,0.0,0.0,0.0,0.0,0.0,0.0,0.0,0.0,0.0,0.0,0.0,0.0,0.0,0.0,0.0,0.0,0.0,0.0,0.0,0.0,0.0,0.0,0.0,0.0,0.0,0.0,0.0,0.0,0.0,0.0,0.0,0.0,0.0,0.0,0.0,0.0,0.1672,0.1693,0.138,0.0,0.0,0.0,0.0,0.0,0.0,0.4355,0.6279,0.0,0.0,0.0,0.0,0.0,0.0,0.0,0.0,0.0,0.0,0.0,0.0,0.0,0.0,0.0,0.0,0.0,0.0,0.0,0.0,0.0,0.0,0.0,0.0,0.0,0.0,0.0,0.0,0.0,0.0,0.0,0.0,0.0,0.0,0.0,0.0,0.0,0.0,0.0,0.0,0.0,0.0,0.0,0.0,0.0,0.0,0.0,0.0,0.0,0.0,0.0,0.0,0.0,0.0,0.0,1.3714,1.5225,1.5697,1.5171,1.507,1.4511,1.3402,1.2332,1.1429,0.0,0.0,0.0,0.0,0.0,0.0,0.0,0.0,0.0,0.0,0.0,0.0,0.0,0.0,0.0,0.0,0.0,0.0,0.0,0.0,0.0,0.0,0.0,0.0,0.0,0.0,0.0,0.0,0.0,0.0,0.0,0.0,0.0,0.0,0.0,0.0,0.0,0.0,0.0,0.0,0.0,-0.0299,-0.0681,-0.1137,0.0,0.0,0.0,0.0,0.141,0.2379,0.0,0.0,0.0,0.0,0.0,0.0,0.0,0.0,0.0,0.0,0.0,0.0,0.0,0.0,0.0,0.0,0.0,0.0,0.0,0.0,0.0,0.0,0.0,0.0,0.0,0.0,0.0,0.0,0.0,0.0,0.0,0.0,0.0,0.0,0.0,0.0,0.0,0.0,0.0,0.0,0.0,0.0,0.0,0.0,0.0,0.0,0.0,0.0,0.0,0.0,0.0,0.0,0.0,0.0,0.0,0.0,1.2852,1.5297,1.6034,1.5022,1.532,1.4703,1.3023,1.2097,1.1386,0.0,0.0,0.0,0.0,0.0,0.0,0.0,0.0,0.0,0.0,0.0,0.0,0.0,0.0,0.0,0.0,0.0,0.0,0.0,0.0,0.0,0.0,0.0,0.0,0.0,0.0,0.0,0.0,0.0,0.0,0.0,0.0,0.0,0.0,0.0,0.0,0.0,0.0,0.0,0.0,0.0,-0.6727,-0.6533,-0.7768,-0.8724,0.0,0.0,-0.4905,-0.6653,-0.2254,0.0,0.0,0.0,0.0,0.0,0.0,0.0,0.0,0.0,0.0,0.0,0.0,0.0,0.0,0.0,0.0,0.0,0.0,0.0,0.0,0.0,0.0,0.0,0.0,0.0,0.0,0.0,0.0,0.0,0.0,0.0,0.0,0.0,0.0,0.0,0.0,0.0,0.0,0.0,0.0,0.0,0.0,0.0,0.0,0.0,0.0,0.0,0.0,0.0,0.0,0.0,0.0,0.0,0.0,0.0,1.2207,1.2609,1.5129,1.6089,1.5382,1.5292,1.4577,1.3114,1.1858,1.0801,0.0,0.0,0.0,0.0,0.0,0.0,0.0,0.0,0.0,0.0,0.0,0.0,0.0,0.0,0.0,0.0,0.0,0.0,0.0,0.0,0.0,0.0,0.0,0.0,0.0,0.0,0.0,0.0,0.0,0.0,0.0,0.0,0.0,0.0,0.0,0.0,0.0,0.0,0.0,0.0,0.0,0.0,-0.8803,-0.9943,0.0,0.0,0.0,-0.8038,-0.7163,0.0,0.0,0.0,0.0,0.0,0.0,0.0,0.0,0.0,0.0,0.0,0.0,0.0,0.0,0.0,0.0,0.0,0.0,0.0,0.0,0.0,0.0,0.0,0.0,0.0,0.0,0.0,0.0,0.0,0.0,0.0,0.0,0.0,0.0,0.0,0.0,0.0,0.0,0.0,0.0,0.0,0.0,0.0,0.0,0.0,0.0,0.0,0.0,0.0,0.0,0.0,0.0,0.0,0.0,0.0,0.0,0.0,1.3099,1.4992,1.5942,1.5727,1.5077,1.416,1.2957,1.1442,0.0,0.0,0.0,0.0,0.0,0.0,0.0,0.0,0.0,0.0,0.0,0.0,0.0,0.0,0.0,0.0,0.0,0.0,0.0,0.0,0.0,0.0,0.0,0.0,0.0,0.0,0.0,-0.1436,0.0,0.0,0.0,0.0,0.0,0.0,0.0,0.0,0.0,0.0,0.0,0.0,0.0,0.0,-0.8809,-0.9848,-1.0882,-1.1409,0.0,0.0,-0.987,-0.7052,-0.6025,-0.4342,0.0,0.0,0.0,0.0,0.0,0.0,0.0,0.0,0.0,0.0,0.0,0.0,0.0,0.0,0.0,0.0,0.0,0.0,0.0,0.0,0.0,0.0,0.0,0.0,0.0,0.0,0.0,0.0,0.0,0.0,0.0,0.0,0.0,0.0,0.0,0.0,0.0,0.0,0.0,0.0,0.0,0.0,0.0,0.0,0.0,0.0,0.0,0.0,0.0,0.0,0.0,0.0,0.0,0.0,0.0,1.4579,1.498,1.5419,1.5839,1.4618,1.3431,1.2283,1.0712,0.9798,0.0,0.0,0.0,0.0,0.0,0.0,0.0,0.0,0.0,0.0,0.0,0.0,0.0,0.0,0.0,0.0,0.0,0.0,0.0,0.0,0.0,0.0,0.0,0.0,0.0,0.0,0.0,0.0,0.0,0.0,0.0,0.0,0.0,0.0,0.0,0.0,0.0,0.0,0.0,0.0,0.0,-0.9234,-1.0158,-1.1126,-1.1581,0.0,0.0,-0.9702,-0.8437,-0.8233,-0.7029,-0.3479,0.0,0.0,0.0,0.0,0.0,0.0,0.0,0.0,0.0,0.0,0.0,0.0,0.0,0.0,0.0,0.0,0.0,0.0,0.0,0.0,0.0,0.0,0.0,0.0,0.0,0.0,0.0,0.0,0.0,0.0,0.0,0.0,0.0,0.0,0.0,0.0,0.0,0.0,0.0,0.0,0.0,0.0,0.0,0.0,0.0,0.0,0.0,0.0,0.0,0.0,0.0,0.0,0.0,1.2724,1.2957,1.4125,1.4785,1.4854,1.3912,1.3079,1.2448,1.0952,0.9752,0.0,0.0,0.0,0.0,0.0,0.0,0.0,0.0,0.0,0.0,0.0,0.0,0.0,0.0,0.0,0.0,0.0,0.0,0.0,0.0,0.0,0.0,0.0,0.0,0.0,0.0,0.0,0.0,0.2323,0.3923,0.4109,0.0,0.0,0.0,0.0,0.0,0.0,0.0,0.0,0.0,0.0,-1.0612,-1.1378,-1.2705,0.0,0.0,-1.2555,-1.2211,-1.1003,-0.9975,-0.8424,-0.5615,-0.4655,0.0,0.0,0.0,0.0,0.0,0.0,0.0,0.0,0.0,0.0,0.0,0.0,0.0,0.0,0.0,0.0,0.0,0.0,0.0,0.0,0.0,0.0,0.0,0.0,0.0,0.0,0.0,0.0,0.0,0.0,0.0,0.0,0.0,0.0,0.0,0.0,0.0,0.0,0.0,0.0,0.0,0.0,0.0,0.0,0.0,0.0,0.0,0.0,0.0,0.0,0.0,0.0,1.2671,1.2462,1.3556,1.4135,1.4153,1.3365,1.2696,1.2178,1.0821,0.9544,0.0,0.0,0.0,0.0,0.0,0.0,0.0,0.0,0.0,0.0,0.0,0.0,0.0,0.0,0.0,0.0,0.0,0.0,0.0,0.0,0.0,0.0,0.0,0.0,0.0,0.0,0.0,0.0,0.3425,0.4649,0.4363,0.0,0.0,0.0,0.0,0.0,0.0,0.0,0.0,0.0,0.0,-1.0029,-1.2295,-1.3786,-1.3738,-1.1193,-1.2589,-1.2995,-1.0241,-0.8859,-0.7993,-0.7584,0.0,0.0,0.0,0.0,0.0,0.0,0.0,0.0,0.0,0.0,0.0,0.0,0.0,0.0,0.0,0.0,0.0,0.0,0.0,0.0,0.0,0.0,0.0,0.0,0.0,0.0,0.0,0.0,0.0,0.0,-0.0492,0.0,0.0,0.0,0.0,0.0,0.0,0.0,0.0,0.0,0.0,0.0,0.0,0.0,0.0,0.0,0.0,0.0,0.0,0.0,0.0,0.0,0.0,1.2234,1.3877,1.3461,1.3472,1.3876,1.3044,1.2197,1.1256,1.0007,0.9108,0.8578,0.0,0.0,0.0,0.0,0.0,0.0,0.0,0.0,0.0,0.0,0.0,0.0,0.0,0.0,0.0,0.0,0.0,0.0,0.0,0.0,0.0,0.0,0.0,0.0,0.0,0.0,0.1912,0.3524,0.4504,0.0,0.0,0.0,0.0,0.0,0.0,0.0,0.0,0.0,0.0,-0.4612,-0.6786,-1.2705,-1.3966,-1.2045,-0.6204,-0.9724,-1.102,-0.5032,-0.419,-0.5474,0.0,0.0,0.0,0.0,0.0,0.0,0.0,0.0,0.0,0.0,0.0,0.0,0.0,0.0,0.0,0.0,0.0,0.0,0.0,0.0,0.0,0.0,0.0,0.0,0.0,0.0,0.0,0.3524,0.1852,0.0,0.0,0.0,0.0,0.0,0.0,0.0,0.0,0.0,0.0,0.0,0.5778,0.9959,0.0,0.0,0.0,0.0,0.0,0.0,0.0,0.0,0.0,0.0,0.0,0.0,1.347,1.3291,1.331,1.353,1.3861,1.2754,1.1866,1.1276,1.0374,0.9227,0.783,0.0,0.0,0.0,0.0,0.0,0.0,0.0,0.0,0.0,0.0,0.0,0.0,0.0,0.0,0.0,0.0,0.0,0.0,0.0,0.0,0.0,0.0,0.0,0.0,0.0,0.2224,0.0,0.0,0.0,0.0,0.0,0.0,0.0,0.0,0.0,0.0,0.0,0.291,-0.275,-0.5364,-0.8589,-1.3685,-1.1634,-0.8569,0.0,0.0,0.0,0.0,0.0,0.0,0.0,0.0,0.0,0.0,0.0,0.0,0.0,0.0,-0.2379,-0.314,-0.319,-0.301,-0.2713,0.0,0.0,0.0,0.0,0.0,0.0,0.0,0.0,0.0,0.0,0.0,0.0,0.0,0.0,0.0689,0.0,-0.2404,0.0,0.0,0.0,0.0,0.0,0.0,0.0,0.0,0.2419,0.5892,0.7192,1.2382,1.6204,0.0,1.9734,1.9079,0.0,0.0,0.0,0.0,0.0,0.0,0.0,0.0,1.3541,1.3104,1.2967,1.3184,1.3632,1.2485,1.164,1.1269,1.0739,0.9845,0.845,0.8245,0.7893,0.0,0.0,0.0,0.0,0.0,0.0,0.0,0.0,0.0,0.0,0.0,0.0,0.0,0.0,0.0,0.0,0.0,0.0,0.0,0.0,0.0,0.0,0.0,0.3707,0.0,0.0,0.0,0.0,0.0,0.0,0.0,0.0,0.0,0.7875,0.8078,0.6243,0.0987,-0.2833,-0.6108,-0.8607,0.0,0.0,0.0,0.0,0.0,0.0,0.0,-0.0101,-0.1132,0.066,0.1736,0.0401,-0.0653,-0.1322,-0.1468,0.0,0.0,-0.3036,-0.3174,-0.3089,-0.2711,-0.1986,-0.1188,-0.0424,0.0142,0.0524,0.0,0.0,0.0,0.0,0.0,0.0,0.0,0.0,0.1052,-0.2944,0.0,-0.6159,0.0,0.0,0.0,0.0,0.0,-0.2092,0.0,0.0,0.6413,1.0253,0.9755,1.5775,1.927,2.0101,2.1598,2.1587,2.0041,1.933,0.0,0.0,0.0,0.0,0.0,0.0,1.2502,1.3459,1.2558,1.2448,1.3275,1.2209,1.1454,1.1149,1.1009,1.0765,1.0402,1.2034,1.2609,1.1597,1.0361,0.0,0.0,0.0,0.0,0.0,0.0,0.0,0.0,0.0,0.0,0.0,0.0,0.0,0.0,0.0,0.0,0.0,0.0,0.0,0.0,0.3917,0.0,0.0,0.0,0.0,0.0,0.0,0.0,0.0,0.0,0.0,1.0168,1.1992,1.1491,0.6628,0.0,0.0,0.0,0.0,-0.2195,0.97,0.717,0.551,1.0202,1.0061,0.5287,-0.666,0.0,0.0,0.2217,0.0843,0.0176,-0.0589,-0.1023,-0.1508,-0.2035,-0.2379,-0.2438,-0.228,-0.2111,-0.1588,-0.0422,0.0052,0.0257,1.0405,0.0,0.0,0.0,0.0,1.3027,0.8405,0.5982,-0.2153,-0.6319,-0.738,-0.7264,0.0,0.0,0.0,0.0,0.0,0.0,-0.1856,-0.1534,0.4733,0.61,0.3557,1.2203,1.5605,1.4495,1.8617,2.0967,2.148,2.1142,2.0099,1.8381,0.0,0.0,0.0,0.0,1.4383,1.3889,1.2882,1.2318,1.2247,1.0989,1.031,1.028,1.0536,1.0805,1.1222,1.1906,1.2497,1.2967,1.2743,0.0,0.0,0.0,0.0,0.0,0.0,0.0,0.0,0.0,0.0,0.0,0.0,0.0,0.0,0.0,0.0,0.0,0.0,0.0,0.2762,0.3827,0.4435,0.0,0.0,0.0,0.0,0.0,0.0,0.0,0.0,0.0,0.9456,1.1566,1.0449,0.0,0.0,-0.3455,-0.8673,-0.3723,0.1769,0.5018,1.2409,0.0,1.834,1.4098,0.9916,0.751,0.6551,0.5136,0.303,0.2159,0.1583,0.094,0.0118,-0.0528,-0.0789,-0.1631,-0.2204,-0.2296,-0.1718,-0.0857,-0.0056,0.0398,0.0684,0.8511,0.9962,1.1959,1.563,1.9498,1.4269,1.0221,0.6896,-0.0683,-0.5439,-0.7868,-0.7813,-0.7736,-0.7595,-0.6847,0.0,0.0,0.0,-0.1277,0.027,0.4413,0.5495,0.4396,1.0495,1.2292,1.0318,1.5941,1.8672,1.8534,2.126,2.1703,2.0057,0.0,0.0,1.5587,1.4572,1.3605,1.2619,1.0894,0.9849,0.9574,0.9062,0.8986,0.9435,1.0386,1.1399,1.2336,1.3052,1.367,1.4214,1.4487,1.3128,0.0,0.0,0.0,0.0,0.0,0.0,0.0,0.0,0.0,0.0,0.0,0.0195,0.0,0.0,0.0,0.0,0.0101,0.2297,0.4888,0.5394,0.0,0.0,0.0,0.0,0.0,0.0,0.0,0.2149,0.5356,0.806,0.9038,0.9692,0.8419,0.4061,0.017,-0.3286,-0.6116,0.0,0.2252,0.6434,1.4228,1.9943,2.0594,1.6809,1.3545,1.2883,0.9094,0.5672,0.4464,0.3702,0.2965,0.2136,0.1336,0.0696,0.045,-0.022,-0.0871,-0.1279,-0.0881,-0.0222,0.0533,0.1069,0.1371,0.5329,0.8301,1.5434,1.7604,1.6506,1.7368,1.414,0.8057,0.329,-0.2204,-0.7878,-0.8104,-0.8215,-0.8133,-0.6532,0.0,-0.3047,-0.1824,0.0209,0.2889,0.5199,0.6948,0.8351,0.9908,0.9321,0.6879,1.3403,1.5447,1.3786,1.9979,2.2771,2.1914,1.9966,1.77,1.5102,1.2727,1.1012,0.9878,0.7207,0.5834,0.586,0.6537,0.7382,0.8313,1.0236,1.186,1.3211,1.4773,1.5529,1.5287,1.5727,1.3807,0.9316,0.0,0.0,0.0,0.0,0.0,0.0,0.0,0.0,0.0,0.0,0.0,0.0,0.0,0.0,0.0,0.5222,0.0,0.7106,0.7643,0.0,0.0,0.0,0.445,0.2579,0.3302,0.3439,0.2243,0.0,0.0,0.87,0.695,0.5644,0.606,0.1109,-0.1076,0.3031,-0.0622,0.0459,0.9907,1.2779,1.4728,1.8011,1.7534,1.5526,1.2112,0.9692,0.7905,0.6382,0.5314,0.4339,0.3135,0.2514,0.2083,0.1574,0.1452,0.1342,0.0558,0.0336,0.0514,0.1384,0.1922,0.2105,0.4822,0.3806,0.7445,1.2169,1.7187,1.7246,1.3403,0.6799,0.1676,-0.385,-0.9255,-0.9155,-0.8272,-0.6779,-0.4771,-0.2693,-0.0514,0.0985,0.3033,0.5425,0.5637,0.4778,0.3368,0.6576,0.6869,0.4888,0.9905,1.3615,1.576,1.793,1.9544,2.0517,2.0067,1.6975,1.1595,1.1308,0.9379,0.5561,0.3713,0.2794,0.2781,0.3407,0.4279,0.5418,0.7309,0.9245,1.116,1.3151,1.4775,1.5978,1.6262,1.6068,1.5361,1.0623,0.0,0.0,0.0,0.0,0.0,0.0,0.0,0.0,0.0,0.7463,0.3674,0.0,0.8592,0.0,0.6208,0.7026,0.7503,0.6599,0.0,0.0,0.5185,0.4581,0.3929,0.3934,0.3964,0.3881,0.4442,0.5188,0.6043,0.4275,0.2236,0.0553,-0.1975,-0.4455,-0.6326,-0.3864,-0.1337,0.1727,0.7083,1.1614,1.3686,1.4773,1.4606,1.2701,1.1005,0.9415,0.7941,0.6701,0.547,0.445,0.3752,0.3261,0.2742,0.2627,0.2571,0.2406,0.2224,0.2101,0.2255,0.235,0.2327,0.4994,0.311,0.5303,0.9782,1.5486,1.72,1.5589,1.1379,0.5809,-0.0098,-0.6024,-0.8514,-0.78,-0.4649,-0.2864,-0.0717,0.1714,0.3268,0.4865,0.6373,0.586,0.4735,0.3231,0.4641,0.3953,0.166,0.6815,0.9742,1.0771,1.421,1.6536,1.7627,1.7654,1.4449,0.8295,0.8632,0.8083,0.6375,0.0841,-0.1635,-0.0855,0.0153,0.1236,0.2401,0.4184,0.5952,0.7628,0.9344,1.1615,1.4379,1.4674,1.5531,1.7128,1.3122,1.2181,0.0,0.0,0.0,0.0,0.0,0.0,0.0,0.0,0.0,0.0,0.0,1.1712,0.9467,0.9222,0.912,0.9024,0.8151,0.7346,0.6668,0.5988,0.5381,0.4721,0.4555,0.4432,0.4358,0.4265,0.4074,0.373,0.2175,0.0112,-0.2338,-0.3849,-0.5841,-0.8504,-0.6564,-0.4102,-0.1988,0.2355,0.6977,1.0372,1.2054,1.2715,1.2122,1.1149,1.0005,0.8803,0.7528,0.6298,0.5382,0.4622,0.4076,0.3688,0.3621,0.3594,0.3442,0.346,0.3351,0.3004,0.2893,0.2767,0.5515,0.4229,0.5523,0.8829,1.3493,1.7087,1.8319,1.7398,1.134,0.4518,-0.2682,-0.7338,-0.6743,-0.2221,-0.0774,0.1234,0.3631,0.5078,0.5975,0.6406,0.5929,0.5549,0.5269,0.3724,0.1653,-0.047,0.4257,0.5526,0.3753,1.0144,1.3531,1.406,1.4448,1.1683,0.6102,0.6079,0.6389,0.6687,-0.2348,-0.6263,-0.4685,-0.3058,-0.1698,-0.0639,0.0965,0.2443,0.3779,0.4997,0.7509,1.1301,1.158,1.2858,1.5454,1.4427,1.3644,0.0,1.3047,0.0,0.0,0.0,0.0,0.0,0.0,0.0,0.0,1.547,1.5261,1.3893,1.2782,1.1771,1.0988,1.06,0.9716,0.8019,0.7105,0.6237,0.5153,0.4985,0.4764,0.4251,0.3997,0.3305,0.2214,0.0788,-0.0965,-0.3168,-0.4399,-0.5713,-0.74,-0.789,-0.6555,-0.2616,-0.1067,0.2453,0.7241,0.9423,1.0252,1.0506,1.0337,0.9836,0.8944,0.7872,0.6836,0.5996,0.523,0.4636,0.4304,0.4358,0.4326,0.3981,0.4156,0.4195,0.3574,0.3379,0.3325,0.5452,0.4069,0.2361,0.7152,1.5927,1.6331,1.641,1.5847,0.9343,0.0354,-0.9478,-0.7681,-0.4539,-0.0517,0.195,0.3824,0.527,0.616,0.6531,0.6553,0.5965,0.5547,0.5139,0.4092,0.3133,0.2293,0.3515,0.4719,0.5814,0.792,0.9827,1.1375,1.3304,1.2247,0.8398,0.0,0.0,0.0,-0.8829,-0.903,-0.7611,-0.6322,-0.4958,-0.3437,-0.1983,0.0,0.1629,0.3164,0.4983,0.7041,0.6993,0.0,0.0,0.0,0.0,0.0,0.0,0.0,0.0,0.0,0.0,0.0,1.3312,1.363,1.5067,1.5303,1.5159,1.4736,1.3888,1.2982,1.1998,1.0621,0.9208,0.7709,0.6818,0.6051,0.5346,0.5033,0.4838,0.4765,0.393,0.3128,0.257,0.1151,-0.0528,-0.2395,-0.3573,-0.4628,-0.5604,-0.6803,-0.6982,-0.5661,-0.2588,0.0515,0.3152,0.5621,0.7273,0.7762,0.8433,0.8509,0.807,0.7678,0.7057,0.6211,0.5504,0.4916,0.4646,0.4529,0.4474,0.4397,0.4424,0.4244,0.3594,0.3589,0.3473,0.4935,0.0,0.1384,0.448,0.0,1.5228,1.6783,1.6431,1.3121,0.3788,-0.89,-0.5093,-0.0391,0.4732,0.5837,0.6543,0.686,0.6969,0.6784,0.6437,0.5653,0.5038,0.4659,0.3826,0.3233,0.2833,0.2795,0.3246,0.4156,0.5338,0.6611,0.7958,0.8533,0.7899,0.6111,0.3168,-0.2514,-1.0784,-1.0465,-0.9904,-0.9182,-0.8269,-0.7113,-0.5847,-0.517,0.0,0.0,0.0,0.0,0.0,0.0,0.0,0.0,0.5737,0.0,0.637,0.6892,0.7709,0.892,1.0127,1.065,1.0084,0.984,1.0998,1.4104,1.4286,1.4367,1.4503,1.3863,1.3159,1.253,1.0995,0.9477,0.8108,0.6959,0.6007,0.5358,0.4882,0.4667,0.4525,0.3856,0.3189,0.2817,0.1596,0.0212,-0.1167,-0.2296,-0.3309,-0.4377,-0.5732,-0.6507,-0.5982,-0.3788,-0.143,-0.0061,0.1808,0.3615,0.4386,0.56,0.6296,0.6075,0.6576,0.6774,0.5904,0.537,0.5031,0.493,0.4925,0.487,0.4706,0.4751,0.4607,0.4014,0.3766,0.3644,0.4363,0.3653,0.1683,0.2742,0.6156,1.0271,1.401,1.7165,0.0,0.0,0.0,-0.0503,0.4336,0.9984,0.9383,0.8795,0.8317,0.7625,0.6984,0.625,0.5365,0.4675,0.4151,0.3398,0.2874,0.2694,0.2295,0.196,0.1741,0.2974,0.3888,0.4388,0.352,0.2815,0.2188,-0.1773,-0.5911,-0.9781,-1.0113,-1.0123,-1.0052,-0.9497,-0.8717,-0.7742,-0.7695,-0.731,-0.6466,-0.6544,-0.4745,-0.1066,-0.072,0.0622,0.3386,0.3001,0.2569,0.252,0.2823,0.332,0.4133,0.618,0.7,0.5977,0.6138,0.819,1.2697,1.3003,1.3232,1.3891,1.358,1.3215,1.2888,1.151,1.0036,0.8703,0.7257,0.6029,0.5215,0.464,0.4256,0.4045,0.3649,0.3233,0.2676,0.186,0.0911,-0.0148,-0.1218,-0.2225,-0.3507,-0.4909,-0.5588,-0.4966,-0.3995,-0.3259,-0.2471,-0.1221,-0.0063,0.0929,0.2636,0.3714,0.389,0.4904,0.5605,0.5054,0.4837,0.483,0.4911,0.5009,0.5108,0.4838,0.4965,0.4924,0.4367,0.3956,0.3661,0.3771,0.3314,0.3198,0.4927,0.6795,-0.5405,-0.0441,1.5918,1.6682,1.2636,0.579,0.6287,0.8655,1.2135,1.0478,0.9588,0.9354,0.8347,0.7292,0.6241,0.5516,0.4707,0.3892,0.3057,0.2644,0.2569,0.2058,0.1643,0.1479,0.1801,0.2049,0.2134,0.2383,0.1299,-0.1355,-0.3399,-0.5369,-0.7321,-0.948,-1.0574,-1.0398,-1.0238,-0.9647,-0.8733,-0.8346,-0.7952,-0.7407,-0.7344,-0.6674,-0.5488,-0.5473,-0.5258,-0.4616,-0.3006,-0.1829,-0.0672,0.0616,0.1808,0.2918,0.3403,0.3498,0.3263,0.3381,0.5813,1.1182,1.1539,1.1998,1.332,1.3635,1.3688,1.3144,1.1981,1.0559,0.886,0.7428,0.6175,0.5045,0.4302,0.3818,0.3352,0.3109,0.275,0.2262,0.1692,0.1115,0.0233,-0.0741,-0.192,-0.3067,-0.4146,-0.4538,-0.4303,-0.4311,-0.4219,-0.3694,-0.3166,-0.2314,-0.1841,-0.0199,0.1166,0.1521,0.2601,0.3535,0.3816,0.3763,0.3944,0.4314,0.4466,0.4519,0.4519,0.4558,0.4422,0.423,0.3862,0.336,0.3059,0.2783,0.232,0.2412,0.2714,0.0305,0.6348,1.8074,2.2205,2.0469,1.5072,1.3984,1.3411,1.2997,1.1144,1.0028,0.9502,0.7963,0.6767,0.5859,0.4951,0.412,0.3369,0.2382,0.2054,0.2142,0.1907,0.1656,0.1395,0.1483,0.122,0.0698,0.0265,-0.0789,-0.2403,-0.3468,-0.4594,-0.5925,-0.8725,-1.0184,-1.0201,-1.0343,-1.0119,-0.9437,-0.893,-0.8526,-0.8171,-0.811,-0.7793,-0.7213,-0.7215,-0.7016,-0.6637,-0.5532,-0.4475,-0.3403,-0.2311,-0.135,-0.0449,-0.0598,-0.1255,-0.237,-0.1535,0.0409,0.3578,0.7008,0.9701,1.1571,1.2406,1.287,1.2926,1.1858,1.0571,0.9169,0.7728,0.635,0.5177,0.4334,0.3779,0.3353,0.31,0.2817,0.2567,0.2176,0.1653,0.087,-0.0298,-0.1486,-0.2346,-0.2984,-0.3493,-0.3565,-0.3801,-0.4026,-0.4041,-0.3949,-0.3691,-0.3483,-0.2724,-0.1724,-0.0808,0.0468,0.1521,0.2331,0.264,0.3029,0.3675,0.3825,0.3909,0.4061,0.406,0.3963,0.3869,0.3403,0.2804,0.2096,0.1813,0.0858,-0.1095,-0.2733,0.5821,1.1631,1.55,2.2864,2.3659,1.9538,1.8927,1.6977,1.38,1.1583,1.0184,0.9312,0.7421,0.6175,0.5261,0.4411,0.3552,0.2606,0.1682,0.1517,0.1782,0.1815,0.1646,0.1456,0.1358,0.0545,-0.0826,-0.1784,-0.2359,-0.2881,-0.3456,-0.4224,-0.521,-0.7725,-0.9221,-0.9486,-0.9942,-1.0019,-0.9526,-0.9063,-0.8759,-0.8591,-0.8531,-0.8414,-0.8237,-0.7997,-0.7747,-0.7337,-0.6848,-0.6298,-0.5568,-0.4924,-0.4359,-0.3955,-0.4172,-0.5244,-0.7045,-0.5897,-0.4567,-0.3264,0.1441,0.5982,0.8805,1.0378,1.1409,1.2024,1.1531,1.0542,0.9497,0.824,0.6913,0.5628,0.4788,0.4019,0.3537,0.3197,0.2995,0.2844,0.2532,0.2063,0.1291,0.015,-0.0935,-0.1629,-0.2075,-0.2514,-0.2898,-0.3238,-0.3533,-0.3801,-0.4094,-0.4154,-0.4299,-0.4089,-0.3297,-0.2263,-0.1127,-0.007,0.096,0.1572,0.2187,0.2944,0.3193,0.3256,0.3526,0.3479,0.3417,0.327,0.2799,0.2213,0.0572,0.0095,-0.0571,-0.4538,-0.8642,-0.0466,0.2457,0.2314,1.136,1.5138,1.455,1.81,1.7727,1.4503,1.1798,1.0045,0.8941,0.7288,0.5799,0.4678,0.4334,0.3302,0.1695,0.1153,0.1155,0.1614,0.1641,0.1546,0.1523,0.1401,-0.0188,-0.2829,-0.2626,-0.2762,-0.3675,-0.4107,-0.4576,-0.516,-0.6459,-0.7426,-0.807,-0.879,-0.8985,-0.8709,-0.8401,-0.8291,-0.8379,-0.8203,-0.8467,-0.9041,-0.8742,-0.852,-0.8271,-0.7779,-0.7239,-0.6967,-0.6527,-0.6271,-0.6259,-0.6586,-0.7102,-0.7919,-0.787,-0.7278,-0.6405,-0.4027,-0.0144,0.4544,0.7678,0.9437,1.0719,1.1076,1.0859,1.0096,0.9202,0.8081,0.6587,0.55,0.4541,0.3356,0.3155,0.2781,0.2544,0.219,0.1877,0.1425,0.0635,-0.0379,-0.1315,-0.1919,-0.2221,-0.239,-0.2746,-0.3199,-0.3416,-0.3706,-0.3891,-0.3979,-0.3711,-0.3283,-0.2691,-0.1959,-0.1086,-0.0071,0.0647,0.1291,0.2083,0.2536,0.2684,0.2625,0.268,0.2694,0.247,0.2256,0.1855,-0.0667,-0.1238,-0.1997,-0.4959,-0.7838,-0.1056,0.1175,0.0663,0.9392,1.2943,1.2455,1.3822,1.4168,1.3689,1.1139,0.9406,0.8419,0.6438,0.5034,0.4182,0.3431,0.248,0.1435,0.069,0.0795,0.1685,0.1628,0.1542,0.1426,0.07,-0.0994,-0.3097,-0.2943,-0.3283,-0.4238,-0.4429,-0.4818,-0.5415,-0.5786,-0.6049,-0.6337,-0.7297,-0.7901,-0.8007,-0.7706,-0.7716,-0.8138,-0.8133,-0.8389,-0.8714,-0.8973,-0.8913,-0.838,-0.796,-0.7633,-0.7349,-0.7178,-0.6942,-0.6844,-0.7612,-0.8446,-0.9067,-0.9347,-0.911,-0.8294,-0.694,-0.4482,-0.0846,0.3551,0.6911,0.8617,0.9777,1.0269,1.0125,0.9805,0.8912,0.7544,0.6498,0.5401,0.4148,0.3576,0.3115,0.258,0.2106,0.1781,0.1525,0.089,-0.0,-0.0899,-0.1605,-0.2007,-0.2129,-0.2426,-0.2682,-0.2984,-0.3266,-0.3407,-0.3514,-0.3367,-0.3114,-0.2767,-0.2312,-0.1634,-0.0879,-0.0367,0.0293,0.1163,0.1108,0.1117,0.1339,0.1784,0.1978,0.1942,0.2016,0.1963,-0.2092,-0.285,-0.3966,-0.5888,-0.7726,-0.3121,-0.1446,-0.1246,0.5203,0.8053,0.8054,0.8194,0.9437,1.0836,0.9367,0.8202,0.7285,0.5383,0.4165,0.3696,0.2735,0.196,0.1383,0.0305,0.0309,0.1135,0.1164,0.1172,0.0948,-0.0417,-0.1849,-0.324,-0.3449,-0.402,-0.4942,-0.5006,-0.5347,-0.5874,-0.5556,-0.5225,-0.5203,-0.5787,-0.6436,-0.678,-0.6686,-0.6889,-0.7538,-0.7893,-0.8111,-0.8259,-0.8924,-0.9033,-0.8558,-0.8296,-0.8001,-0.7796,-0.7801,-0.7734,-0.7624,-0.8698,-0.9619,-1.0153,-1.0515,-1.04,-0.9823,-0.8901,-0.7521,-0.5415,-0.1027,0.2784,0.593,0.7539,0.8755,0.9515,0.9638,0.9251,0.8403,0.7519,0.6459,0.5137,0.433,0.3582,0.2736,0.2131,0.1792,0.1654,0.1155,0.0393,-0.046,-0.1198,-0.1765,-0.2046,-0.2261,-0.2372,-0.2641,-0.2863,-0.3004,-0.3045,-0.3052,-0.2958,-0.2703,-0.2397,-0.2022,-0.1322,-0.1146,-0.0838,-0.0155,-0.0156,-0.0231,-0.0077,0.0384,0.0996,0.127,0.1508,0.1745,-0.3808,-0.4832,-0.6584,-0.7911,-0.8769,-0.8581,-0.8488,-0.7761,-0.4403,-0.2296,-0.0504,0.1986,0.4265,0.6076,0.6415,0.6257,0.5376,0.4271,0.3424,0.2768,0.2475,0.2087,0.1488,-0.0,-0.054,0.0106,0.0108,0.0107,-0.0102,-0.1755,-0.3082,-0.3846,-0.4114,-0.478,-0.5937,-0.6022,-0.6243,-0.6875,-0.5892,-0.5154,-0.4762,-0.4296,-0.4503,-0.4993,-0.5494,-0.5904,-0.6291,-0.7163,-0.7706,-0.7831,-0.8506,-0.8955,-0.8987,-0.8916,-0.8661,-0.8431,-0.863,-0.8938,-0.9139,-0.9947,-1.0664,-1.1146,-1.1316,-1.141,-1.1154,-1.0145,-0.8939,-0.7829,-0.5638,-0.2444,0.1591,0.4118,0.6229,0.7806,0.8652,0.8883,0.9166,0.8256,0.7399,0.5969,0.4879,0.3893,0.2584,0.2107,0.1759,0.1623,0.1369,0.0887,-0.0,-0.0768,-0.1356,-0.1922,-0.2201,-0.2332,-0.2546,-0.2742,-0.2784,-0.2817,-0.2869,-0.2776,-0.265,-0.2436,-0.2047,-0.1819,-0.1488,-0.1324,-0.1247,-0.1154,-0.1132,-0.0964,-0.0887,-0.04,0.039,0.0535,0.077,-0.5511,-0.7007,-0.8258,-0.9304,-1.0058,-1.0303,-1.0216,-0.9652,-0.7595,-0.5681,-0.4094,-0.18,0.0092,0.1587,0.2121,0.3462,0.5223,0.3976,0.2784,0.1964,0.1557,0.1048,0.0426,-0.0434,-0.1091,-0.1089,-0.078,-0.1113,-0.2063,-0.3915,-0.4426,-0.4254,-0.5439,-0.6335,-0.6735,-0.7213,-0.7402,-0.7337,-0.6401,-0.5446,-0.47,-0.4168,-0.3495,-0.2905,-0.3798,-0.46,-0.5172,-0.6129,-0.6788,-0.7106,-0.7553,-0.8159,-0.8798,-0.8907,-0.8793,-0.8509,-0.88,-0.9122,-0.9545,-1.006,-1.0577,-1.1304,-1.1592,-1.1563,-1.1325,-1.0885,-1.018,-0.9276,-0.8438,-0.677,-0.5048,-0.083,0.3221,0.5385,0.6435,0.7531,0.8853,0.8319,0.7032,0.5947,0.4504,0.3132,0.2719,0.2005,0.1766,0.1789,0.173,0.1422,0.1053,0.0398,-0.0314,-0.1001,-0.1454,-0.1837,-0.245,-0.2691,-0.2795,-0.2824,-0.2789,-0.2776,-0.2658,-0.2528,-0.2212,-0.1979,-0.174,-0.1488,-0.1307,-0.1307,-0.1367,-0.1352,-0.1272,-0.1011,-0.049,-0.0245,-0.0082,-0.6926,-0.8329,-0.9452,-1.0288,-1.0925,-1.1066,-1.0905,-1.0429,-0.9029,-0.7583,-0.6107,-0.4578,-0.3215,-0.2201,-0.1641,-0.0195,0.2166,0.1867,0.15,0.0828,0.0209,-0.0528,-0.1182,-0.1749,-0.2094,-0.2321,-0.2254,-0.2719,-0.359,-0.5234,-0.5623,-0.5114,-0.675,-0.7662,-0.7882,-0.8279,-0.8233,-0.778,-0.6816,-0.5854,-0.4876,-0.3912,-0.2856,-0.1912,-0.2413,-0.3199,-0.3958,-0.4863,-0.5691,-0.631,-0.6637,-0.7264,-0.842,-0.8613,-0.8719,-0.8794,-0.8889,-0.9215,-0.9753,-1.0031,-1.0535,-1.1167,-1.1357,-1.1349,-1.1134,-1.1042,-1.0738,-1.036,-1.0006,-0.9917,-0.9421,-0.5874,-0.1564,0.1676,0.333,0.5053,0.7477,0.6937,0.6042,0.5301,0.3913,0.2986,0.2577,0.1884,0.1652,0.1851,0.1826,0.1864,0.1904,0.1313,0.0736,0.0242,-0.0478,-0.0952,-0.135,-0.1436,-0.2156,-0.2335,-0.2533,-0.2596,-0.2574,-0.2438,-0.2298,-0.2145,-0.1895,-0.1634,-0.1458,-0.146,-0.1447,-0.1426,-0.143,-0.1163,-0.0971,-0.0966,-0.0876,-0.8067,-0.8925,-1.0116,-1.0803,-1.1276,-1.1261,-1.1139,-1.0686,-0.9554,-0.8434,-0.7341,-0.6296,-0.5375,-0.492,-0.409,-0.3929,-0.3525,-0.1691,-0.0703,-0.0932,-0.1579,-0.2467,-0.3394,-0.3664,-0.3706,-0.3605,-0.4385,-0.4722,-0.4723,-0.5782,-0.6608,-0.7214,-0.8013,-0.892,-0.9514,-0.9069,-0.8807,-0.8387,-0.7423,-0.6453,-0.5237,-0.397,-0.2765,-0.1912,-0.1591,-0.1668,-0.2424,-0.3341,-0.4303,-0.519,-0.5712,-0.6653,-0.7966,-0.8249,-0.8527,-0.906,-0.9221,-0.9466,-0.9781,-1.0103,-1.0459,-1.0879,-1.0858,-1.1048,-1.1059,-1.0972,-1.0992,-1.1118,-1.1012,-1.1132,-1.1576,-1.0278,-0.7475,-0.32,-0.0754,0.1419,0.3432,0.4393,0.4435,0.4227,0.3431,0.2861,0.2461,0.1764,0.1358,0.1522,0.1569,0.1953,0.2531,0.2103,0.1681,0.1418,0.0822,0.0081,0.0082,-0.0,-0.0989,-0.1816,-0.2013,-0.2139,-0.2197,-0.2149,-0.2191,-0.2035,-0.1982,-0.1805,-0.1704,-0.1705,-0.1697,-0.1682,-0.1506,-0.1502,-0.1389,-0.1466,-0.1932,-0.8964,-0.9938,-1.0518,-1.1096,-1.1672,-1.1384,-1.1096,-1.0711,-0.9845,-0.9065,-0.829,-0.7448,-0.6825,-0.6396,-0.5833,-0.5576,-0.5636,-0.4669,-0.4143,-0.3941,-0.3966,-0.4176,-0.4422,-0.447,-0.4448,-0.4686,-0.5416,-0.5964,-0.6256,-0.7426,-0.8344,-0.8736,-0.9724,-1.0208,-1.0418,-1.0283,-1.0044,-0.9201,-0.8576,-0.7763,-0.6596,-0.5341,-0.4076,-0.2858,-0.2049,-0.1481,-0.1153,-0.2119,-0.3081,-0.3695,-0.4886,-0.6139,-0.7309,-0.7875,-0.8289,-0.8678,-0.8926,-0.9155,-0.9378,-0.9568,-0.9993,-1.0551,-1.0912,-1.1123,-1.127,-1.1393,-1.1627,-1.186,-1.183,-1.2107,-1.2465,-1.1805,-0.9816,-0.7197,-0.497,-0.2689,-0.0364,0.1662,0.297,0.326,0.2833,0.2287,0.1807,0.1023,0.0643,0.1099,0.1164,0.1578,0.2683,0.2851,0.3076,0.2953,0.217,0.1497,0.1588,0.1604,0.1019,-0.0085,-0.0693,-0.123,-0.144,-0.1751,-0.1785,-0.1913,-0.1952,-0.1968,-0.1963,-0.1957,-0.1946,-0.194,-0.184,-0.1825,-0.1805,-0.1989,-0.2372,-0.9418,-1.0113,-1.0511,-1.0998,-1.1492,-1.11,-1.0801,-1.0426,-0.9797,-0.9222,-0.8725,-0.8275,-0.7942,-0.7601,-0.7303,-0.7035,-0.6893,-0.7106,-0.6959,-0.6703,-0.6113,-0.5938,-0.6033,-0.6007,-0.614,-0.6435,-0.7045,-0.7487,-0.7925,-0.9068,-0.9811,-1.0384,-1.1006,-1.1347,-1.1117,-1.1135,-1.0614,-0.9797,-0.9284,-0.8594,-0.7644,-0.656,-0.5467,-0.4309,-0.3219,-0.2083,-0.1205,-0.0991,-0.1313,-0.2604,-0.422,-0.569,-0.6589,-0.7044,-0.7597,-0.8118,-0.837,-0.861,-0.8943,-0.9091,-0.9412,-1.0135,-1.0513,-1.0736,-1.0944,-1.1347,-1.1706,-1.1727,-1.2139,-1.2766,-1.328,-1.2756,-1.153,-1.0316,-0.8055,-0.5792,-0.3573,-0.1257,0.0386,0.0769,0.116,0.1069,0.0485,-0.0,-0.0568,-0.0189,0.0093,0.0549,0.1803,0.2417,0.2736,0.3131,0.3095,0.2827,0.3071,0.3017,0.2976,0.1948,0.0897,0.0272,-0.0277,-0.0946,-0.1256,-0.1762,-0.1892,-0.1997,-0.1994,-0.2198,-0.2293,-0.2191,-0.2178,-0.216,-0.2235,-0.2231,-0.2614,-0.9418,-0.9727,-1.0229,-1.0641,-1.0842,-1.0564,-1.0375,-0.997,-0.973,-0.9282,-0.89,-0.8895,-0.8888,-0.8699,-0.8598,-0.8411,-0.8305,-0.8649,-0.8969,-0.8772,-0.8311,-0.7919,-0.7967,-0.822,-0.8419,-0.8625,-0.8912,-0.9369,-0.9915,-1.0328,-1.0998,-1.1599,-1.1764,-1.1872,-1.1775,-1.1434,-1.0995,-1.0402,-0.9858,-0.922,-0.8582,-0.7836,-0.693,-0.5975,-0.4843,-0.3651,-0.2159,-0.0,0.0556,-0.1542,-0.349,-0.4829,-0.5508,-0.596,-0.6647,-0.7583,-0.7742,-0.7969,-0.8294,-0.8607,-0.8994,-0.9547,-0.9701,-0.9847,-1.0533,-1.0958,-1.1232,-1.1393,-1.2145,-1.3065,-1.3729,-1.3376,-1.2678,-1.201,-0.9726,-0.7447,-0.542,-0.4016,-0.3097,-0.2197,-0.1204,-0.0603,-0.1605,-0.188,-0.2161,-0.2449,-0.193,-0.114,-0.0471,0.0279,0.1204,0.1914,0.2681,0.3102,0.2918,0.2824,0.2688,0.2553,0.1659,0.1117,0.0471,-0.0289,-0.1081,-0.1495,-0.2014,-0.202,-0.2223,-0.2625,-0.2724,-0.2711,-0.2699,-0.2592,-0.2674,-0.2753,-0.3115,-1.031,-1.0229,-1.0467,-1.0632,-1.0755,-1.0574,-1.034,-0.9948,-1.0006,-0.98,-0.9449,-0.9461,-0.9824,-0.9914,-0.9503,-0.9455,-0.9749,-0.9895,-1.012,-1.0337,-1.0695,-1.0272,-0.9716,-0.9738,-0.995,-1.0219,-1.0053,-1.0379,-1.1024,-1.1025,-1.135,-1.2122,-1.2225,-1.2211,-1.1931,-1.1853,-1.1649,-1.1427,-1.1159,-1.0735,-1.0056,-0.9576,-0.8689,-0.7748,-0.7288,-0.5796,-0.3552,-0.0113,0.1008,-0.0781,-0.1905,-0.3085,-0.4222,-0.4778,-0.5581,-0.6503,-0.6644,-0.6888,-0.7718,-0.8088,-0.8382,-0.9103,-0.9302,-0.9669,-1.0352,-1.088,-1.1441,-1.1899,-1.2733,-1.3235,-1.3688,-1.3454,-1.2802,-1.1795,-1.0314,-0.8625,-0.7313,-0.6664,-0.6027,-0.4943,-0.4342,-0.4277,-0.43,-0.4166,-0.393,-0.4253,-0.3889,-0.3219,-0.2824,-0.1827,-0.0856,0.0661,0.1491,0.2214,0.2565,0.2371,0.2387,0.2526,0.2078,0.1612,0.0861,0.0097,-0.0888,-0.1708,-0.2327,-0.2539,-0.2935,-0.3332,-0.3229,-0.3233,-0.3221,-0.3306,-0.3266,-0.3333,-0.3878,-1.0879,-1.0462,-1.0578,-1.0625,-1.0625,-1.0548,-1.0387,-1.034,-1.0591,-1.0522,-1.0376,-1.0594,-1.0971,-1.1181,-1.0833,-1.0765,-1.1025,-1.1211,-1.1462,-1.1939,-1.2758,-1.2402,-1.1642,-1.1426,-1.1511,-1.139,-1.1273,-1.1455,-1.1766,-1.1655,-1.202,-1.239,-1.2424,-1.2406,-1.2397,-1.2295,-1.2203,-1.1991,-1.1747,-1.1449,-1.1024,-1.0663,-1.0096,-0.921,-0.8838,-0.7407,-0.4515,-0.1492,0.0114,0.0226,-0.0454,-0.1616,-0.2937,-0.3726,-0.4515,-0.5544,-0.5788,-0.6278,-0.6874,-0.7399,-0.7937,-0.8625,-0.8994,-0.9511,-1.0156,-1.0842,-1.1414,-1.2176,-1.2898,-1.3232,-1.332,-1.3207,-1.2659,-1.1851,-1.0928,-0.9906,-0.8857,-0.8335,-0.7871,-0.7282,-0.6956,-0.6871,-0.6836,-0.631,-0.619,-0.6192,-0.5896,-0.5512,-0.5166,-0.3975,-0.2839,-0.1558,-0.0289,0.0381,0.1042,0.1132,0.1237,0.1549,0.157,0.1276,0.0683,-0.0098,-0.1094,-0.2022,-0.2643,-0.3165,-0.3573,-0.3872,-0.3861,-0.3859,-0.3945,-0.4112,-0.4164,-0.4232,-0.4667,-1.1248,-1.0685,-1.0745,-1.0758,-1.0832,-1.0686,-1.0964,-1.1105,-1.1615,-1.1779,-1.1831,-1.2173,-1.2441,-1.2593,-1.221,-1.2117,-1.2274,-1.2534,-1.3044,-1.3516,-1.4205,-1.4169,-1.3327,-1.3077,-1.2893,-1.2535,-1.2634,-1.2518,-1.2405,-1.242,-1.2448,-1.2553,-1.2496,-1.2568,-1.2536,-1.2759,-1.2692,-1.2289,-1.2092,-1.1843,-1.1694,-1.1366,-1.0922,-1.026,-0.9304,-0.7982,-0.5655,-0.3278,-0.1274,0.1581,0.0697,-0.0236,-0.1422,-0.2185,-0.3442,-0.4436,-0.5177,-0.5671,-0.6025,-0.6924,-0.7695,-0.8153,-0.8645,-0.9252,-1.0126,-1.0701,-1.1289,-1.2144,-1.2889,-1.3227,-1.3103,-1.2994,-1.2663,-1.211,-1.1655,-1.1232,-1.0472,-0.9588,-0.903,-0.8923,-0.8585,-0.8371,-0.8342,-0.8391,-0.8514,-0.7678,-0.7464,-0.7273,-0.6894,-0.598,-0.4991,-0.4043,-0.2792,-0.1669,-0.0978,-0.0293,-0.0,0.0301,0.0306,0.0102,-0.0402,-0.1107,-0.182,-0.2547,-0.3278,-0.3819,-0.4261,-0.4451,-0.4637,-0.4834,-0.5148,-0.5262,-0.5367,-0.5353,-0.5603,-1.2088,-1.1544,-1.181,-1.2023,-1.213,-1.2417,-1.2807,-1.3242,-1.3667,-1.3741,-1.3757,-1.3904,-1.4093,-1.4125,-1.3551,-1.3433,-1.3683,-1.3739,-1.386,-1.47,-1.5248,-1.5438,-1.4852,-1.4289,-1.391,-1.3681,-1.3197,-1.3075,-1.2948,-1.2373,-1.215,-1.2469,-1.2449,-1.2381,-1.2454,-1.2633,-1.271,-1.2688,-1.264,-1.2652,-1.2549,-1.2302,-1.1822,-1.1014,-0.9566,-0.854,-0.7522,-0.543,-0.3626,-0.1872,0.0118,0.096,0.048,-0.0853,-0.2461,-0.3816,-0.4436,-0.5054,-0.5778,-0.6568,-0.722,-0.8042,-0.8419,-0.898,-1.0012,-1.0549,-1.123,-1.2009,-1.2792,-1.3212,-1.3212,-1.2989,-1.2659,-1.2223,-1.1896,-1.1787,-1.124,-1.0578,-0.9923,-0.9702,-0.9375,-0.9154,-0.9151,-0.9237,-0.9191,-0.9078,-0.9001,-0.8783,-0.8381,-0.7883,-0.7066,-0.6155,-0.5079,-0.3882,-0.3137,-0.2327,-0.174,-0.1447,-0.1258,-0.1262,-0.1757,-0.1843,-0.2466,-0.3193,-0.4027,-0.4481,-0.4851,-0.5707,-0.6001,-0.6095,-0.6177,-0.6305,-0.6326,-0.6364,-0.6459,-1.2755,-1.2143,-1.2583,-1.2974,-1.3305,-1.384,-1.4456,-1.5001,-1.5509,-1.5569,-1.5429,-1.5453,-1.5458,-1.5595,-1.5128,-1.5015,-1.5283,-1.5355,-1.5472,-1.5787,-1.6115,-1.6059,-1.5877,-1.5075,-1.4632,-1.4389,-1.377,-1.3363,-1.2882,-1.2568,-1.2237,-1.2395,-1.2154,-1.2222,-1.2391,-1.2633,-1.266,-1.2913,-1.2954,-1.2974,-1.2925,-1.258,-1.1966,-1.1031,-0.9858,-0.8964,-0.8587,-0.6897,-0.565,-0.4332,-0.2057,0.0242,0.0961,-0.0365,-0.2086,-0.33,-0.418,-0.4682,-0.5408,-0.6239,-0.7155,-0.7815,-0.8219,-0.9056,-0.9967,-1.0568,-1.1264,-1.2045,-1.284,-1.3315,-1.3423,-1.3098,-1.2663,-1.2332,-1.2119,-1.2005,-1.1787,-1.124,-1.0911,-1.0692,-1.0582,-1.0472,-1.0468,-1.0249,-1.0355,-1.0319,-1.0437,-1.0329,-1.0221,-0.97,-0.898,-0.8159,-0.7186,-0.6169,-0.5254,-0.4514,-0.3702,-0.3406,-0.3104,-0.3092,-0.326,-0.3135,-0.3018,-0.3762,-0.4517,-0.4982,-0.5459,-0.6328,-0.6858,-0.669,-0.676,-0.7064,-0.7351,-0.7379,-0.7437,-1.3454,-1.2663,-1.3381,-1.3925,-1.4595,-1.5282,-1.6026,-1.6795,-1.7098,-1.7297,-1.7218,-1.6863,-1.706,-1.7085,-1.6671,-1.6744,-1.6803,-1.7079,-1.6979,-1.6797,-1.67,-1.6628,-1.6323,-1.5676,-1.5057,-1.4601,-1.3978,-1.3515,-1.2923,-1.2593,-1.2391,-1.228,-1.2036,-1.2131,-1.2531,-1.2517,-1.2565,-1.2966,-1.3003,-1.2994,-1.2958,-1.2517,-1.1934,-1.0908,-1.0161,-0.9564,-0.9041,-0.7973,-0.7185,-0.6815,-0.5326,-0.3171,-0.1568,-0.109,-0.2333,-0.3516,-0.4291,-0.4803,-0.5423,-0.6274,-0.7215,-0.7717,-0.8408,-0.9304,-1.0229,-1.0866,-1.1564,-1.2301,-1.3005,-1.3441,-1.3634,-1.3217,-1.2884,-1.2559,-1.233,-1.2188,-1.216,-1.1937,-1.1841,-1.1564,-1.135,-1.124,-1.135,-1.1236,-1.1459,-1.1577,-1.1704,-1.1595,-1.1476,-1.1152,-1.0292,-0.9832,-0.8828,-0.7944,-0.7097,-0.6148,-0.5439,-0.513,-0.4818,-0.4669,-0.4618,-0.4479,-0.4357,-0.4261,-0.482,-0.5399,-0.6089,-0.688,-0.728,-0.7082,-0.7405,-0.7877,-0.8172,-0.8434,-0.8364,-1.4239,-1.3872,-1.4595,-1.5416,-1.6187,-1.7105,-1.7894,-1.879,-1.9066,-1.9248,-1.9241,-1.8905,-1.8766,-1.8712,-1.8327,-1.7827,-1.7717,-1.7774,-1.7673,-1.7369,-1.7237,-1.7009,-1.6669,-1.5846,-1.5487,-1.5169,-1.4558,-1.3748,-1.3436,-1.2982,-1.2674,-1.2308,-1.219,-1.227,-1.2483,-1.254,-1.2751,-1.2958,-1.3096,-1.3193,-1.3185,-1.2901,-1.2231,-1.1261,-1.0527,-1.0112,-0.9719,-0.9197,-0.8675,-0.8036,-0.7143,-0.6313,-0.5226,-0.3958,-0.3947,-0.4555,-0.4935,-0.5204,-0.5822,-0.6662,-0.7503,-0.8187,-0.8954,-0.9846,-1.0677,-1.1392,-1.1946,-1.2669,-1.3209,-1.3496,-1.3517,-1.3287,-1.3082,-1.3022,-1.3017,-1.3082,-1.3073,-1.2909,-1.2639,-1.2225,-1.2069,-1.1896,-1.1896,-1.1896,-1.1896,-1.1946,-1.2022,-1.189,-1.1753,-1.1487,-1.1085,-1.0755,-1.0443,-0.9651,-0.895,-0.7937,-0.7122,-0.68,-0.6473,-0.6001,-0.5939,-0.5773,-0.5757,-0.5482,-0.5586,-0.6136,-0.6837,-0.7558,-0.7886,-0.7947,-0.8288,-0.8633,-0.8635,-0.8645,-0.8725,-1.4821,-1.4622,-1.5407,-1.6404,-1.7355,-1.8413,-1.9299,-2.0139,-2.0493,-2.0649,-2.0542,-2.0215,-2.0089,-1.9897,-1.9598,-1.9063,-1.8636,-1.8464,-1.8236,-1.7817,-1.7341,-1.6938,-1.6629,-1.5777,-1.5499,-1.5192,-1.4553,-1.3992,-1.3846,-1.3255,-1.2825,-1.2693,-1.243,-1.2343,-1.2572,-1.2682,-1.2795,-1.2978,-1.3137,-1.3283,-1.3344,-1.3054,-1.2359,-1.1758,-1.1199,-1.0902,-1.0753,-1.029,-1.0009,-0.9621,-0.9112,-0.8698,-0.7886,-0.7207,-0.6273,-0.6,-0.5892,-0.6043,-0.6663,-0.7391,-0.8091,-0.8925,-0.9499,-1.0213,-1.1059,-1.1778,-1.2397,-1.3106,-1.3571,-1.3675,-1.3502,-1.3364,-1.3354,-1.3274,-1.3422,-1.3601,-1.3733,-1.3708,-1.3399,-1.2942,-1.2477,-1.2284,-1.2114,-1.2114,-1.211,-1.2192,-1.2326,-1.221,-1.1948,-1.169,-1.1456,-1.1109,-1.0783,-1.0372,-0.9802,-0.9171,-0.8517,-0.8301,-0.7966,-0.7477,-0.7134,-0.6972,-0.6549,-0.6263,-0.6571,-0.6834,-0.7211,-0.7737,-0.8292,-0.8838,-0.9028,-0.9082,-0.8955,-0.8865,-0.904,-1.5552,-1.5439,-1.646,-1.7436,-1.859,-1.9657,-2.0485,-2.1099,-2.1426,-2.1624,-2.1542,-2.1046,-2.0801,-2.0866,-2.0465,-2.0023,-1.9467,-1.9186,-1.8685,-1.8134,-1.74,-1.6785,-1.6476,-1.5719,-1.5231,-1.5227,-1.461,-1.4171,-1.4065,-1.353,-1.3268,-1.3005,-1.2601,-1.2531,-1.2791,-1.2795,-1.2938,-1.2999,-1.3092,-1.3189,-1.3279,-1.2918,-1.2365,-1.1961,-1.1799,-1.1579,-1.1434,-1.1228,-1.0913,-1.0902,-1.0638,-1.0368,-0.9848,-0.9716,-0.889,-0.7414,-0.7186,-0.7323,-0.7691,-0.8147,-0.8824,-0.9516,-1.0151,-1.0744,-1.1455,-1.2205,-1.2791,-1.3428,-1.3749,-1.3793,-1.3606,-1.3553,-1.3558,-1.3683,-1.3688,-1.3874,-1.4178,-1.4261,-1.3997,-1.3492,-1.3044,-1.2649,-1.2557,-1.2243,-1.2271,-1.2265,-1.2393,-1.2289,-1.2032,-1.1807,-1.1637,-1.1284,-1.1078,-1.0811,-1.0494,-1.0275,-0.9856,-0.9602,-0.9148,-0.867,-0.8356,-0.8031,-0.7588,-0.7106,-0.7091,-0.7377,-0.7648,-0.7999,-0.8663,-0.9205,-0.9398,-0.955,-0.9429,-0.929,-0.9313,-1.6568,-1.6683,-1.8127,-1.9227,-2.0069,-2.1148,-2.1648,-2.1732,-2.1998,-2.2185,-2.2237,-2.1511,-2.1329,-2.1511,-2.0945,-2.035,-1.9836,-1.9492,-1.9246,-1.8583,-1.7919,-1.73,-1.7083,-1.6092,-1.5513,-1.5302,-1.4704,-1.4349,-1.4232,-1.3966,-1.3705,-1.3308,-1.3025,-1.2804,-1.2824,-1.2836,-1.2844,-1.2893,-1.3023,-1.3185,-1.3299,-1.2918,-1.2566,-1.2331,-1.209,-1.186,-1.1852,-1.1672,-1.1672,-1.1683,-1.1702,-1.145,-1.1059,-1.093,-1.0531,-0.9649,-0.8883,-0.8228,-0.8634,-0.9118,-0.9697,-1.0218,-1.0985,-1.1543,-1.2047,-1.2552,-1.3107,-1.3398,-1.3572,-1.3627,-1.3617,-1.3694,-1.3841,-1.405,-1.4232,-1.4514,-1.4681,-1.4503,-1.423,-1.3928,-1.3388,-1.3131,-1.3022,-1.266,-1.2342,-1.2343,-1.2434,-1.2214,-1.2091,-1.185,-1.1655,-1.1425,-1.1282,-1.1001,-1.1032,-1.0918,-1.0778,-1.0732,-1.0146,-0.9676,-0.9235,-0.8784,-0.8266,-0.7897,-0.79,-0.7911,-0.8149,-0.8602,-0.9149,-0.9564,-0.9856,-1.0012,-1.0036,-0.988,-0.9667,-1.7618,-1.7838,-1.8947,-1.9888,-2.0659,-2.1626,-2.21,-2.2249,-2.2494,-2.2657,-2.2469,-2.1713,-2.1345,-2.1301,-2.0851,-2.0592,-2.0296,-1.9746,-1.9409,-1.8822,-1.8111,-1.7443,-1.7061,-1.6289,-1.5659,-1.5463,-1.5158,-1.4866,-1.4635,-1.4327,-1.4015,-1.3634,-1.3358,-1.3075,-1.2852,-1.284,-1.2836,-1.2917,-1.308,-1.3222,-1.323,-1.3086,-1.2883,-1.27,-1.248,-1.2316,-1.2309,-1.2309,-1.2309,-1.2309,-1.2177,-1.1909,-1.1512,-1.1244,-1.0979,-1.0571,-1.0212,-1.0012,-0.9869,-1.0052,-1.0472,-1.0976,-1.1721,-1.2061,-1.2356,-1.2474,-1.2803,-1.312,-1.3147,-1.3254,-1.357,-1.3751,-1.4157,-1.4411,-1.465,-1.496,-1.4996,-1.4641,-1.4355,-1.4167,-1.3869,-1.3591,-1.3287,-1.2906,-1.2566,-1.2488,-1.2352,-1.2164,-1.1889,-1.1603,-1.1537,-1.1374,-1.1334,-1.1309,-1.1386,-1.1383,-1.1367,-1.1213,-1.0733,-1.0253,-1.001,-0.952,-0.8991,-0.8534,-0.8339,-0.8456,-0.8662,-0.9007,-0.9469,-0.9845,-1.0312,-1.0307,-1.028,-1.0112,-0.9919,-1.851,-1.9022,-1.9875,-2.0575,-2.1133,-2.2002,-2.2397,-2.2581,-2.2675,-2.2796,-2.2648,-2.1988,-2.1421,-2.1042,-2.0982,-2.0904,-2.0726,-1.984,-1.9523,-1.8944,-1.8197,-1.7639,-1.7178,-1.6538,-1.5813,-1.565,-1.5341,-1.4988,-1.4668,-1.4422,-1.4262,-1.3883,-1.3678,-1.3348,-1.3046,-1.2913,-1.2909,-1.2865,-1.2978,-1.3054,-1.3149,-1.3226,-1.312,-1.2978,-1.2869,-1.2836,-1.2836,-1.2704,-1.2704,-1.2777,-1.2652,-1.2402,-1.2018,-1.1929,-1.1654,-1.1249,-1.1206,-1.1333,-1.1108,-1.1123,-1.1275,-1.171,-1.2028,-1.2233,-1.2515,-1.2334,-1.223,-1.2871,-1.3045,-1.3217,-1.3495,-1.3865,-1.4267,-1.453,-1.4888,-1.524,-1.5472,-1.4966,-1.4708,-1.4543,-1.4272,-1.3965,-1.3632,-1.3128,-1.2812,-1.2669,-1.2363,-1.2199,-1.1913,-1.1483,-1.147,-1.1415,-1.1427,-1.139,-1.1524,-1.1687,-1.1727,-1.1651,-1.1156,-1.0778,-1.0368,-0.9885,-0.9382,-0.9064,-0.8857,-0.8827,-0.8995,-0.9398,-0.9788,-1.0126,-1.0321,-1.0456,-1.0475,-1.0304,-1.0254,-1.9188,-2.0279,-2.1097,-2.1639,-2.1986,-2.295,-2.3189,-2.2796,-2.2592,-2.2506,-2.234,-2.2169,-2.1836,-2.1496,-2.1406,-2.1265,-2.1053,-2.0365,-1.9833,-1.9331,-1.8613,-1.8018,-1.7502,-1.6712,-1.5931,-1.5603,-1.5404,-1.4978,-1.4508,-1.4598,-1.427,-1.3989,-1.3798,-1.3464,-1.3247,-1.3043,-1.2954,-1.2905,-1.2917,-1.2982,-1.3084,-1.3112,-1.3092,-1.3039,-1.2917,-1.2836,-1.284,-1.2881,-1.295,-1.3072,-1.2945,-1.2831,-1.2601,-1.2387,-1.2112,-1.1954,-1.195,-1.2056,-1.2071,-1.1845,-1.1865,-1.1854,-1.189,-1.2137,-1.2432,-1.2709,-1.2849,-1.2817,-1.3117,-1.3498,-1.3775,-1.4047,-1.4341,-1.47,-1.5059,-1.524,-1.5359,-1.5235,-1.4981,-1.4873,-1.4639,-1.4167,-1.3928,-1.3405,-1.3008,-1.2863,-1.2347,-1.2052,-1.1782,-1.1472,-1.139,-1.1403,-1.1451,-1.1476,-1.1516,-1.1622,-1.174,-1.1651,-1.1281,-1.1035,-1.0657,-1.0186,-0.9751,-0.9473,-0.9239,-0.9226,-0.9339,-0.9451,-0.967,-1.0102,-1.0428,-1.0501,-1.0723,-1.0696,-1.0833,-1.9195,-2.0033,-2.0751,-2.139,-2.1811,-2.2589,-2.283,-2.2719,-2.2359,-2.19,-2.1413,-2.1631,-2.1502,-2.1017,-2.1017,-2.1011,-2.0713,-2.0107,-1.9776,-1.9277,-1.8634,-1.8156,-1.7647,-1.7125,-1.6441,-1.5898,-1.5672,-1.5219,-1.4549,-1.4652,-1.4345,-1.4022,-1.3901,-1.363,-1.339,-1.3124,-1.2849,-1.2917,-1.2974,-1.3051,-1.2962,-1.3043,-1.3047,-1.2925,-1.3027,-1.2986,-1.3015,-1.3116,-1.3189,-1.3242,-1.2986,-1.2881,-1.2909,-1.2689,-1.2536,-1.2483,-1.2467,-1.2516,-1.255,-1.2441,-1.2181,-1.2279,-1.2214,-1.2099,-1.2237,-1.2359,-1.2476,-1.2673,-1.3223,-1.3611,-1.4222,-1.4363,-1.4615,-1.4942,-1.5257,-1.5313,-1.5422,-1.534,-1.5178,-1.508,-1.468,-1.4047,-1.3928,-1.367,-1.3301,-1.3057,-1.253,-1.2013,-1.1758,-1.1598,-1.1524,-1.1468,-1.1512,-1.1553,-1.1593,-1.1679,-1.1776,-1.1651,-1.1405,-1.1167,-1.0819,-1.0559,-1.0095,-0.9798,-0.9529,-0.9555,-0.9545,-0.9361,-0.9684,-1.0137,-1.0292,-1.0463,-1.0707,-1.0965,-1.1139,-1.9229,-1.9884,-2.0435,-2.1061,-2.1524,-2.2089,-2.2371,-2.2335,-2.2108,-2.1548,-2.0889,-2.131,-2.1104,-2.0618,-2.0628,-2.0725,-2.0484,-2.0026,-1.9663,-1.9255,-1.8664,-1.8033,-1.7776,-1.726,-1.6488,-1.6145,-1.5858,-1.5367,-1.4323,-1.456,-1.4297,-1.3937,-1.378,-1.3661,-1.3444,-1.2998,-1.2797,-1.2836,-1.2905,-1.2974,-1.2869,-1.2938,-1.2982,-1.2885,-1.2994,-1.3068,-1.3116,-1.3218,-1.3364,-1.3283,-1.3181,-1.3066,-1.2951,-1.2959,-1.2789,-1.2716,-1.2776,-1.2811,-1.2665,-1.2529,-1.2367,-1.2221,-1.2126,-1.2072,-1.2056,-1.216,-1.2473,-1.2772,-1.3191,-1.3728,-1.4504,-1.4524,-1.4941,-1.5304,-1.538,-1.5566,-1.5682,-1.5693,-1.5471,-1.5293,-1.4771,-1.451,-1.4057,-1.3827,-1.3421,-1.3072,-1.2595,-1.2206,-1.1954,-1.1776,-1.1683,-1.1626,-1.1602,-1.1638,-1.1671,-1.1788,-1.1874,-1.1683,-1.1441,-1.1198,-1.0871,-1.0743,-1.0422,-0.9992,-0.9865,-0.9905,-0.9797,-0.9787,-0.9937,-1.0072,-1.017,-1.0226,-1.0514,-1.0794,-1.1046,-1.9312,-1.9871,-2.0448,-2.09,-2.1249,-2.1509,-2.1818,-2.204,-2.1729,-2.1388,-2.106,-2.0995,-2.1021,-2.0906,-2.0705,-2.0514,-2.0447,-1.9928,-1.9559,-1.931,-1.8419,-1.8033,-1.7647,-1.7136,-1.6494,-1.5974,-1.5783,-1.5238,-1.4213,-1.4433,-1.4198,-1.3788,-1.3681,-1.3755,-1.3356,-1.3023,-1.2767,-1.2633,-1.2795,-1.2836,-1.2856,-1.2885,-1.2901,-1.2929,-1.3092,-1.3197,-1.3246,-1.338,-1.3522,-1.3476,-1.3492,-1.3548,-1.3645,-1.3665,-1.3584,-1.3404,-1.3424,-1.3271,-1.3104,-1.2613,-1.2308,-1.2113,-1.2086,-1.2084,-1.2259,-1.2453,-1.28,-1.3098,-1.363,-1.4118,-1.446,-1.4804,-1.5266,-1.5525,-1.5603,-1.5782,-1.5889,-1.6006,-1.5783,-1.5481,-1.545,-1.5155,-1.4641,-1.4096,-1.3607,-1.3183,-1.2746,-1.2394,-1.2139,-1.2057,-1.195,-1.1772,-1.1727,-1.1727,-1.178,-1.191,-1.1963,-1.1764,-1.1638,-1.1318,-1.0986,-1.0834,-1.0475,-1.0063,-1.0127,-1.0086,-1.0239,-1.0256,-1.0222,-1.0033,-0.994,-1.0018,-1.0315,-1.0508,-1.0634,-1.964,-1.9877,-2.0221,-2.0611,-2.0891,-2.1436,-2.1564,-2.1459,-2.1234,-2.0998,-2.0831,-2.0743,-2.0681,-2.0579,-2.0402,-2.0235,-1.9962,-1.958,-1.9328,-1.9072,-1.8173,-1.791,-1.7653,-1.7265,-1.6623,-1.6369,-1.5999,-1.5303,-1.4589,-1.4494,-1.4147,-1.3755,-1.3591,-1.3486,-1.334,-1.3116,-1.2925,-1.2783,-1.2812,-1.284,-1.2852,-1.2934,-1.2994,-1.2999,-1.3254,-1.3401,-1.3417,-1.3559,-1.3709,-1.3782,-1.379,-1.3835,-1.3896,-1.39,-1.3803,-1.3612,-1.3551,-1.3295,-1.2982,-1.2625,-1.2414,-1.2268,-1.2146,-1.2287,-1.2458,-1.2677,-1.3039,-1.3441,-1.4071,-1.4466,-1.492,-1.5226,-1.5656,-1.5856,-1.5919,-1.5934,-1.6135,-1.614,-1.6102,-1.5834,-1.5685,-1.5319,-1.4689,-1.4411,-1.3887,-1.3711,-1.3279,-1.2931,-1.2686,-1.2444,-1.2331,-1.2024,-1.1861,-1.1845,-1.1886,-1.2008,-1.2113,-1.2101,-1.1868,-1.1549,-1.121,-1.0962,-1.0605,-1.0226,-1.0314,-1.0399,-1.0375,-1.0327,-1.0188,-1.0098,-0.9915,-0.9764,-0.9938,-1.0111,-1.0173,-1.968,-1.9682,-2.0276,-2.0538,-2.0639,-2.1026,-2.113,-2.0944,-2.0735,-2.0677,-2.0795,-2.0615,-2.0252,-2.0033,-1.9827,-1.9633,-1.9305,-1.8933,-1.8914,-1.8798,-1.7916,-1.7787,-1.7529,-1.7265,-1.6753,-1.6499,-1.6119,-1.5541,-1.459,-1.4401,-1.4045,-1.3595,-1.3433,-1.3352,-1.3234,-1.3068,-1.2889,-1.2771,-1.2767,-1.2836,-1.2865,-1.2921,-1.2986,-1.3084,-1.3283,-1.3522,-1.3604,-1.3738,-1.39,-1.39,-1.39,-1.39,-1.39,-1.388,-1.3782,-1.3723,-1.3572,-1.3486,-1.3248,-1.3147,-1.3143,-1.3143,-1.2693,-1.2628,-1.2747,-1.3049,-1.3569,-1.3999,-1.4495,-1.5031,-1.5321,-1.5768,-1.5982,-1.6191,-1.6281,-1.6297,-1.6418,-1.6554,-1.6501,-1.6223,-1.6039,-1.5525,-1.4898,-1.4666,-1.4318,-1.4135,-1.3945,-1.3595,-1.3113,-1.2879,-1.261,-1.2262,-1.1975,-1.1955,-1.1991,-1.2093,-1.2194,-1.2288,-1.2087,-1.1753,-1.1329,-1.1064,-1.0728,-1.0531,-1.048,-1.0524,-1.047,-1.0392,-1.0293,-1.0103,-0.995,-0.9815,-0.9582,-0.9759,-0.9947,-1.9617,-1.9525,-2.0587,-2.0869,-2.0595,-2.0317,-2.0391,-2.0698,-2.037,-2.0663,-2.1089,-2.0162,-1.9843,-1.9658,-1.9082,-1.8873,-1.8643,-1.8416,-1.8374,-1.8308,-1.7686,-1.7591,-1.7361,-1.7114,-1.6872,-1.6494,-1.6114,-1.5598,-1.4576,-1.4187,-1.3964,-1.3651,-1.3405,-1.3311,-1.3169,-1.2982,-1.2816,-1.2747,-1.2775,-1.2828,-1.2856,-1.2885,-1.2934,-1.3039,-1.323,-1.3413,-1.3535,-1.3697,-1.3839,-1.3892,-1.39,-1.39,-1.39,-1.39,-1.3817,-1.3946,-1.3867,-1.3826,-1.3765,-1.3718,-1.3954,-1.3945,-1.3557,-1.3313,-1.3304,-1.3617,-1.3959,-1.4481,-1.4932,-1.5453,-1.5849,-1.6146,-1.6312,-1.6431,-1.656,-1.6663,-1.6792,-1.6883,-1.6807,-1.6621,-1.6567,-1.606,-1.5377,-1.4977,-1.463,-1.443,-1.4238,-1.4175,-1.3801,-1.3259,-1.2965,-1.2602,-1.232,-1.2056,-1.2117,-1.2219,-1.2361,-1.2483,-1.2138,-1.1782,-1.1475,-1.1199,-1.0872,-1.0682,-1.0636,-1.0649,-1.0588,-1.0521,-1.0575,-1.0355,-1.0136,-0.9875,-0.9763,-0.9841,-1.0067,-1.8984,-1.8827,-1.98,-2.015,-1.9994,-1.9849,-2.0305,-2.0863,-2.0287,-2.0348,-2.1118,-1.9945,-1.9468,-1.9379,-1.8832,-1.8507,-1.8198,-1.8006,-1.7895,-1.7679,-1.7345,-1.7252,-1.7068,-1.7033,-1.6969,-1.6748,-1.6229,-1.5714,-1.5011,-1.445,-1.4053,-1.3943,-1.3554,-1.3327,-1.3185,-1.2986,-1.2844,-1.2771,-1.2812,-1.2824,-1.2873,-1.2925,-1.2954,-1.3055,-1.3202,-1.3372,-1.3547,-1.3788,-1.3924,-1.3884,-1.3896,-1.39,-1.39,-1.3888,-1.3887,-1.3942,-1.3871,-1.3884,-1.4037,-1.4143,-1.4388,-1.4888,-1.4764,-1.4635,-1.4554,-1.4458,-1.4697,-1.508,-1.5433,-1.5802,-1.6191,-1.6353,-1.6467,-1.6618,-1.6748,-1.6877,-1.7001,-1.698,-1.6915,-1.6904,-1.6722,-1.6397,-1.5712,-1.5296,-1.4944,-1.4738,-1.4533,-1.4465,-1.4226,-1.3802,-1.3294,-1.2922,-1.247,-1.2219,-1.2276,-1.2369,-1.2532,-1.254,-1.2168,-1.1926,-1.1653,-1.1257,-1.0902,-1.0666,-1.0694,-1.0707,-1.07,-1.0761,-1.0816,-1.0708,-1.0496,-1.0091,-0.984,-0.9915,-1.0142,-1.8414,-1.8242,-1.9112,-1.9599,-1.9832,-1.962,-2.0015,-2.0572,-2.0157,-2.0388,-2.0831,-1.9938,-1.9359,-1.9023,-1.8357,-1.8025,-1.7919,-1.7323,-1.7088,-1.7128,-1.6827,-1.6833,-1.6816,-1.6924,-1.6899,-1.67,-1.6488,-1.5974,-1.5303,-1.4517,-1.3992,-1.4039,-1.3675,-1.3336,-1.3189,-1.3115,-1.3124,-1.296,-1.2968,-1.2836,-1.2885,-1.2942,-1.2974,-1.3039,-1.3177,-1.3348,-1.3526,-1.3731,-1.3879,-1.3872,-1.39,-1.39,-1.3993,-1.4065,-1.4356,-1.4411,-1.4379,-1.4707,-1.4959,-1.4855,-1.5252,-1.5668,-1.5958,-1.6055,-1.5839,-1.5722,-1.5804,-1.5946,-1.6084,-1.616,-1.6413,-1.6652,-1.67,-1.6748,-1.6877,-1.7001,-1.7001,-1.7001,-1.7001,-1.7001,-1.684,-1.6534,-1.6085,-1.5653,-1.5386,-1.5163,-1.4794,-1.4563,-1.4451,-1.4038,-1.3664,-1.3212,-1.2792,-1.2406,-1.2458,-1.2495,-1.2617,-1.2596,-1.2119,-1.1878,-1.1648,-1.1376,-1.0822,-1.0697,-1.0714,-1.0721,-1.0853,-1.0975,-1.1041,-1.0925,-1.0913,-1.0778,-1.039,-1.0194,-1.0328,-1.7792,-1.7518,-1.839,-1.9175,-1.9894,-1.9389,-1.9582,-2.0188,-2.0062,-2.0323,-2.048,-1.9917,-1.9229,-1.8655,-1.7886,-1.7529,-1.7273,-1.6765,-1.6613,-1.6741,-1.6506,-1.6496,-1.6675,-1.6673,-1.6834,-1.6824,-1.6504,-1.5874,-1.5205,-1.4535,-1.4075,-1.3937,-1.3513,-1.3323,-1.3189,-1.3228,-1.3244,-1.3235,-1.3099,-1.3095,-1.2836,-1.2844,-1.284,-1.2877,-1.3007,-1.3169,-1.3368,-1.3682,-1.3858,-1.3831,-1.39,-1.39,-1.4094,-1.4301,-1.4817,-1.5059,-1.5044,-1.5298,-1.5546,-1.5688,-1.6008,-1.6471,-1.6833,-1.7037,-1.6879,-1.6603,-1.6516,-1.6671,-1.6702,-1.666,-1.688,-1.7069,-1.7107,-1.7123,-1.7123,-1.72,-1.7141,-1.7093,-1.7001,-1.7007,-1.6866,-1.67,-1.6317,-1.6002,-1.5604,-1.5419,-1.5043,-1.4651,-1.4385,-1.411,-1.3743,-1.3478,-1.2976,-1.2564,-1.2536,-1.258,-1.2674,-1.2501,-1.2161,-1.1916,-1.178,-1.1251,-1.0721,-1.0717,-1.0717,-1.0986,-1.1115,-1.124,-1.1472,-1.1497,-1.1475,-1.1426,-1.1208,-1.0856,-1.085,-1.6796,-1.6362,-1.68,-1.7729,-1.9045,-1.8772,-1.9237,-2.0067,-1.9728,-1.9931,-2.0274,-1.9354,-1.8642,-1.8286,-1.7479,-1.7203,-1.6996,-1.6578,-1.6209,-1.6222,-1.6078,-1.6167,-1.6404,-1.656,-1.6637,-1.656,-1.6254,-1.5803,-1.5077,-1.4625,-1.4272,-1.4094,-1.3738,-1.3323,-1.3262,-1.3419,-1.3375,-1.3498,-1.3494,-1.3358,-1.3235,-1.2968,-1.284,-1.2844,-1.2929,-1.3092,-1.3271,-1.3559,-1.378,-1.3831,-1.3884,-1.4043,-1.4315,-1.4661,-1.5115,-1.5645,-1.5643,-1.5868,-1.6019,-1.6257,-1.6552,-1.6902,-1.7254,-1.7728,-1.7707,-1.7282,-1.7099,-1.7294,-1.7374,-1.7342,-1.7315,-1.748,-1.7502,-1.7502,-1.7363,-1.7394,-1.7292,-1.7163,-1.7033,-1.7001,-1.7001,-1.6748,-1.6494,-1.6239,-1.5849,-1.5453,-1.4796,-1.4403,-1.4268,-1.3993,-1.3531,-1.3185,-1.3,-1.2726,-1.267,-1.2657,-1.2612,-1.2521,-1.2169,-1.2045,-1.1784,-1.1251,-1.0721,-1.085,-1.085,-1.1118,-1.1383,-1.1776,-1.1991,-1.2046,-1.2216,-1.2438,-1.2377,-1.2016,-1.1882,-1.6092,-1.5609,-1.5773,-1.673,-1.7891,-1.8108,-1.8527,-1.9218,-1.9056,-1.9108,-1.9375,-1.8717,-1.8288,-1.8033,-1.7373,-1.6903,-1.6785,-1.6324,-1.5996,-1.5915,-1.5861,-1.5924,-1.6161,-1.6404,-1.6361,-1.6295,-1.5959,-1.5463,-1.5074,-1.4551,-1.4294,-1.4208,-1.3808,-1.336,-1.3456,-1.3449,-1.3503,-1.3625,-1.3879,-1.3752,-1.363,-1.3231,-1.2968,-1.2836,-1.2889,-1.3047,-1.3378,-1.3671,-1.4014,-1.4227,-1.4328,-1.454,-1.4736,-1.4894,-1.5296,-1.5866,-1.6165,-1.6196,-1.6429,-1.6669,-1.6804,-1.7297,-1.767,-1.8015,-1.8207,-1.7819,-1.7713,-1.7775,-1.7705,-1.7803,-1.7647,-1.7626,-1.7626,-1.7626,-1.7604,-1.754,-1.7416,-1.7281,-1.713,-1.7001,-1.6877,-1.6623,-1.6369,-1.5979,-1.5724,-1.5463,-1.4805,-1.4272,-1.401,-1.3752,-1.3417,-1.3126,-1.2927,-1.282,-1.2763,-1.2628,-1.2668,-1.2437,-1.2177,-1.178,-1.1383,-1.0986,-1.0721,-1.085,-1.1115,-1.1251,-1.1648,-1.2173,-1.2692,-1.3029,-1.3206,-1.3358,-1.3274,-1.3296,-1.3364,-1.5692,-1.5099,-1.5298,-1.6047,-1.7106,-1.749,-1.7905,-1.8478,-1.8503,-1.8319,-1.8225,-1.8243,-1.8167,-1.7713,-1.7262,-1.6785,-1.6431,-1.6081,-1.5839,-1.572,-1.5618,-1.5696,-1.5878,-1.606,-1.6055,-1.5798,-1.549,-1.5541,-1.546,-1.4741,-1.4332,-1.4301,-1.4031,-1.3368,-1.3399,-1.3457,-1.3498,-1.3752,-1.3879,-1.401,-1.3884,-1.3625,-1.3231,-1.2972,-1.2865,-1.3019,-1.3506,-1.3942,-1.4241,-1.4509,-1.4766,-1.4973,-1.4983,-1.5051,-1.5498,-1.6017,-1.6354,-1.6603,-1.688,-1.6834,-1.7177,-1.755,-1.7933,-1.8132,-1.8309,-1.8358,-1.825,-1.8202,-1.8126,-1.8056,-1.79,-1.783,-1.783,-1.7814,-1.7782,-1.7733,-1.7593,-1.7426,-1.7238,-1.7066,-1.6774,-1.652,-1.6239,-1.5854,-1.5593,-1.5332,-1.4936,-1.4403,-1.3875,-1.349,-1.3198,-1.2919,-1.2812,-1.2824,-1.282,-1.2692,-1.2704,-1.2305,-1.2045,-1.1516,-1.1118,-1.0986,-1.0982,-1.1115,-1.1247,-1.1648,-1.2041,-1.2568,-1.3214,-1.3731,-1.42,-1.4475,-1.4604,-1.4624,-1.5059,-1.5134,-1.4901,-1.4778,-1.5654,-1.7029,-1.7271,-1.7813,-1.8667,-1.8492,-1.8328,-1.8225,-1.781,-1.7588,-1.7292,-1.6821,-1.6419,-1.6312,-1.5963,-1.5726,-1.5601,-1.5477,-1.5518,-1.5566,-1.5473,-1.5431,-1.5199,-1.4957,-1.4814,-1.4962,-1.4415,-1.4022,-1.3941,-1.3636,-1.3344,-1.3291,-1.3332,-1.3498,-1.3752,-1.4141,-1.4141,-1.4015,-1.3757,-1.3235,-1.3104,-1.3108,-1.3369,-1.3629,-1.3953,-1.4236,-1.4503,-1.4738,-1.4991,-1.5037,-1.5185,-1.5505,-1.582,-1.6156,-1.6367,-1.6635,-1.6744,-1.7055,-1.7352,-1.7695,-1.7833,-1.802,-1.8202,-1.8293,-1.832,-1.8282,-1.8154,-1.8063,-1.8079,-1.8079,-1.8031,-1.7994,-1.7892,-1.7906,-1.7642,-1.7389,-1.7112,-1.6875,-1.6572,-1.6374,-1.5984,-1.5463,-1.5202,-1.4539,-1.4137,-1.3875,-1.3486,-1.2968,-1.2836,-1.2836,-1.2836,-1.2832,-1.27,-1.2572,-1.2173,-1.1909,-1.1512,-1.1247,-1.1251,-1.1251,-1.138,-1.1776,-1.2177,-1.2704,-1.3091,-1.3875,-1.452,-1.5308,-1.5589,-1.5701,-1.595,-1.6363]},{"header":{"parameterUnit":"m.s-1","parameterCategory":1,"la1":31.0,"la2":29.5877,"lo1":-88.7671,"lo2":-86.6584,"dy":0.0162,"dx":0.0185,"nx":115,"ny":88,"refTime":"2023-06-28T00:00:00:Z","depth":0,"parameterNumber":3,"parameterNumberName":"V-component_of_WINDS"},"data":[0.0,0.0,0.0,0.0,0.0,0.0,0.0,0.0,0.0,0.0,0.0,0.0,0.0,0.0,0.0,0.0,0.0,0.0,0.0,0.0,0.0,0.0,0.0,0.0,0.0,0.0,0.0,0.0,0.0,0.0,0.0,0.0,0.0,0.0,0.0,0.0,0.0,0.0,0.0,0.0,0.0,0.0,0.0,0.0,0.0,0.0,0.0,0.0,0.0,0.0,0.0,0.0,0.0,0.0,0.0,0.0,0.0,0.0,0.0,0.0,0.0,0.0,0.0,0.0,0.0,0.0,0.0,0.0,0.0,0.0,0.0,0.0,0.0,0.0,0.0,0.0,0.0,0.0,0.0,0.0,0.0,0.0,0.0,0.0,0.0,0.0,0.0,0.0,0.0,0.0,0.0,0.0,0.0,0.0,0.0,0.0,0.0,0.0,0.0,0.0,0.0,0.0,0.0,0.0,0.0,0.0,0.0,0.0,0.0,0.0,0.0,0.0,0.0,0.0,0.0,0.0,0.0,0.0,0.0,0.0,0.0,0.0,0.0,0.0,0.0,0.0,0.0,0.0,0.0,0.0,0.0,0.0,0.0,0.0,0.0,0.0,0.0,0.0,0.0,0.0,0.0,0.0,0.0,0.0,0.0,0.0,0.0,0.0,0.0,0.0,0.0,0.0,0.0,0.0,0.0,0.0,0.0,0.0,0.0,0.0,0.0,0.0,0.0,0.0,0.0,0.0,0.0,0.0,0.0,0.0,0.0,0.0,0.0,0.0,0.0,0.0,0.0,0.0,0.0,0.0,0.0,0.0,0.0,0.0,0.0,0.0,0.0,0.0,0.0,0.0,0.0,0.0,0.0,0.0,0.0,0.0,0.0,0.0,0.0,0.0,0.0,0.0,0.0,0.0,0.0,0.0,0.0,0.0,0.0,0.0,0.0,0.0,0.0,0.0,0.0,0.0,0.0,0.0,0.0,0.0,0.0,0.0,0.0,0.0,0.0,0.0,0.0,0.0,0.0,0.0,0.0,0.0,0.0,0.0,0.0,0.0,0.0,0.0,0.0,0.0,0.0,0.0,0.0,0.0,0.0,0.0,0.0,0.0,0.0,0.0,0.0,0.0,0.0,0.0,0.0,0.0,0.0,0.0,0.0,0.0,0.0,0.0,0.0,0.0,0.0,0.0,0.0,0.0,0.0,0.0,0.0,0.0,0.0,0.0,0.0,0.0,0.0,0.0,0.0,0.0,0.0,0.0,0.0,0.0,0.0,0.0,0.0,0.0,0.0,0.0,0.0,0.0,0.0,0.0,0.0,0.0,0.0,0.0,0.0,0.0,0.0,0.0,0.0,0.0,0.0,0.0,0.0,0.0,0.0,0.0,0.0,0.0,0.0,0.0,0.0,0.0,0.0,0.0,0.0,0.0,0.0,0.0,0.0,0.0,0.0,0.0,0.0,0.0,0.0,0.0,0.0,0.0,0.0,0.0,0.0,0.0,0.0,0.0,0.0,0.0,0.0,0.0,0.0,0.0,0.0,0.0,0.0,0.0,0.0,0.0,0.0,0.0,0.0,0.0,0.0,0.0,0.0,0.0,0.0,0.0,0.0,0.0,0.0,0.0,0.0,0.0,0.0,0.0,0.0,0.0,0.0,0.0,0.0,0.0,0.0,0.0,0.0,0.0,0.0,0.0,0.0,0.0,0.0,0.0,0.0,0.0,0.0,0.0,0.0,0.0,0.0,0.0,0.0,0.0,0.0,0.0,0.0,0.0,0.0,0.0,0.0,0.0,0.0,0.0,0.0,0.0,0.0,0.0,0.0,0.0,0.0,0.0,0.0,0.0,0.0,0.0,0.0,0.0,0.0,0.0,0.0,0.0,0.0,0.0,0.0,0.0,0.0,0.0,0.0,0.0,0.0,0.0,0.0,0.0,0.0,0.0,0.0,0.0,0.0,0.0,0.0,0.0,0.0,0.0,0.0,0.0,0.0,0.0,0.0,0.0,0.0,0.0,0.0,0.0,0.0,0.0,0.0,0.0,0.0,0.0,0.0,0.0,0.0,0.0,0.0,0.0,0.0,0.0,0.0,0.0,0.0,0.0,0.0,0.0,0.0,0.0,0.0,0.0,0.0,0.0,0.0,0.0,0.0,0.0,0.0,0.0,0.0,0.0,0.0,0.0,0.0,0.0,0.0,0.0,0.0,0.0,0.0,0.0,0.0,0.0,0.0,0.0,0.0,0.0,0.0,0.0,0.0,0.0,0.0,0.0,0.0,0.0,0.0,0.0,0.0,0.0,0.0,0.0,0.0,0.0,0.0,0.0,0.0,0.0,0.0,0.0,0.0,0.0,0.0,0.0,0.0,0.0,0.0,0.0,0.0,0.0,0.0,0.0,0.0,0.0,0.0,0.0,0.0,0.0,0.0,0.0,0.0,0.0,0.0,0.0,0.0,0.0,0.0,0.0,0.0,0.0,0.0,0.0,0.0,0.0,0.0,0.0,0.0,0.0,0.0,0.0,0.0,0.0,0.0,0.0,0.0,0.0,0.0,0.0,0.0,0.0,0.0,0.0,0.0,0.0,0.0,0.0,0.0,0.0,0.0,0.0,0.0,0.0,0.0,0.0,0.0,0.0,0.0,0.0,0.0,0.0,0.0,0.0,0.0,0.0,0.0,0.0,0.0,0.0,0.0,0.0,0.0,0.0,0.0,0.0,0.0,0.0,0.0,0.0,0.0,0.0,0.0,0.0,0.0,0.0,0.0,0.0,0.0,0.0,0.0,0.0,0.0,0.0,0.0,0.0,0.0,0.0,0.0,0.0,0.0,0.0,0.0,0.0,0.0,0.0,0.0,0.0,0.0,0.0,0.0,0.0,0.0,0.0,0.0,0.0,0.0,0.0,0.0,0.0,0.0,0.0,0.0,0.0,0.0,0.0,0.0,0.0,0.0,0.0,0.0,0.0,0.0,0.0,0.0,0.0,0.0,0.0,0.0,0.0,0.0,0.0,0.0,0.0,0.0,0.0,0.0,0.0,0.0,0.0,0.0,0.0,0.0,0.0,0.0,0.0,0.0,0.0,0.0,0.0,0.0,0.0,0.0,0.0,0.0,0.0,0.0,0.0,0.0,0.0,0.0,0.0,0.0,0.0,0.0,0.0,0.0,0.0,0.0,0.0,0.0,0.0,0.0,0.0,0.0,0.0,0.0,0.0,0.0,0.0,0.0,0.0,0.0,0.0,0.0,0.0,0.0,0.0,0.0,0.0,0.0,0.0,0.0,0.0,0.0,0.0,0.0,0.0,0.0,0.0,0.0,0.0,0.0,0.0,0.0,0.0,0.0,0.0,0.0,0.0,0.0,0.0,0.0,0.0,0.0,0.0,0.0,0.0,0.0,0.0,0.0,0.0,0.0,0.0,0.0,0.0,0.0,0.0,0.0,0.0,0.0,0.0,0.0,0.0,0.0,0.0,0.0,0.0,0.0,0.0,0.0,0.0,0.0,0.0,0.0,0.0,0.0,0.0,0.0,0.0,0.0,0.0,0.0,0.0,0.0,0.0,0.0,0.0,0.0,0.0,0.0,0.0,0.0,0.0,0.0,0.0,0.0,0.0,0.0,0.0,0.0,0.0,0.0,0.0,0.0,0.0,0.0,0.0,0.0,0.0,0.0,0.0,0.0,0.0,0.0,0.0,0.0,0.0,0.0,0.0,0.0,0.0,0.0,0.0,0.0,0.0,0.0,0.0,0.0,0.0,0.0,0.0,0.0,0.0,0.0,0.0,0.0,0.0,0.0,0.0,0.0,0.0,0.0,0.0,0.0,0.0,0.0,0.0,0.0,0.0,0.0,0.0,0.0,0.0,0.0,0.0,0.0,0.0,0.0,0.0,0.0,0.0,0.0,0.0,0.0,0.0,0.0,0.0,0.0,0.0,0.0,0.0,0.0,0.0,0.0,0.0,0.0,0.0,0.0,0.0,0.0,0.0,0.0,0.0,0.0,0.0,0.0,0.0,0.0,0.0,0.0,0.0,0.0,0.0,0.0,0.0,0.0,0.0,0.0,0.0,0.0,0.0,0.0,0.0,0.0,0.0,0.0,0.0,0.0,0.0,0.0,0.0,0.0,0.0,0.0,0.0,0.0,0.0,0.0,0.0,0.0,0.0,0.0,0.0,0.0,0.0,0.0,0.0,0.0,0.0,0.0,0.0,0.0,0.0,0.0,0.0,0.0,0.0,0.0,0.0,0.0,0.0,0.0,0.0,0.0,0.0,0.0,0.0,0.0,0.0,0.0,0.0,-0.2927,0.0,0.0,0.0,0.0,0.0,0.0,0.0,0.0,0.0,0.0,0.0,0.0,0.0,0.0,0.0,0.0,0.0,0.0,0.0,0.0,0.0,0.0,0.0,0.0,0.0,0.0,0.0,0.0,0.0,0.0,0.0,0.0,0.0,0.0,0.0,0.0,0.0,0.0,0.0,0.0,0.0,0.0,0.0,0.0,0.0,0.0,0.0,0.0,0.0,0.0,0.0,0.0,0.0,0.0,0.0,0.0,0.0,0.0,0.0,0.0,0.0,0.0,0.0,0.0,0.0,0.0,0.0,0.0,0.0,0.0,0.0,0.0,0.0,0.0,0.0,0.0,0.0,0.0,0.0,0.0,0.0,0.0,0.0,0.0,0.0,0.0,0.0,0.0,0.0,0.0,0.0,0.0,0.0,0.0,0.0,0.0,0.0,0.0,0.0,0.0,0.0,0.0,0.0,0.0,0.0,0.0,0.0,0.0,0.0,0.0,-0.4646,-0.4254,-0.3525,-0.2996,-0.2789,0.0,0.0,0.0,0.0,0.0,0.0,0.0,0.0,0.0,0.0,0.0,0.0,0.0,0.0,0.0,0.0,0.0,0.0,0.0,0.0,0.0,0.0,0.0,0.0,0.0,0.0,0.0,0.0,0.0,0.0,0.0,0.0,0.0,0.0,0.0,0.0,0.0,0.0,0.0,0.0,0.0,0.0,0.0,0.0,0.0,0.0,0.0,0.0,0.0,0.0,0.0,0.0,0.0,0.0,0.0,0.0,0.0,0.0,0.0,0.0,0.0,0.0,0.0,0.0,0.0,0.0,0.0,0.0,0.0,0.0,0.0,0.0,0.0,0.0,0.0,0.0,0.0,0.0,0.0,0.0,0.0,0.0,0.0,0.0,0.0,0.0,0.0,0.0,0.0,0.0,0.0,0.0,0.0,0.0,0.0,0.0,0.0,0.0,0.0,0.0,0.0,0.0,0.0,0.0,0.0,0.0,0.0,0.0,0.0,0.0,0.0,0.0,-0.3147,-0.2923,-0.3189,0.0,0.0,0.0,0.0,0.0,0.0,0.0,0.0,0.0,0.0,0.0,0.0,0.0,0.0,0.0,0.0,0.0,0.0,0.0,0.0,0.0,0.0,0.0,0.0,0.0,0.0,0.0,0.0,0.0,0.0,0.0,0.0,0.0,0.0,0.0,0.0,0.0,0.0,0.0,0.0,0.0,0.0,0.0,0.0,0.0,0.0,0.0,0.0,0.0,0.0,0.0,0.0,0.0,0.0,0.0,0.0,0.0,0.0,0.0,0.0,0.0,0.0,0.0,0.0,0.0,0.0,0.0,0.0,0.0,0.0,0.0,0.0,0.0,0.0,0.0,0.0,0.0,0.0,0.0,0.0,0.0,0.0,0.0,0.0,0.0,0.0,0.0,0.0,0.0,0.0,0.0,0.0,0.0,0.0,0.0,0.0,0.0,0.0,0.0,0.0,0.0,0.0,0.0,0.0,0.0,0.0,0.0,0.0,0.0,0.0,-0.3289,-0.328,-0.2798,0.0,-0.4379,0.0,0.0,0.0,0.0,0.0,0.0,0.0,0.0,0.0,0.0,0.0,0.0,0.0,0.0,0.0,0.0,0.0,0.0,0.0,0.0,0.0,0.0,0.0,0.0,0.0,0.0,0.0,0.0,0.0,0.0,0.0,0.0,0.0,0.0,0.0,0.0,0.0,0.0,0.0,0.0,0.0,0.0,0.0,0.0,0.0,0.0,0.0,0.0,0.0,0.0,0.0,0.0,0.0,0.0,0.0,0.0,0.0,0.0,0.0,0.0,0.0,0.0,0.0,0.0,0.0,0.0,0.0,0.0,0.0,0.0,0.0,0.0,0.0,0.0,0.0,0.0,0.0,0.0,0.0,0.0,0.0,0.0,0.0,0.0,0.0,0.0,0.0,0.0,0.0,0.0,0.0,0.0,0.0,0.0,0.0,0.0,0.0,0.0,0.0,0.0,0.0,0.0,0.0,0.0,0.0,0.0,0.0,0.0,0.0,0.0,-0.2688,-0.2489,-0.2811,-0.3563,0.0,0.0,0.0,0.0,0.0,0.0,0.0,0.0,0.0,0.0,0.0,0.0,0.0,0.0,0.0,0.0,0.0,0.0,0.0,0.0,0.0,0.0,0.0,0.0,0.0,0.0,0.0,0.0,0.0,0.0,0.0,0.0,0.0,0.0,0.0,0.0,0.0,0.0,0.0,0.0,0.0,0.0,0.0,0.0,0.0,0.0,0.0,0.0,0.0,0.0,0.0,0.0,0.0,0.0,0.0,0.0,0.0,0.0,0.0,0.0,0.0,0.0,0.0,0.0,0.0,0.0,0.0,0.0,0.0,0.0,0.0,0.0,0.0,0.0,0.0,0.0,0.0,0.0,0.0,0.0,0.0,0.0,0.0,0.0,0.0,0.0,0.0,0.0,0.0,0.0,0.0,0.0,0.0,0.0,0.0,0.0,0.0,0.0,0.0,0.0,0.0,0.0,0.0,0.0,0.0,0.0,0.0,0.0,0.0,0.0,-0.2195,-0.2294,-0.222,-0.2705,-0.3515,-0.466,0.0,0.0,0.0,0.0,0.0,0.0,0.0,0.0,0.0,0.0,0.0,0.0,0.0,0.0,0.0,0.0,0.0,0.0,0.0,0.0,0.0,0.0,0.0,0.0,0.0,0.0,0.0,0.0,0.0,0.0,0.0,0.0,0.0,0.0,0.0,0.0,0.0,0.0,0.0,0.0,0.0,0.0,0.0,0.0,0.0,0.0,0.0,0.0,0.0,0.0,0.0,0.0,0.0,0.0,0.0,0.0,0.0,0.0,0.0,0.0,0.0,0.0,0.0,0.0,0.0,0.0,0.0,0.0,0.0,0.0,0.0,0.0,0.0,0.0,0.0,0.0,0.0,0.0,0.0,0.0,0.0,0.0,0.0,0.0,0.0,0.0,0.0,0.0,0.0,0.0,0.0,0.0,0.0,0.0,0.0,0.0,0.0,0.0,0.0,0.0,0.0,0.0,0.0,0.0,0.0,0.0,0.0,0.0,-0.1973,-0.1955,-0.2178,-0.2631,-0.2334,-0.2646,0.0,0.0,0.0,0.0,0.0,0.0,0.0,0.0,0.0,0.0,0.0,0.0,0.0,0.0,0.0,0.0,0.0,0.0,0.0,0.0,0.0,0.0,0.0,0.0,0.0,0.0,0.0,0.0,0.0,0.0,0.0,0.0,0.0,0.0,0.0,0.0,0.0,0.0,0.0,0.0,0.0,0.0,0.0,0.0,0.0,0.0,0.0,0.0,0.0,0.0,0.0,0.0,0.0,0.0,0.0,0.0,0.0,0.0,0.0,0.0,0.0,0.0,0.0,0.0,0.0,0.0,0.0,0.0,0.0,0.0,0.0,0.0,0.0,0.0,0.0,0.0,0.0,0.0,0.0,0.0,0.0,0.0,0.0,0.0,0.0,0.0,0.0,0.0,0.0,0.0,0.0,0.0,0.0,0.0,0.0,0.0,0.0,0.0,0.0,0.0,0.0,0.0,0.0,0.0,0.0,0.0,0.0,0.0,0.0,-0.1382,-0.1709,-0.2174,-0.271,-0.2549,-0.2655,0.0,0.0,0.0,0.0,0.0,0.0,0.0,0.0,0.0,0.0,0.0,0.0,0.0,0.0,0.0,0.0,0.0,0.0,0.0,0.0,0.0,0.0,0.0,0.0,0.0,0.0,0.0,0.0,0.0,0.0,0.0,0.0,0.0,0.0,0.0,0.0,0.0,0.0,0.0,0.0,0.0,0.0,0.0,0.0,0.0,0.0,0.0,0.0,0.0,0.0,0.0,0.0,0.0,0.0,0.0,0.0,0.0,0.0,0.0,0.0,0.0,0.0,0.0,0.0,0.0,0.0,0.0,0.0,0.0,0.0,0.0,0.0,0.0,0.0,0.0,0.0,0.0,0.0,0.0,0.0,0.0,0.0,0.0,0.0,0.0,0.0,0.0,0.0,0.0,0.0,0.0,0.0,0.0,0.0,0.0,0.0,0.0,0.0,0.0,0.0,0.0,0.0,0.0,0.0,0.0,0.0,0.0,0.0,0.0,-0.1292,0.0,-0.2249,-0.2713,-0.244,-0.2384,0.0,0.0,0.0,0.0,0.0,0.0,0.0,0.0,0.0,0.0,0.0,0.0,0.0,0.0,0.0,0.0,0.0,0.0,0.0,0.0,0.0,0.0,0.0,0.0,0.0,0.0,0.0,0.0,0.0,0.0,0.0,0.0,0.0,0.0,0.0,0.0,0.0,0.0,0.0,0.0,0.0,0.0,0.0,0.0,0.0,0.0,0.0,0.0,0.0,0.0,0.0,0.0,0.0,0.0,0.0,0.0,0.0,0.0,0.0,0.0,0.0,0.0,0.0,0.0,0.0,0.0,0.0,0.0,0.0,0.0,0.0,0.0,0.0,0.0,0.0,0.0,0.0,0.0,0.0,0.0,0.0,0.0,0.0,0.0,0.0,0.0,0.0,0.0,0.0,0.0,0.0,0.0,0.0,0.0,0.0,0.0,0.0,0.0,0.0,0.0,0.0,0.0,0.0,0.0,0.0,0.0,0.0,0.0,-0.112,-0.1861,-0.2167,-0.2399,-0.2589,-0.2003,-0.1715,0.0,0.0,0.0,0.0,0.0,0.0,0.0,0.0,0.0,0.0,0.0,0.0,0.0,0.0,0.0,0.0,0.0,0.0,0.0,0.0,0.0,0.0,0.0,0.0,0.0,0.0,0.0,0.0,0.0,0.0,0.0,0.0,0.0,0.0,0.0,0.0,0.0,0.0,0.0,0.0,0.0,0.0,0.0,0.0,0.0,0.0,0.0,0.0,0.0,0.0,0.0,0.0,0.0,0.0,0.0,0.0,0.0,0.0,0.0,0.0,0.0,0.0,0.0,0.0,0.0,0.0,0.0,0.0,0.0,0.0,0.0,0.0,0.0,0.0,0.0,0.0,0.0,0.0,0.0,0.0,0.0,0.0,0.0,0.0,0.0,0.0,0.0,0.0,0.0,0.0,0.0,0.0,0.0,0.0,0.0,0.0,0.0,0.0,0.0,0.0,0.0,0.0,0.0,0.0,0.0,0.0,0.0,0.0,0.0,-0.2182,-0.2451,-0.2727,-0.2988,-0.2359,-0.1897,0.0,0.0,0.0,0.0,0.0,0.0,0.0,0.0,0.0,0.0,0.0,0.0,0.0,0.0,0.0,0.0,0.0,0.0,0.0,0.0,0.0,0.0,0.0,0.0,0.0,0.0,0.0,0.0,0.0,0.0,0.0,0.0,0.0,0.0,0.0,0.0,0.0,0.0,0.0,0.0,0.0,0.0,0.0,0.0,0.0,0.0,0.0,0.0,0.0,0.0,0.0,0.0,0.0,0.0,0.0,0.0,0.0,0.0,0.0,0.0,0.0,0.0,0.0,0.0,0.0,0.0,0.0,0.0,0.0,0.0,0.0,0.0,0.0,0.0,0.0,0.0,0.0,0.0,0.0,0.0,0.0,0.0,0.0,0.0,0.0,0.0,0.0,0.0,0.0,0.0,0.0,0.0,0.0,0.0,0.0,0.0,0.0,0.0,0.0,0.0,0.0,0.0,0.0,0.0,0.0,0.0,0.0,0.0,0.0,-0.2837,-0.3111,-0.3378,-0.3579,-0.2936,-0.2254,-0.1608,0.0,0.0,0.0,0.0,0.0,0.0,0.0,0.0,0.0,0.0,0.0,0.0,0.0,0.0,0.0,0.0,0.0,0.0,0.0,0.0,0.0,0.0,0.0,0.0,0.0,0.0,0.0,0.0,0.0,0.0,0.0,0.0,0.0,0.0,0.0,0.0,0.0,0.0,0.0,0.0,0.0,0.0,0.0,0.0,0.0,0.0,0.0,0.0,0.0,0.0,0.0,0.0,0.0,0.0,0.0,0.0,0.0,0.0,0.0,0.0,0.0,0.0,0.0,0.0,0.0,0.0,0.0,0.0,0.0,0.0,0.0,0.0,0.0,0.0,0.0,0.0,0.0,0.0,0.0,0.0,0.0,0.0,0.0,0.0,0.0,0.0,0.0,0.0,0.0,0.0,0.0,0.0,0.0,0.0,0.0,0.0,0.0,0.0,0.0,0.0,0.0,0.0,0.0,0.0,0.0,0.0,0.0,0.0,-0.3889,-0.4216,-0.4387,-0.4372,-0.3648,-0.2754,0.0,0.0,0.0,0.0,0.0,0.0,0.0,0.0,0.0,0.0,0.0,0.0,0.0,0.0,0.0,0.0,0.0,0.0,0.0,0.0,0.0,0.0,0.0,0.0,0.0,0.0,0.0,0.0,0.0,0.0,0.0,0.0,0.0,0.0,0.0,0.0,0.0,0.0,0.0,0.0,0.0,0.0,0.0,0.0,0.0,0.0,0.0,0.0,0.0,0.0,0.0,0.0,0.0,0.0,0.0,0.0,0.0,0.0,0.0,0.0,0.0,0.0,0.0,0.0,0.0,0.0,0.0,0.0,0.0,0.0,0.0,0.0,0.0,0.0,0.0,0.0,0.0,0.0,0.0,0.0,0.0,0.0,0.0,0.0,0.0,0.0,0.0,0.0,0.0,0.0,0.0,0.0,0.0,0.0,0.0,0.0,0.0,0.0,0.0,0.0,0.0,0.0,0.0,0.0,0.0,0.0,0.0,0.0,0.0,-0.5094,-0.5855,-0.5976,-0.5327,-0.4394,-0.354,0.0,0.0,0.0,0.0,0.0,0.0,0.0,0.0,0.0,0.0,0.0,0.0,0.0,0.0,0.0,0.0,0.0,0.0,0.0,0.0,0.0,0.0,0.0,0.0,0.0,0.0,0.0,0.0,0.0,0.0,0.0,0.0,0.0,0.0,0.0,0.0,0.0,0.0,0.0,0.0,0.0,0.0,0.0,0.0,0.0,0.0,0.0,0.0,0.0,0.0,0.0,0.0,0.0,0.0,0.0,0.0,0.0,0.0,0.0,0.0,0.0,0.0,0.0,0.0,0.0,0.0,0.0,0.0,0.0,0.0,0.0,0.0,0.0,0.0,0.0,0.0,0.0,0.0,0.0,0.0,0.0,0.0,0.0,0.0,0.0,0.0,0.0,0.0,0.0,0.0,0.0,0.0,0.0,0.0,0.0,0.0,0.0,0.0,0.0,0.0,0.0,0.0,0.0,0.0,0.0,0.0,0.0,0.0,-0.4183,-0.5909,-0.6677,-0.7083,-0.7036,-0.5934,-0.4967,0.0,0.0,0.0,0.0,0.0,0.0,0.0,0.0,0.0,0.0,0.0,0.0,0.0,0.0,0.0,0.0,0.0,0.0,0.0,0.0,0.0,0.0,0.0,0.0,0.0,0.0,0.0,0.0,0.0,0.0,0.0,0.0,0.0,0.0,0.0,0.0,0.0,0.0,0.0,0.0,0.0,0.0,0.0,0.0,0.0,0.0,0.0,0.0,0.0,0.0,0.0,0.0,0.0,0.0,0.0,0.0,0.0,0.0,0.0,0.0,0.0,0.0,0.0,0.0,0.0,0.0,0.0,0.0,0.0,0.0,0.0,0.0,0.0,0.0,0.0,0.0,0.0,0.0,0.0,0.0,0.0,0.0,0.0,0.0,0.0,0.0,0.0,0.0,0.0,0.0,0.0,0.0,0.0,0.0,0.0,0.0,0.0,0.0,0.0,0.0,0.0,0.0,0.0,0.0,0.0,0.0,0.0,0.0,-0.4724,-0.6492,-0.7077,-0.7878,-0.8884,-0.779,-0.6632,0.0,0.0,0.0,0.0,0.0,0.0,0.0,0.0,0.0,0.0,0.0,0.0,0.0,0.0,0.0,0.0,0.0,0.0,0.0,0.0,0.0,0.0,0.0,0.0,0.0,0.0,0.0,0.0,0.0,0.0,0.0,0.0,0.0,0.0,0.0,0.0,0.0,0.0,0.0,0.0,0.0,0.0,0.0,0.0,0.0,0.0,0.0,0.0,0.0,0.0,0.0,0.0,0.0,0.0,0.0,0.0,0.0,0.0,0.0,0.0,0.0,0.0,0.0,0.0,0.0,0.0,0.0,0.0,0.0,0.0,0.0,0.0,0.0,0.0,0.0,0.0,0.0,0.0,0.0,0.0,0.0,0.0,0.0,0.0,0.0,0.0,0.0,0.0,0.0,0.0,0.0,0.0,0.0,0.0,0.0,0.0,0.0,0.0,0.0,0.0,0.0,0.0,0.0,0.0,0.0,0.0,0.0,0.0,-0.5562,-0.7225,-0.7982,-0.8746,-0.952,-0.8266,-0.7192,0.0,0.0,0.0,0.0,0.0,0.0,0.0,0.0,0.0,0.0,0.0,0.0,0.0,0.0,0.0,0.0,0.0,0.0,0.0,0.0,0.0,0.0,0.0,0.0,0.0,0.0,0.0,0.0,0.0,0.0,0.0,0.0,0.0,0.0,0.0,0.0,0.0,0.0,0.0,0.0,0.0,0.0,0.0,0.0,0.0,0.0,0.0,0.0,-0.5308,0.0,0.0,0.0,0.0,0.0,0.0,0.0,0.0,0.0,0.0,0.0,0.0,0.0,0.0,0.0,0.0,0.0,0.0,0.0,0.0,0.0,0.0,0.0,0.0,0.0,0.0,0.0,0.0,0.0,0.0,0.0,0.0,0.0,0.0,0.0,0.0,0.0,0.0,0.0,0.0,0.0,0.0,0.0,0.0,0.0,0.0,0.0,0.0,0.0,0.0,0.0,0.0,0.0,0.0,0.0,0.0,0.0,0.0,0.0,-0.601,-0.7475,-0.82,-0.8887,-0.9542,-0.8822,-0.8057,0.0,0.0,0.0,0.0,0.0,0.0,0.0,0.0,0.0,0.0,0.0,0.0,0.0,0.0,0.0,0.0,0.0,0.0,0.0,0.0,0.0,0.0,0.0,0.0,0.0,0.0,0.0,0.0,0.0,0.0,0.0,0.0,0.0,0.0,0.0,0.0,0.0,0.0,0.0,0.0,0.0,0.0,0.0,0.0,0.0,0.0,0.0,0.0,0.0,0.0,0.0,0.0,0.0,0.0,0.0,0.0,0.0,0.0,0.0,0.0,0.0,0.0,0.0,0.0,0.0,0.0,0.0,0.0,0.0,0.0,0.0,0.0,0.0,0.0,0.0,0.0,0.0,0.0,0.0,0.0,0.0,0.0,0.0,0.0,0.0,0.0,0.0,0.0,0.0,0.0,0.0,0.0,0.0,0.0,0.0,0.0,0.0,0.0,0.0,0.0,0.0,0.0,0.0,0.0,0.0,0.0,0.0,-0.5325,-0.6434,-0.7596,-0.8329,-0.8913,-0.9462,-0.9308,-0.8992,-0.8552,0.0,0.0,0.0,0.0,0.0,0.0,0.0,0.0,0.0,0.0,0.0,0.0,0.0,0.0,0.0,0.0,0.0,0.0,0.0,0.0,0.0,0.0,0.0,0.0,0.0,0.0,0.0,0.0,0.0,0.0,0.0,0.0,0.0,0.0,0.0,0.0,0.0,0.0,-0.9795,-0.9989,0.0,0.0,0.0,0.0,0.0,0.0,0.0,0.0,-0.6403,0.0,0.0,0.0,0.0,0.0,0.0,0.0,0.0,0.0,0.0,0.0,0.0,0.0,0.0,0.0,0.0,0.0,0.0,0.0,0.0,0.0,0.0,0.0,0.0,0.0,0.0,0.0,0.0,0.0,0.0,0.0,0.0,0.0,0.0,0.0,0.0,0.0,0.0,0.0,0.0,0.0,0.0,0.0,0.0,0.0,0.0,0.0,0.0,0.0,0.0,0.0,0.0,0.0,0.0,0.0,0.0,-0.5026,-0.6284,-0.7349,-0.8147,-0.9305,-0.9747,-0.9429,-0.9492,-0.9395,-0.9134,0.0,0.0,0.0,0.0,0.0,0.0,0.0,0.0,0.0,0.0,0.0,0.0,0.0,0.0,0.0,0.0,0.0,0.0,0.0,0.0,0.0,0.0,0.0,0.0,0.0,0.0,0.0,0.0,0.0,0.0,0.0,0.0,0.0,0.0,0.0,0.0,0.0,0.0,0.0,-1.0684,-1.0971,0.0,0.0,0.0,0.0,0.0,0.0,0.0,0.0,-0.7789,0.0,0.0,0.0,0.0,0.0,0.0,0.0,0.0,0.0,0.0,0.0,0.0,0.0,0.0,0.0,0.0,0.0,0.0,0.0,0.0,0.0,0.0,0.0,0.0,0.0,0.0,0.0,0.0,0.0,0.0,0.0,0.0,0.0,0.0,0.0,0.0,0.0,0.0,0.0,0.0,0.0,0.0,0.0,0.0,0.0,0.0,0.0,0.0,0.0,0.0,0.0,0.0,0.0,0.0,0.0,-0.5274,-0.7041,-0.8239,-0.8953,-0.9716,-0.995,-0.9631,-0.9711,-0.9584,0.0,0.0,0.0,0.0,0.0,0.0,0.0,0.0,0.0,0.0,0.0,0.0,0.0,0.0,0.0,0.0,0.0,0.0,0.0,0.0,0.0,0.0,0.0,0.0,0.0,0.0,0.0,0.0,0.0,0.0,0.0,0.0,0.0,0.0,0.0,0.0,0.0,0.0,0.0,0.0,-1.1895,-1.1675,-1.0141,0.0,0.0,0.0,0.0,0.0,0.0,-0.8456,-0.8884,0.0,0.0,0.0,0.0,0.0,0.0,0.0,0.0,0.0,0.0,0.0,0.0,0.0,0.0,0.0,0.0,0.0,0.0,0.0,0.0,0.0,0.0,0.0,0.0,0.0,0.0,0.0,0.0,0.0,0.0,0.0,0.0,0.0,0.0,0.0,0.0,0.0,0.0,0.0,0.0,0.0,0.0,0.0,0.0,0.0,0.0,0.0,0.0,0.0,0.0,0.0,0.0,0.0,0.0,0.0,-0.5471,-0.7633,-0.9062,-0.9665,-1.007,-1.0161,-0.9962,-0.9941,-0.9805,0.0,0.0,0.0,0.0,0.0,0.0,0.0,0.0,0.0,0.0,0.0,0.0,0.0,0.0,0.0,0.0,0.0,0.0,0.0,0.0,0.0,0.0,0.0,0.0,0.0,0.0,0.0,0.0,0.0,0.0,0.0,0.0,0.0,0.0,0.0,0.0,0.0,0.0,0.0,0.0,0.0,-1.2457,-1.1132,-1.1291,0.0,0.0,0.0,0.0,-0.9723,-0.9813,0.0,0.0,0.0,0.0,0.0,0.0,0.0,0.0,0.0,0.0,0.0,0.0,0.0,0.0,0.0,0.0,0.0,0.0,0.0,0.0,0.0,0.0,0.0,0.0,0.0,0.0,0.0,0.0,0.0,0.0,0.0,0.0,0.0,0.0,0.0,0.0,0.0,0.0,0.0,0.0,0.0,0.0,0.0,0.0,0.0,0.0,0.0,0.0,0.0,0.0,0.0,0.0,0.0,0.0,0.0,0.0,-0.5756,-0.8048,-0.9492,-1.0037,-1.0777,-1.0929,-1.0452,-1.0195,-1.0297,0.0,0.0,0.0,0.0,0.0,0.0,0.0,0.0,0.0,0.0,0.0,0.0,0.0,0.0,0.0,0.0,0.0,0.0,0.0,0.0,0.0,0.0,0.0,0.0,0.0,0.0,0.0,0.0,0.0,0.0,0.0,0.0,0.0,0.0,0.0,0.0,0.0,0.0,0.0,0.0,0.0,-1.4103,-1.3176,-1.3871,-1.4377,0.0,0.0,-1.1625,-1.2189,-1.146,0.0,0.0,0.0,0.0,0.0,0.0,0.0,0.0,0.0,0.0,0.0,0.0,0.0,0.0,0.0,0.0,0.0,0.0,0.0,0.0,0.0,0.0,0.0,0.0,0.0,0.0,0.0,0.0,0.0,0.0,0.0,0.0,0.0,0.0,0.0,0.0,0.0,0.0,0.0,0.0,0.0,0.0,0.0,0.0,0.0,0.0,0.0,0.0,0.0,0.0,0.0,0.0,0.0,0.0,0.0,-0.4203,-0.6048,-0.856,-1.0151,-1.0721,-1.1316,-1.1543,-1.135,-1.1451,-1.1532,0.0,0.0,0.0,0.0,0.0,0.0,0.0,0.0,0.0,0.0,0.0,0.0,0.0,0.0,0.0,0.0,0.0,0.0,0.0,0.0,0.0,0.0,0.0,0.0,0.0,0.0,0.0,0.0,0.0,0.0,0.0,0.0,0.0,0.0,0.0,0.0,0.0,0.0,0.0,0.0,0.0,0.0,-1.517,-1.5758,0.0,0.0,0.0,-1.428,-1.4933,0.0,0.0,0.0,0.0,0.0,0.0,0.0,0.0,0.0,0.0,0.0,0.0,0.0,0.0,0.0,0.0,0.0,0.0,0.0,0.0,0.0,0.0,0.0,0.0,0.0,0.0,0.0,0.0,0.0,0.0,0.0,0.0,0.0,0.0,0.0,0.0,0.0,0.0,0.0,0.0,0.0,0.0,0.0,0.0,0.0,0.0,0.0,0.0,0.0,0.0,0.0,0.0,0.0,0.0,0.0,0.0,0.0,-0.6424,-0.8875,-1.0452,-1.1115,-1.1569,-1.1777,-1.1821,-1.2163,0.0,0.0,0.0,0.0,0.0,0.0,0.0,0.0,0.0,0.0,0.0,0.0,0.0,0.0,0.0,0.0,0.0,0.0,0.0,0.0,0.0,0.0,0.0,0.0,0.0,0.0,0.0,-0.481,0.0,0.0,0.0,0.0,0.0,0.0,0.0,0.0,0.0,0.0,0.0,0.0,0.0,0.0,-1.5974,-1.639,-1.6757,-1.6994,0.0,0.0,-1.5643,-1.6123,-1.5595,-1.5395,0.0,0.0,0.0,0.0,0.0,0.0,0.0,0.0,0.0,0.0,0.0,0.0,0.0,0.0,0.0,0.0,0.0,0.0,0.0,0.0,0.0,0.0,0.0,0.0,0.0,0.0,0.0,0.0,0.0,0.0,0.0,0.0,0.0,0.0,0.0,0.0,0.0,0.0,0.0,0.0,0.0,0.0,0.0,0.0,0.0,0.0,0.0,0.0,0.0,0.0,0.0,0.0,0.0,0.0,0.0,-0.6954,-0.878,-1.0109,-1.0886,-1.1268,-1.137,-1.1255,-1.1588,-1.2046,0.0,0.0,0.0,0.0,0.0,0.0,0.0,0.0,0.0,0.0,0.0,0.0,0.0,0.0,0.0,0.0,0.0,0.0,0.0,0.0,0.0,0.0,0.0,0.0,0.0,0.0,0.0,0.0,0.0,0.0,0.0,0.0,0.0,0.0,0.0,0.0,0.0,0.0,0.0,0.0,0.0,-1.5755,-1.6177,-1.6573,-1.6616,0.0,0.0,-1.4798,-1.4614,-1.4551,-1.4737,-1.5533,0.0,0.0,0.0,0.0,0.0,0.0,0.0,0.0,0.0,0.0,0.0,0.0,0.0,0.0,0.0,0.0,0.0,0.0,0.0,0.0,0.0,0.0,0.0,0.0,0.0,0.0,0.0,0.0,0.0,0.0,0.0,0.0,0.0,0.0,0.0,0.0,0.0,0.0,0.0,0.0,0.0,0.0,0.0,0.0,0.0,0.0,0.0,0.0,0.0,0.0,0.0,0.0,0.0,-0.4196,-0.5466,-0.759,-0.9105,-0.9831,-1.0389,-1.0878,-1.1307,-1.2005,-1.2482,0.0,0.0,0.0,0.0,0.0,0.0,0.0,0.0,0.0,0.0,0.0,0.0,0.0,0.0,0.0,0.0,0.0,0.0,0.0,0.0,0.0,0.0,0.0,0.0,0.0,0.0,0.0,0.0,-0.5823,-0.6278,-0.7769,0.0,0.0,0.0,0.0,0.0,0.0,0.0,0.0,0.0,0.0,-1.642,-1.6401,-1.6936,0.0,0.0,-1.6142,-1.5914,-1.6467,-1.6358,-1.6532,-1.7541,-1.784,0.0,0.0,0.0,0.0,0.0,0.0,0.0,0.0,0.0,0.0,0.0,0.0,0.0,0.0,0.0,0.0,0.0,0.0,0.0,0.0,0.0,0.0,0.0,0.0,0.0,0.0,0.0,0.0,0.0,0.0,0.0,0.0,0.0,0.0,0.0,0.0,0.0,0.0,0.0,0.0,0.0,0.0,0.0,0.0,0.0,0.0,0.0,0.0,0.0,0.0,0.0,0.0,-0.3189,-0.4815,-0.6907,-0.8368,-0.9191,-0.998,-1.0606,-1.111,-1.2071,-1.2666,0.0,0.0,0.0,0.0,0.0,0.0,0.0,0.0,0.0,0.0,0.0,0.0,0.0,0.0,0.0,0.0,0.0,0.0,0.0,0.0,0.0,0.0,0.0,0.0,0.0,0.0,0.0,0.0,-0.665,-0.7228,-0.8562,0.0,0.0,0.0,0.0,0.0,0.0,0.0,0.0,0.0,0.0,-1.605,-1.6095,-1.6503,-1.6518,-1.5838,-1.5616,-1.5764,-1.6309,-1.6147,-1.6571,-1.8422,0.0,0.0,0.0,0.0,0.0,0.0,0.0,0.0,0.0,0.0,0.0,0.0,0.0,0.0,0.0,0.0,0.0,0.0,0.0,0.0,0.0,0.0,0.0,0.0,0.0,0.0,0.0,0.0,0.0,0.0,-0.8345,0.0,0.0,0.0,0.0,0.0,0.0,0.0,0.0,0.0,0.0,0.0,0.0,0.0,0.0,0.0,0.0,0.0,0.0,0.0,0.0,0.0,0.0,-0.2656,-0.5431,-0.7007,-0.8256,-0.9185,-1.0237,-1.0649,-1.0496,-1.1512,-1.2309,-1.2778,0.0,0.0,0.0,0.0,0.0,0.0,0.0,0.0,0.0,0.0,0.0,0.0,0.0,0.0,0.0,0.0,0.0,0.0,0.0,0.0,0.0,0.0,0.0,0.0,0.0,0.0,-0.7393,-0.7515,-0.8043,0.0,0.0,0.0,0.0,0.0,0.0,0.0,0.0,0.0,0.0,-1.497,-1.4226,-1.5141,-1.4911,-1.4165,-1.2511,-1.3141,-1.367,-1.3194,-1.2993,-1.3986,0.0,0.0,0.0,0.0,0.0,0.0,0.0,0.0,0.0,0.0,0.0,0.0,0.0,0.0,0.0,0.0,0.0,0.0,0.0,0.0,0.0,0.0,0.0,0.0,0.0,0.0,0.0,-0.4851,-0.6458,0.0,0.0,0.0,0.0,0.0,0.0,0.0,0.0,0.0,0.0,0.0,-0.7531,-0.552,0.0,0.0,0.0,0.0,0.0,0.0,0.0,0.0,0.0,0.0,0.0,0.0,-0.3296,-0.5269,-0.6745,-0.797,-0.8958,-0.9655,-1.0315,-1.0985,-1.1421,-1.2024,-1.284,0.0,0.0,0.0,0.0,0.0,0.0,0.0,0.0,0.0,0.0,0.0,0.0,0.0,0.0,0.0,0.0,0.0,0.0,0.0,0.0,0.0,0.0,0.0,0.0,0.0,-0.983,0.0,0.0,0.0,0.0,0.0,0.0,0.0,0.0,0.0,0.0,0.0,-1.5511,-1.5798,-1.536,-1.518,-1.5743,-1.5026,-1.4333,0.0,0.0,0.0,0.0,0.0,0.0,0.0,0.0,0.0,0.0,0.0,0.0,0.0,0.0,-2.312,-2.0701,-1.9586,-1.9001,-1.9006,0.0,0.0,0.0,0.0,0.0,0.0,0.0,0.0,0.0,0.0,0.0,0.0,0.0,0.0,-0.9271,0.0,-1.2087,0.0,0.0,0.0,0.0,0.0,0.0,0.0,0.0,-1.1027,-0.9029,-0.8803,-0.561,-0.3333,0.0,-0.273,-0.2469,0.0,0.0,0.0,0.0,0.0,0.0,0.0,0.0,-0.44,-0.5766,-0.7225,-0.8603,-0.9814,-1.0523,-1.1339,-1.2191,-1.23,-1.2657,-1.3328,-1.288,-1.2271,0.0,0.0,0.0,0.0,0.0,0.0,0.0,0.0,0.0,0.0,0.0,0.0,0.0,0.0,0.0,0.0,0.0,0.0,0.0,0.0,0.0,0.0,0.0,-1.1938,0.0,0.0,0.0,0.0,0.0,0.0,0.0,0.0,0.0,-1.4969,-1.5436,-1.5951,-1.6142,-1.5862,-1.5605,-1.5528,0.0,0.0,0.0,0.0,0.0,0.0,0.0,-1.5449,-1.8501,-1.8895,-1.9846,-2.2985,-2.4933,-2.6314,-2.6893,0.0,0.0,-2.3457,-2.2235,-2.1636,-2.1687,-2.0627,-2.0141,-2.1578,-2.1621,-2.183,0.0,0.0,0.0,0.0,0.0,0.0,0.0,0.0,-1.0219,-1.4469,0.0,-1.8143,0.0,0.0,0.0,0.0,0.0,-1.359,0.0,0.0,-0.8667,-0.6407,-0.9298,-0.4785,-0.2665,-0.3184,-0.4345,-0.4687,-0.4351,-0.2932,0.0,0.0,0.0,0.0,0.0,0.0,-0.5863,-0.6969,-0.859,-1.017,-1.1642,-1.2809,-1.359,-1.3892,-1.4028,-1.4093,-1.4122,-1.2516,-1.1303,-1.0674,-1.0271,0.0,0.0,0.0,0.0,0.0,0.0,0.0,0.0,0.0,0.0,0.0,0.0,0.0,0.0,0.0,0.0,0.0,0.0,0.0,0.0,-1.2711,0.0,0.0,0.0,0.0,0.0,0.0,0.0,0.0,0.0,0.0,-1.5146,-1.5143,-1.5889,-1.7268,0.0,0.0,0.0,0.0,-1.3475,-1.1158,-1.2233,-1.3552,-1.4171,-1.3596,-1.4724,-1.9479,0.0,0.0,-2.3568,-2.5748,-2.6894,-2.6986,-2.7579,-2.7615,-2.5857,-2.471,-2.4213,-2.4229,-2.3538,-2.3442,-2.4176,-2.3808,-2.3573,-1.5645,0.0,0.0,0.0,0.0,-0.0028,-0.4659,-0.6912,-1.5318,-1.9592,-2.0696,-2.0094,0.0,0.0,0.0,0.0,0.0,0.0,-1.6615,-1.7531,-1.3366,-1.1907,-1.2613,-0.7925,-0.5834,-0.6041,-0.5294,-0.5276,-0.6008,-0.5913,-0.4965,-0.3282,0.0,0.0,0.0,0.0,-0.7728,-0.9412,-1.0809,-1.2265,-1.3782,-1.4192,-1.4454,-1.4546,-1.4435,-1.421,-1.3858,-1.3223,-1.2334,-1.1222,-1.0883,0.0,0.0,0.0,0.0,0.0,0.0,0.0,0.0,0.0,0.0,0.0,0.0,0.0,0.0,0.0,0.0,0.0,0.0,0.0,-1.4902,-1.6255,-1.7151,0.0,0.0,0.0,0.0,0.0,0.0,0.0,0.0,0.0,-1.769,-1.7147,-1.7305,0.0,0.0,-1.7175,-1.6931,-1.5657,-1.4404,-1.3512,-1.3077,0.0,-1.3633,-1.4921,-1.6668,-1.9188,-2.126,-2.3168,-2.4678,-2.5985,-2.6848,-2.6917,-2.7109,-2.6909,-2.5828,-2.4888,-2.4569,-2.4992,-2.4569,-2.4555,-2.5879,-2.6032,-2.6104,-2.2465,-1.3524,-0.7509,-0.0682,0.5407,-0.0498,-0.4312,-0.6748,-1.4887,-1.9449,-2.1184,-2.1037,-2.0691,-2.018,-1.9745,0.0,0.0,0.0,-2.0155,-2.0643,-1.77,-1.6306,-1.5989,-1.202,-0.9647,-0.897,-0.7991,-0.7591,-0.7772,-0.8108,-0.7579,-0.6276,0.0,0.0,-0.6258,-0.8036,-0.9615,-1.1115,-1.3041,-1.4465,-1.5321,-1.6348,-1.6812,-1.6676,-1.6541,-1.598,-1.4965,-1.4817,-1.4032,-1.2466,-1.1995,-1.1513,0.0,0.0,0.0,0.0,0.0,0.0,0.0,0.0,0.0,0.0,0.0,-1.119,0.0,0.0,0.0,0.0,-1.5488,-1.6087,-1.7189,-1.8507,0.0,0.0,0.0,0.0,0.0,0.0,0.0,-2.0022,-2.0524,-2.086,-2.0541,-1.9872,-1.9596,-1.9962,-1.9433,-1.8876,-1.8549,0.0,-1.5777,-1.4367,-1.386,-1.3707,-1.3826,-1.5538,-1.7573,-1.9743,-2.251,-2.4569,-2.4995,-2.5928,-2.6534,-2.6398,-2.6607,-2.6592,-2.5758,-2.5155,-2.4946,-2.5476,-2.5219,-2.5468,-2.7143,-2.7206,-2.729,-2.984,-2.1625,-0.8207,-0.1077,0.1372,0.1367,-0.1299,-0.5989,-1.1288,-1.6198,-2.0658,-2.1533,-2.1826,-2.1752,-2.1878,0.0,-2.2391,-2.317,-2.4003,-2.4872,-2.1449,-1.9896,-1.9795,-1.649,-1.395,-1.222,-1.191,-1.1069,-0.9833,-0.9961,-1.0079,-1.0219,-0.8889,-0.8348,-0.8763,-1.0445,-1.1656,-1.2308,-1.5194,-1.6706,-1.678,-1.8984,-2.001,-1.9705,-1.9663,-1.8798,-1.714,-1.6919,-1.6011,-1.4193,-1.3373,-1.2541,-1.1556,0.0,0.0,0.0,0.0,0.0,0.0,0.0,0.0,0.0,0.0,0.0,0.0,0.0,0.0,0.0,-1.6948,0.0,-1.9133,-1.9911,0.0,0.0,0.0,-2.2892,-2.3079,-2.3874,-2.4092,-2.3291,0.0,0.0,-2.327,-2.2731,-2.2224,-2.1668,-2.1162,-2.0538,-1.969,-1.9013,-1.7513,-1.4756,-1.5028,-1.5453,-1.518,-1.6279,-1.8178,-2.0769,-2.2833,-2.4149,-2.4676,-2.5547,-2.5928,-2.5531,-2.611,-2.6461,-2.5733,-2.5564,-2.5609,-2.558,-2.5662,-2.6186,-2.7563,-2.7491,-2.7517,-3.4311,-2.9403,-2.0735,-1.0532,-0.015,0.0113,-0.2696,-0.7753,-1.3175,-1.831,-2.2908,-2.3242,-2.3198,-2.2884,-2.2448,-2.2751,-2.3569,-2.3749,-2.4264,-2.4984,-2.4176,-2.3484,-2.2878,-1.9796,-1.8012,-1.7332,-1.5179,-1.3675,-1.2877,-1.3267,-1.3183,-1.2573,-1.2297,-1.1612,-1.0532,-1.2341,-1.384,-1.4873,-1.7102,-1.8975,-2.0437,-2.1212,-2.1512,-2.1334,-2.0928,-2.017,-1.9041,-1.8184,-1.7072,-1.5702,-1.4514,-1.3423,-1.2439,-1.2605,0.0,0.0,0.0,0.0,0.0,0.0,0.0,0.0,0.0,-1.3816,-1.4079,0.0,-1.6159,0.0,-1.8827,-1.9703,-2.0069,-2.1755,0.0,0.0,-2.4656,-2.5331,-2.4808,-2.5558,-2.5751,-2.4855,-2.4265,-2.3896,-2.3795,-2.3064,-2.2703,-2.306,-2.257,-2.1895,-2.1185,-2.0598,-1.974,-1.8356,-1.8453,-1.8767,-1.8495,-1.9166,-2.0289,-2.1669,-2.2816,-2.3749,-2.4261,-2.4794,-2.5194,-2.5236,-2.5487,-2.5633,-2.5556,-2.5529,-2.5535,-2.5571,-2.6077,-2.6695,-2.7133,-2.7556,-2.8009,-3.7304,-3.3842,-2.6067,-1.6361,-0.5983,-0.2226,-0.2191,-0.5126,-0.9862,-1.4941,-2.0175,-2.3235,-2.4552,-2.4484,-2.4658,-2.5283,-2.6155,-2.6144,-2.657,-2.7333,-2.6988,-2.6851,-2.6798,-2.4446,-2.3003,-2.2341,-1.9653,-1.7757,-1.6666,-1.6347,-1.625,-1.6294,-1.6608,-1.6189,-1.512,-1.5335,-1.561,-1.5877,-1.834,-2.0776,-2.305,-2.3339,-2.3581,-2.3844,-2.4033,-2.3436,-2.1996,-2.1749,-2.0425,-1.7836,-1.703,-1.5599,-1.3322,-1.3827,-1.4074,0.0,0.0,0.0,0.0,0.0,0.0,0.0,0.0,0.0,0.0,0.0,-1.6882,-1.7994,-1.9664,-2.0974,-2.1652,-2.3179,-2.4407,-2.5106,-2.6199,-2.6749,-2.6437,-2.7219,-2.7595,-2.7133,-2.693,-2.6861,-2.697,-2.6179,-2.5722,-2.6067,-2.5374,-2.4328,-2.3052,-2.252,-2.1865,-2.0647,-2.108,-2.1473,-2.1148,-2.1634,-2.2135,-2.2443,-2.2986,-2.357,-2.4024,-2.4433,-2.4799,-2.5053,-2.5244,-2.5378,-2.5437,-2.5762,-2.5983,-2.6142,-2.673,-2.7295,-2.7434,-2.8113,-2.8734,-3.9243,-3.6415,-2.8413,-2.1056,-1.4095,-0.6219,-0.2249,-0.1484,-0.5258,-1.0452,-1.67,-2.2752,-2.5612,-2.6038,-2.7274,-2.8274,-2.9051,-2.9171,-2.9698,-3.0466,-2.9807,-2.9939,-3.0664,-2.9276,-2.8037,-2.6949,-2.4774,-2.2797,-2.1015,-1.9908,-1.978,-2.0553,-2.1022,-2.0969,-2.0437,-1.8992,-1.7794,-1.6867,-1.9842,-2.2585,-2.4974,-2.5363,-2.5901,-2.6633,-2.7639,-2.7234,-2.5286,-2.6009,-2.4561,-2.06,-2.0467,-1.8796,-1.5121,-1.5814,-1.6189,0.0,-1.6475,0.0,0.0,0.0,0.0,0.0,0.0,0.0,0.0,-1.6445,-1.7478,-1.8437,-2.0456,-2.2255,-2.343,-2.4377,-2.5476,-2.6856,-2.7475,-2.7845,-2.8145,-2.9008,-2.9659,-2.9776,-3.0363,-3.08,-3.0701,-3.0107,-2.9476,-2.8929,-2.8174,-2.688,-2.5185,-2.4647,-2.4044,-2.2524,-2.3276,-2.3839,-2.35,-2.3619,-2.3719,-2.3458,-2.3916,-2.4042,-2.4243,-2.4591,-2.4859,-2.4974,-2.5145,-2.5321,-2.538,-2.6044,-2.6564,-2.6638,-2.7401,-2.8067,-2.8094,-2.8551,-2.9186,-4.006,-3.8712,-3.4861,-2.8954,-2.1623,-1.5163,-0.919,-0.4246,-0.7234,-1.353,-2.1798,-2.3996,-2.5418,-2.6323,-2.7881,-2.9046,-2.989,-3.0617,-3.1398,-3.2211,-3.2186,-3.2281,-3.2447,-3.1611,-3.1112,-3.0852,-2.9695,-2.8202,-2.6499,-2.6314,-2.5433,-2.3982,-2.4001,-2.3527,-2.2612,0.0,0.0,0.0,-2.3931,-2.5499,-2.6324,-2.7385,-2.8121,-2.8504,-2.9269,0.0,-2.7628,-2.7769,-2.6886,-2.476,-2.4591,0.0,0.0,0.0,0.0,0.0,0.0,0.0,0.0,0.0,0.0,0.0,-2.2375,-2.119,-1.9285,-2.1063,-2.2475,-2.2801,-2.3577,-2.4287,-2.4875,-2.5641,-2.6368,-2.7109,-2.8673,-2.9742,-2.9936,-3.1337,-3.2375,-3.2366,-3.2006,-3.176,-3.1771,-3.1033,-3.0269,-2.961,-2.9098,-2.8415,-2.7242,-2.6786,-2.6518,-2.6352,-2.6279,-2.6245,-2.6139,-2.5621,-2.5364,-2.5587,-2.6544,-2.6581,-2.5594,-2.551,-2.5446,-2.5143,-2.5087,-2.5288,-2.5379,-2.6015,-2.6738,-2.6632,-2.7933,-2.883,-2.8249,-2.821,-2.8284,-4.0934,0.0,-3.7298,-3.1874,0.0,-1.8555,-1.1373,-0.4097,-0.6686,-1.2994,-2.1619,-2.3457,-2.5583,-2.7902,-2.9347,-3.0457,-3.1268,-3.1764,-3.2263,-3.2732,-3.2897,-3.3214,-3.3683,-3.2943,-3.2829,-3.3219,-3.1948,-3.0884,-3.0046,-2.9521,-2.8922,-2.8216,-2.8129,-2.8009,-2.7853,-2.7808,-2.6718,-2.451,-2.5579,-2.649,-2.7244,-2.837,-2.9345,-3.0081,-3.1314,0.0,0.0,0.0,0.0,0.0,0.0,0.0,0.0,-2.367,0.0,-2.3568,-2.4437,-2.5215,-2.5724,-2.5546,-2.5396,-2.5437,-2.5302,-2.4415,-2.2462,-2.3543,-2.4269,-2.4257,-2.4628,-2.5144,-2.5833,-2.6543,-2.7329,-2.8275,-2.9844,-3.0906,-3.1184,-3.2664,-3.3741,-3.38,-3.3843,-3.3893,-3.3907,-3.3223,-3.2382,-3.1463,-3.0891,-3.021,-2.9284,-2.8492,-2.8184,-2.8759,-2.8775,-2.848,-2.8008,-2.7577,-2.7005,-2.693,-2.7223,-2.7271,-2.658,-2.6622,-2.6673,-2.6359,-2.6393,-2.6499,-2.6598,-2.7234,-2.7978,-2.8501,-2.9582,-3.0375,-2.9986,-2.9605,-2.9148,-4.151,-4.0735,-3.8537,-3.3893,-2.7483,-2.1414,-1.3412,-0.476,0.0,0.0,0.0,-2.3041,-2.6265,-2.9839,-3.1177,-3.226,-3.3052,-3.3358,-3.3578,-3.3722,-3.3875,-3.4351,-3.5068,-3.4501,-3.4588,-3.521,-3.3887,-3.3243,-3.3216,-3.2364,-3.2247,-3.2774,-3.28,-3.3005,-3.3385,-3.2471,-3.0407,-2.7429,-2.6871,-2.7076,-2.7996,-2.9013,-3.0152,-3.1343,-3.3001,-3.3669,-3.3264,-3.4064,-3.3237,-3.0528,-2.9991,-2.8489,-2.5716,-2.5842,-2.6085,-2.6168,-2.6864,-2.7535,-2.8076,-2.7878,-2.7562,-2.7243,-2.7127,-2.6579,-2.5467,-2.5247,-2.5149,-2.506,-2.5274,-2.5796,-2.6571,-2.7281,-2.8147,-2.9383,-3.0817,-3.1757,-3.2019,-3.3548,-3.4661,-3.4824,-3.5457,-3.6047,-3.6014,-3.5498,-3.4793,-3.3867,-3.2829,-3.1817,-3.0777,-2.9734,-2.9435,-3.0081,-3.0344,-3.0372,-2.9741,-2.9447,-2.8984,-2.8364,-2.8021,-2.7741,-2.7677,-2.7813,-2.786,-2.7607,-2.7785,-2.7747,-2.7852,-2.8409,-2.9344,-3.0122,-3.0912,-3.1532,-3.1574,-3.1097,-3.0366,-4.1038,-4.096,-4.0636,-3.8731,-3.5369,-2.8814,-2.023,-1.125,-1.3998,-1.788,-2.2187,-2.4983,-2.8091,-3.1409,-3.3231,-3.4574,-3.5528,-3.6519,-3.7083,-3.7294,-3.7467,-3.7656,-3.7828,-3.7787,-3.7818,-3.7921,-3.7698,-3.762,-3.7647,-3.7496,-3.7522,-3.7576,-3.762,-3.7204,-3.6518,-3.6129,-3.4882,-3.2686,-2.9839,-2.8471,-2.8764,-2.9732,-3.0831,-3.2034,-3.3165,-3.4105,-3.4846,-3.5698,-3.6008,-3.5654,-3.5558,-3.4662,-3.2841,-3.2714,-3.2214,-3.0793,-3.1381,-3.1843,-3.1761,-3.1712,-3.1309,-3.0411,-2.9671,-2.8894,-2.8027,-2.7184,-2.6791,-2.7011,-2.7051,-2.7156,-2.725,-2.7887,-2.8622,-2.9438,-3.1238,-3.2524,-3.2778,-3.442,-3.5577,-3.5624,-3.645,-3.7007,-3.6982,-3.6914,-3.6506,-3.5566,-3.3937,-3.2561,-3.1138,-3.0461,-3.0366,-3.0617,-3.1168,-3.1516,-3.1208,-3.1442,-3.1145,-3.1215,-3.037,-2.9684,-2.9023,-2.9005,-2.8788,-2.8042,-2.8109,-2.8064,-2.8029,-2.8599,-2.9361,-2.9796,-3.0501,-3.0975,-3.1081,-3.0892,-3.0676,-4.2409,-4.2467,-4.2495,-4.0905,-3.7637,-2.7967,-2.0443,-1.5166,-1.6356,-1.8511,-2.1229,-2.4222,-2.8118,-3.2371,-3.3796,-3.5262,-3.674,-3.7464,-3.7896,-3.8067,-3.8255,-3.8393,-3.8505,-3.8951,-3.9184,-3.9238,-3.97,-3.9927,-3.9956,-3.9972,-3.9942,-3.9994,-4.0429,-4.0187,-3.9282,-3.8673,-3.7414,-3.5406,-3.2562,-3.0884,-3.0487,-3.1366,-3.234,-3.346,-3.4528,-3.5514,-3.6479,-3.7352,-3.7879,-3.7993,-3.7555,-3.6957,-3.6253,-3.543,-3.4575,-3.3794,-3.4121,-3.4348,-3.4294,-3.4253,-3.3824,-3.2864,-3.1955,-3.1247,-3.0808,-2.919,-2.7975,-2.7425,-2.77,-2.7918,-2.772,-2.8278,-2.8847,-2.9302,-3.1286,-3.267,-3.3153,-3.4672,-3.5954,-3.6487,-3.7313,-3.7903,-3.7901,-3.8317,-3.7854,-3.6259,-3.4159,-3.2407,-3.1573,-3.0989,-3.0661,-3.0692,-3.0959,-3.1108,-3.1224,-3.159,-3.1778,-3.1802,-3.1935,-3.1574,-3.0868,-3.066,-3.0294,-2.9615,-2.9433,-2.9434,-2.94,-3.007,-3.0729,-3.1379,-3.1911,-3.2277,-3.2092,-3.1712,-3.1261,-4.3641,-4.3712,-4.3683,-4.1802,-3.789,-2.7097,-2.1421,-1.9839,-1.9271,-2.0206,-2.2378,-2.4891,-2.8966,-3.3732,-3.4617,-3.6111,-3.8057,-3.8629,-3.8987,-3.9298,-3.9481,-3.9607,-3.9758,-4.0551,-4.087,-4.082,-4.1562,-4.1882,-4.1693,-4.1482,-4.1617,-4.2043,-4.301,-4.3217,-4.2539,-4.1595,-4.0189,-3.828,-3.5957,-3.3824,-3.2023,-3.2518,-3.329,-3.4348,-3.5361,-3.6483,-3.7585,-3.848,-3.9165,-3.9602,-3.8873,-3.8506,-3.8646,-3.7406,-3.665,-3.6709,-3.6781,-3.6833,-3.6859,-3.6618,-3.6165,-3.5419,-3.4321,-3.3558,-3.314,-3.1432,-2.9736,-2.8577,-2.8709,-2.8778,-2.8675,-2.9087,-2.9563,-3.012,-3.1862,-3.3234,-3.3634,-3.5183,-3.6695,-3.7588,-3.8481,-3.9143,-3.9429,-3.9959,-3.936,-3.697,-3.4472,-3.2975,-3.244,-3.1651,-3.107,-3.0801,-3.0807,-3.101,-3.0959,-3.1631,-3.2095,-3.2116,-3.2714,-3.2744,-3.2362,-3.2265,-3.209,-3.1431,-3.1308,-3.1271,-3.1288,-3.1715,-3.2336,-3.2858,-3.3099,-3.3204,-3.2472,-3.1987,-3.1641,-4.3688,-4.3691,-4.3649,-4.1432,-3.7433,-3.0485,-2.739,-2.7128,-2.5515,-2.6352,-2.8711,-2.9682,-3.2312,-3.6123,-3.6582,-3.8153,-4.0749,-4.1335,-4.1925,-4.2713,-4.3044,-4.3155,-4.3131,-4.4047,-4.4106,-4.3505,-4.4227,-4.427,-4.3606,-4.2789,-4.3105,-4.4656,-4.6254,-4.6833,-4.6691,-4.5793,-4.4472,-4.2795,-4.0781,-3.7335,-3.267,-3.2241,-3.2674,-3.3677,-3.466,-3.5911,-3.7793,-3.8591,-3.9833,-4.1207,-4.0693,-4.052,-4.111,-4.049,-4.0034,-4.0023,-4.0077,-4.0158,-4.0081,-3.9355,-3.8789,-3.8491,-3.7024,-3.5771,-3.4985,-3.402,-3.2949,-3.1826,-3.0795,-3.016,-3.006,-3.0638,-3.1315,-3.202,-3.3465,-3.4656,-3.511,-3.6798,-3.8365,-3.9349,-4.0091,-4.1058,-4.1602,-4.1779,-4.0933,-3.8411,-3.6381,-3.4705,-3.347,-3.2541,-3.1758,-3.1237,-3.1384,-3.1773,-3.1829,-3.2524,-3.2876,-3.3003,-3.3211,-3.3335,-3.327,-3.3223,-3.3166,-3.2754,-3.2923,-3.2846,-3.2883,-3.3145,-3.3173,-3.3354,-3.3134,-3.2427,-3.1387,-3.1286,-3.1449,-4.3647,-4.3635,-4.3567,-4.1895,-3.8527,-3.2268,-2.9918,-3.0383,-2.7668,-2.8401,-3.162,-3.2961,-3.4847,-3.7106,-3.7604,-3.918,-4.1379,-4.1832,-4.2535,-4.3432,-4.3596,-4.368,-4.3824,-4.5151,-4.5559,-4.5398,-4.6632,-4.7104,-4.6677,-4.5854,-4.5536,-4.5715,-4.645,-4.6956,-4.7252,-4.5998,-4.4898,-4.4102,-4.1828,-3.9303,-3.6881,-3.5867,-3.5639,-3.6115,-3.7458,-3.8791,-4.0001,-4.1356,-4.2659,-4.381,-4.3618,-4.3809,-4.467,-4.3476,-4.2742,-4.2771,-4.2325,-4.2048,-4.2024,-4.1574,-4.1054,-4.0481,-3.9696,-3.8688,-3.7412,-3.6554,-3.5854,-3.5244,-3.3091,-3.1497,-3.1337,-3.1486,-3.1842,-3.2359,-3.3639,-3.4774,-3.5117,-3.6853,-3.8431,-3.947,-4.0879,-4.1916,-4.2187,-4.1939,-4.0781,-3.8818,-3.7079,-3.5566,-3.4344,-3.3418,-3.281,-3.2489,-3.2644,-3.2272,-3.1715,-3.2434,-3.3106,-3.3429,-3.419,-3.4724,-3.4205,-3.414,-3.4023,-3.3582,-3.367,-3.3631,-3.33,-3.3849,-3.4122,-3.4075,-3.4035,-3.3535,-3.2931,-3.2966,-3.3282,-4.3563,-4.3481,-4.3158,-4.1893,-3.9744,-3.4802,-3.3113,-3.3571,-3.1091,-3.1708,-3.4542,-3.6213,-3.7503,-3.8423,-3.8646,-3.9868,-4.1851,-4.2315,-4.3257,-4.4476,-4.4721,-4.4899,-4.5252,-4.66,-4.7206,-4.7291,-4.8502,-4.8833,-4.8272,-4.7811,-4.7053,-4.6332,-4.6415,-4.7133,-4.8028,-4.6646,-4.6038,-4.6171,-4.3671,-4.1803,-4.0901,-3.9915,-3.8984,-3.845,-3.9952,-4.1166,-4.1687,-4.3111,-4.4303,-4.5109,-4.5381,-4.5937,-4.6742,-4.5877,-4.5374,-4.537,-4.4814,-4.4429,-4.4369,-4.4231,-4.384,-4.3118,-4.2568,-4.1711,-4.0526,-3.9337,-3.869,-3.8528,-3.6196,-3.4419,-3.3205,-3.2657,-3.2392,-3.2645,-3.389,-3.4827,-3.5684,-3.7376,-3.9119,-4.0378,-4.2082,-4.3113,-4.3195,-4.2427,-4.1055,-3.9868,-3.7814,-3.6033,-3.5173,-3.4315,-3.3684,-3.3453,-3.338,-3.2883,-3.1785,-3.2726,-3.3498,-3.3946,-3.4886,-3.56,-3.5326,-3.5388,-3.5607,-3.5639,-3.5001,-3.4912,-3.541,-3.5683,-3.5331,-3.5176,-3.5213,-3.5103,-3.4215,-3.4537,-3.4741,-4.3525,-4.3246,-4.2165,-4.118,-3.9967,-3.8709,-3.8289,-3.8144,-3.7201,-3.7547,-3.8532,-3.954,-4.0577,-4.1274,-3.9937,-4.0654,-4.3005,-4.3364,-4.4752,-4.693,-4.722,-4.7806,-4.8708,-4.9531,-4.9489,-4.8769,-4.9687,-4.9043,-4.6933,-4.7292,-4.7028,-4.6286,-4.7027,-4.8535,-5.0158,-4.9046,-4.9077,-4.9702,-4.7133,-4.5235,-4.4374,-4.3617,-4.1966,-3.9943,-4.104,-4.2009,-4.2091,-4.2803,-4.3701,-4.4412,-4.5342,-4.6071,-4.6781,-4.753,-4.7895,-4.7817,-4.7722,-4.7645,-4.7568,-4.7305,-4.7129,-4.6877,-4.5388,-4.4518,-4.3918,-4.2256,-4.117,-4.1236,-4.0113,-3.8575,-3.643,-3.4796,-3.4024,-3.4499,-3.4699,-3.5628,-3.7107,-3.8839,-4.0918,-4.2473,-4.3673,-4.4498,-4.5513,-4.3856,-4.2405,-4.1296,-3.9195,-3.6962,-3.6074,-3.5206,-3.4505,-3.3852,-3.358,-3.3356,-3.3282,-3.3893,-3.4419,-3.4828,-3.547,-3.6281,-3.674,-3.7166,-3.7503,-3.7866,-3.7861,-3.7926,-3.8104,-3.7775,-3.7053,-3.6823,-3.6962,-3.6658,-3.576,-3.5015,-3.5304,-4.3323,-4.3027,-4.2486,-4.1969,-4.1494,-4.0568,-4.0227,-4.0205,-3.9531,-3.9792,-4.0654,-4.123,-4.1953,-4.2763,-4.2232,-4.279,-4.4125,-4.4334,-4.552,-4.7362,-4.7572,-4.8035,-4.8865,-4.9685,-4.9988,-4.991,-5.1068,-5.1023,-4.9742,-4.9748,-4.9353,-4.8623,-4.8681,-4.9794,-5.116,-5.0523,-5.0278,-5.0604,-4.8623,-4.6892,-4.5677,-4.5356,-4.4413,-4.289,-4.3408,-4.3763,-4.3699,-4.5034,-4.6104,-4.6847,-4.7687,-4.8756,-4.9894,-4.9875,-4.924,-4.8259,-4.8068,-4.8048,-4.7986,-4.784,-4.7709,-4.7542,-4.6929,-4.595,-4.5003,-4.4066,-4.3232,-4.2276,-4.1474,-4.0453,-3.968,-3.8018,-3.6812,-3.6578,-3.6964,-3.7433,-3.8347,-3.9564,-4.0924,-4.2318,-4.3773,-4.4793,-4.4448,-4.3743,-4.258,-4.0976,-3.963,-3.8313,-3.7114,-3.6463,-3.5956,-3.5298,-3.5067,-3.5049,-3.5032,-3.5171,-3.5515,-3.5885,-3.6456,-3.7358,-3.8013,-3.8569,-3.8961,-3.9403,-3.9845,-4.009,-3.9939,-3.992,-3.9136,-3.8707,-3.8846,-3.86,-3.7458,-3.7401,-3.7539,-4.3119,-4.285,-4.2637,-4.2443,-4.2243,-4.1661,-4.142,-4.1442,-4.115,-4.1421,-4.2118,-4.2665,-4.326,-4.3831,-4.4227,-4.4648,-4.5085,-4.502,-4.5835,-4.7434,-4.7831,-4.8415,-4.9263,-5.0087,-5.0484,-5.063,-5.163,-5.1882,-5.1339,-5.0864,-5.0331,-4.9698,-4.9601,-5.0516,-5.1964,-5.1546,-5.1257,-5.1288,-5.0085,-4.8554,-4.7386,-4.7084,-4.669,-4.6093,-4.605,-4.5748,-4.5237,-4.6268,-4.7197,-4.7926,-4.8769,-5.0101,-5.1702,-5.1472,-5.0741,-4.9875,-4.9779,-4.972,-4.9597,-4.9302,-4.9037,-4.8857,-4.8232,-4.727,-4.5935,-4.5556,-4.4725,-4.357,-4.2911,-4.2531,-4.2063,-4.1145,-3.9813,-3.8381,-3.8058,-3.838,-3.8917,-3.985,-4.1042,-4.2404,-4.3633,-4.4079,-4.3694,-4.3162,-4.2057,-4.0368,-3.9821,-3.8803,-3.7921,-3.7614,-3.7493,-3.6913,-3.6501,-3.6355,-3.6381,-3.6554,-3.6557,-3.686,-3.7395,-3.833,-3.9271,-3.9867,-4.0462,-4.092,-4.1324,-4.1589,-4.1752,-4.181,-4.1439,-4.0834,-4.0952,-4.098,-4.0437,-4.0242,-4.0127,-4.3,-4.291,-4.2544,-4.2536,-4.2454,-4.2397,-4.2308,-4.2465,-4.2654,-4.2889,-4.3288,-4.4103,-4.4579,-4.4927,-4.5598,-4.6063,-4.6076,-4.5574,-4.6049,-4.7452,-4.8236,-4.9118,-5.01,-5.0805,-5.139,-5.1554,-5.1415,-5.1385,-5.1404,-5.0746,-5.0192,-4.9753,-4.9888,-5.1241,-5.3278,-5.2781,-5.2627,-5.2953,-5.1992,-5.0724,-4.9823,-4.9078,-4.8691,-4.8673,-4.8587,-4.7764,-4.6245,-4.6325,-4.6834,-4.7392,-4.8257,-4.9693,-5.1754,-5.2085,-5.2357,-5.2723,-5.2973,-5.3009,-5.2773,-5.1976,-5.1408,-5.1181,-5.0007,-4.8824,-4.79,-4.7058,-4.6231,-4.5437,-4.5,-4.4649,-4.397,-4.365,-4.2393,-3.9558,-3.8371,-3.8255,-3.9225,-4.0112,-4.1325,-4.2917,-4.3596,-4.3656,-4.3348,-4.2522,-4.1482,-4.1007,-3.993,-3.8896,-3.8608,-3.8517,-3.8498,-3.8216,-3.7686,-3.7246,-3.7539,-3.7832,-3.776,-3.7808,-3.8404,-3.918,-4.0233,-4.0998,-4.1798,-4.2373,-4.3236,-4.3517,-4.3365,-4.3404,-4.3189,-4.2818,-4.3138,-4.3001,-4.2419,-4.1967,-4.2143,-4.4556,-4.4369,-4.4235,-4.4094,-4.3945,-4.402,-4.4094,-4.4189,-4.441,-4.4556,-4.4726,-4.5112,-4.5665,-4.6239,-4.6668,-4.7112,-4.7617,-4.7407,-4.7358,-4.7434,-4.7726,-4.8963,-5.0549,-5.1094,-5.2154,-5.3565,-5.379,-5.3379,-5.2854,-5.284,-5.2683,-5.2204,-5.2466,-5.3766,-5.5535,-5.5481,-5.5544,-5.573,-5.492,-5.3542,-5.1848,-5.0814,-5.0382,-5.0329,-4.9391,-4.8473,-4.8033,-4.8528,-4.8633,-4.8296,-4.9604,-5.092,-5.2008,-5.2696,-5.3087,-5.3282,-5.334,-5.3282,-5.3183,-5.2911,-5.2634,-5.2445,-5.1892,-5.1228,-5.0316,-4.9346,-4.8428,-4.7567,-4.7011,-4.6396,-4.6118,-4.5647,-4.4276,-4.1886,-4.1225,-4.1025,-4.1737,-4.2291,-4.2474,-4.261,-4.3227,-4.3631,-4.3556,-4.2624,-4.2104,-4.1978,-4.1019,-4.0164,-3.9616,-3.9526,-3.9078,-3.8598,-3.822,-3.8096,-3.8287,-3.8678,-3.8932,-3.916,-3.972,-4.0255,-4.1244,-4.2229,-4.3049,-4.3825,-4.4703,-4.5074,-4.4957,-4.482,-4.4567,-4.443,-4.4356,-4.4005,-4.3517,-4.3392,-4.3451,-4.5281,-4.5151,-4.508,-4.4943,-4.484,-4.4938,-4.4991,-4.516,-4.56,-4.5839,-4.5956,-4.6337,-4.6831,-4.7323,-4.7449,-4.7786,-4.828,-4.8269,-4.7994,-4.7695,-4.805,-4.9253,-5.0972,-5.1722,-5.2867,-5.4366,-5.4429,-5.4133,-5.3834,-5.4188,-5.4257,-5.405,-5.4705,-5.5771,-5.7191,-5.7287,-5.7267,-5.7016,-5.6231,-5.5036,-5.3539,-5.2482,-5.2018,-5.1852,-5.0816,-5.0211,-5.02,-5.0478,-5.0158,-4.9678,-5.0782,-5.1955,-5.2715,-5.3503,-5.4058,-5.4318,-5.4379,-5.4361,-5.4169,-5.3609,-5.3376,-5.3382,-5.2851,-5.2188,-5.1486,-5.0659,-4.9714,-4.8846,-4.7799,-4.7231,-4.7089,-4.6788,-4.5818,-4.4684,-4.3995,-4.3995,-4.4172,-4.4318,-4.4217,-4.4036,-4.4301,-4.4518,-4.4431,-4.3887,-4.3356,-4.3222,-4.2578,-4.193,-4.1289,-4.0983,-4.0396,-3.9779,-3.9331,-3.9195,-3.902,-3.9435,-4.0046,-4.0559,-4.1103,-4.162,-4.2362,-4.3368,-4.4259,-4.4848,-4.5625,-4.5738,-4.566,-4.5767,-4.5665,-4.5611,-4.5338,-4.4968,-4.4495,-4.4417,-4.4317,-4.5281,-4.5275,-4.5205,-4.519,-4.5162,-4.5308,-4.5392,-4.5442,-4.6273,-4.6664,-4.6877,-4.7415,-4.7953,-4.8106,-4.8145,-4.8316,-4.8334,-4.8433,-4.8394,-4.851,-4.9007,-5.0002,-5.1022,-5.2643,-5.3917,-5.4458,-5.3976,-5.3819,-5.4158,-5.4399,-5.4666,-5.5161,-5.5944,-5.7079,-5.7877,-5.8144,-5.7911,-5.7524,-5.6629,-5.5845,-5.4959,-5.4044,-5.3538,-5.3476,-5.2708,-5.2216,-5.2045,-5.1562,-5.0954,-5.0465,-5.1522,-5.2552,-5.3526,-5.4421,-5.5128,-5.5717,-5.5971,-5.5821,-5.5497,-5.4342,-5.3745,-5.4145,-5.2986,-5.1866,-5.1771,-5.1004,-5.0144,-4.9346,-4.8261,-4.7514,-4.7489,-4.7427,-4.7315,-4.7288,-4.6254,-4.5726,-4.5794,-4.5899,-4.5715,-4.5748,-4.598,-4.609,-4.5948,-4.5332,-4.4987,-4.4855,-4.4216,-4.352,-4.322,-4.2694,-4.2424,-4.1753,-4.0908,-4.0545,-4.0461,-4.039,-4.1006,-4.1738,-4.2233,-4.2661,-4.3161,-4.4081,-4.5026,-4.5679,-4.6128,-4.6264,-4.6275,-4.6234,-4.6189,-4.5975,-4.576,-4.5649,-4.5351,-4.5013,-4.454,-4.5106,-4.5205,-4.5792,-4.6054,-4.6126,-4.6729,-4.6641,-4.6307,-4.7073,-4.7116,-4.6969,-4.7564,-4.8288,-4.8728,-4.889,-4.9217,-4.9578,-4.9748,-4.9743,-4.9698,-4.9782,-5.0489,-5.1792,-5.3853,-5.5025,-5.5135,-5.4908,-5.4668,-5.4183,-5.48,-5.5173,-5.5248,-5.6305,-5.7447,-5.8642,-5.8917,-5.9236,-5.9479,-5.8774,-5.792,-5.703,-5.5726,-5.4863,-5.4274,-5.3549,-5.2926,-5.2438,-5.1758,-5.1338,-5.1107,-5.1351,-5.2311,-5.3643,-5.4615,-5.5423,-5.5991,-5.6132,-5.6102,-5.5797,-5.4935,-5.4456,-5.44,-5.3435,-5.2813,-5.2644,-5.1739,-5.1078,-5.0532,-4.9683,-4.8965,-4.8942,-4.8926,-4.906,-4.9131,-4.8006,-4.7108,-4.6835,-4.6675,-4.6565,-4.6064,-4.6144,-4.6542,-4.6795,-4.6454,-4.6083,-4.6289,-4.5596,-4.463,-4.4578,-4.4044,-4.3585,-4.3296,-4.2689,-4.2247,-4.1933,-4.1749,-4.2042,-4.2836,-4.327,-4.3447,-4.3859,-4.4375,-4.5245,-4.6023,-4.6328,-4.6513,-4.6333,-4.6208,-4.6176,-4.6235,-4.6059,-4.5838,-4.5292,-4.4857,-4.4323,-4.5756,-4.6233,-4.6748,-4.6957,-4.6957,-4.7095,-4.6851,-4.6641,-4.7285,-4.7461,-4.7293,-4.8285,-4.8982,-4.9415,-4.9892,-5.0107,-5.025,-5.0569,-5.0653,-5.0703,-5.1168,-5.1657,-5.2514,-5.4339,-5.5339,-5.5364,-5.5408,-5.5071,-5.4766,-5.5428,-5.595,-5.6469,-5.7221,-5.8364,-5.9603,-5.9764,-5.9982,-6.0284,-5.9735,-5.8897,-5.8064,-5.684,-5.5833,-5.5035,-5.4265,-5.3553,-5.2933,-5.2596,-5.2148,-5.1757,-5.2049,-5.2885,-5.3787,-5.5011,-5.5814,-5.629,-5.6246,-5.6193,-5.5986,-5.5269,-5.474,-5.4458,-5.3745,-5.3259,-5.2861,-5.2126,-5.1484,-5.1209,-5.0326,-4.9816,-4.9711,-4.9721,-4.9843,-4.9841,-4.9291,-4.869,-4.8375,-4.8508,-4.8328,-4.8005,-4.7975,-4.8125,-4.8643,-4.7926,-4.7824,-4.7843,-4.7172,-4.6569,-4.6236,-4.5432,-4.4812,-4.4621,-4.4198,-4.367,-4.3405,-4.3227,-4.3615,-4.4348,-4.4953,-4.4982,-4.4741,-4.5039,-4.5592,-4.6303,-4.6546,-4.6729,-4.6699,-4.6597,-4.6461,-4.6441,-4.6258,-4.5851,-4.5317,-4.4977,-4.4404,-4.6852,-4.7705,-4.7971,-4.8029,-4.7872,-4.7224,-4.702,-4.6706,-4.7467,-4.7688,-4.7896,-4.928,-4.9898,-5.0041,-5.0859,-5.0962,-5.0161,-5.074,-5.0894,-5.1336,-5.2102,-5.2881,-5.2958,-5.4468,-5.5294,-5.5396,-5.5274,-5.532,-5.5385,-5.6022,-5.6736,-5.7213,-5.8165,-5.9128,-5.9614,-6.0026,-6.036,-6.0403,-6.0104,-5.9537,-5.879,-5.7799,-5.6851,-5.6041,-5.4861,-5.422,-5.3805,-5.3591,-5.3071,-5.1734,-5.3238,-5.3984,-5.4317,-5.5621,-5.6281,-5.6369,-5.6345,-5.6317,-5.6142,-5.5389,-5.4755,-5.455,-5.3822,-5.3146,-5.2708,-5.2016,-5.1452,-5.1076,-5.0289,-4.9797,-4.9769,-4.9797,-4.9862,-4.9959,-4.9987,-5.0144,-5.0348,-5.0504,-5.0567,-5.0606,-5.0625,-5.07,-5.0527,-5.0142,-4.9547,-4.917,-4.8491,-4.7948,-4.755,-4.7004,-4.651,-4.621,-4.5657,-4.4988,-4.4813,-4.4706,-4.5332,-4.6015,-4.6737,-4.6855,-4.6014,-4.61,-4.6312,-4.6649,-4.6878,-4.7209,-4.7505,-4.731,-4.7077,-4.6978,-4.7004,-4.6185,-4.5347,-4.5231,-4.4827,-4.7167,-4.7625,-4.967,-5.0081,-4.9572,-4.9803,-4.9079,-4.7749,-4.8461,-4.8318,-4.8375,-4.9713,-5.039,-5.0503,-5.1469,-5.1479,-5.0625,-5.0832,-5.084,-5.0847,-5.2315,-5.3399,-5.4011,-5.5252,-5.5792,-5.5909,-5.6045,-5.6074,-5.6083,-5.5813,-5.5962,-5.6832,-5.7336,-5.763,-5.8593,-5.9434,-5.9797,-6.034,-6.077,-6.0827,-6.033,-5.9144,-5.8106,-5.733,-5.5668,-5.4689,-5.4384,-5.3926,-5.353,-5.362,-5.4297,-5.4972,-5.5037,-5.5872,-5.6372,-5.6336,-5.6369,-5.6356,-5.6149,-5.5491,-5.4839,-5.4626,-5.3917,-5.2955,-5.2113,-5.1848,-5.1185,-5.0506,-4.991,-4.974,-4.974,-4.9778,-4.9843,-4.9952,-5.0031,-5.0057,-5.0182,-5.0306,-5.0459,-5.0502,-5.0584,-5.0624,-5.0605,-5.045,-5.0201,-5.0201,-4.9779,-4.9183,-4.8777,-4.8405,-4.7998,-4.7552,-4.7326,-4.6714,-4.632,-4.6328,-4.6882,-4.7361,-4.803,-4.8186,-4.735,-4.6897,-4.7045,-4.7138,-4.7211,-4.7622,-4.8174,-4.8218,-4.8005,-4.7915,-4.7727,-4.7099,-4.6485,-4.6007,-4.5244,-4.8022,-4.8704,-5.0003,-5.0166,-4.9655,-4.9488,-4.8802,-4.7942,-4.8088,-4.8274,-4.8565,-4.9765,-5.0561,-5.1009,-5.1903,-5.1935,-5.1185,-5.102,-5.1006,-5.1236,-5.23,-5.3358,-5.4471,-5.5772,-5.6576,-5.6658,-5.6812,-5.6749,-5.6359,-5.611,-5.6362,-5.7088,-5.7179,-5.8123,-5.8926,-5.9434,-6.0207,-6.0752,-6.0943,-6.1039,-6.0809,-5.9824,-5.8814,-5.8103,-5.6629,-5.5808,-5.5788,-5.5176,-5.4905,-5.5045,-5.545,-5.539,-5.505,-5.5819,-5.6231,-5.5957,-5.6251,-5.6349,-5.6166,-5.5844,-5.5281,-5.4738,-5.4185,-5.3398,-5.25,-5.1944,-5.1337,-5.0658,-5.0099,-4.9692,-4.9663,-4.975,-4.9862,-4.9925,-4.9997,-5.0005,-5.0057,-5.0182,-5.0255,-5.0302,-5.0325,-5.0348,-5.0329,-5.0374,-5.0333,-5.016,-5.0176,-4.966,-4.9682,-4.9329,-4.9048,-4.8756,-4.881,-4.8496,-4.7975,-4.7972,-4.8394,-4.8709,-4.9003,-4.8808,-4.8132,-4.7827,-4.7639,-4.7801,-4.8011,-4.8416,-4.8856,-4.8889,-4.8798,-4.8368,-4.8101,-4.7979,-4.7758,-4.7259,-4.6301,-4.8926,-4.9862,-4.9937,-4.9789,-4.927,-4.8468,-4.7898,-4.7427,-4.7297,-4.7848,-4.8623,-4.9677,-5.062,-5.1436,-5.2474,-5.2307,-5.1714,-5.1417,-5.1491,-5.1695,-5.2567,-5.3552,-5.4666,-5.6052,-5.7192,-5.7491,-5.7666,-5.7395,-5.7111,-5.6804,-5.7069,-5.7772,-5.7863,-5.8322,-5.9595,-6.0177,-6.0406,-6.1,-6.1172,-6.1134,-6.0962,-6.0177,-5.9319,-5.8146,-5.7627,-5.7154,-5.7081,-5.6728,-5.6478,-5.6524,-5.6605,-5.5847,-5.5271,-5.5517,-5.6241,-5.5494,-5.6086,-5.6319,-5.6321,-5.6154,-5.5746,-5.4909,-5.463,-5.4148,-5.3245,-5.2241,-5.1631,-5.1239,-5.0743,-5.0164,-5.0011,-5.0203,-5.027,-5.0372,-5.0388,-5.0282,-5.0168,-5.0202,-5.0285,-5.0089,-5.0158,-5.0182,-5.0158,-5.0163,-5.0133,-5.0146,-5.0196,-5.0222,-5.0209,-5.0302,-5.0026,-4.9999,-5.0067,-5.0156,-4.9711,-4.9187,-4.9664,-4.9854,-5.0042,-4.9624,-4.908,-4.874,-4.8574,-4.8701,-4.8943,-4.9295,-4.9588,-4.9741,-4.9447,-4.8845,-4.8817,-4.9039,-4.8833,-4.8451,-4.7432,-4.9252,-4.96,-5.0898,-5.0819,-4.9819,-4.9325,-4.8504,-4.7702,-4.7487,-4.794,-4.8847,-4.9898,-5.0867,-5.1761,-5.285,-5.2897,-5.2192,-5.1987,-5.2063,-5.2288,-5.3051,-5.3944,-5.4949,-5.6187,-5.7299,-5.8131,-5.8388,-5.8384,-5.8196,-5.7958,-5.7766,-5.7905,-5.797,-5.8353,-5.8727,-5.8994,-5.9988,-6.0962,-6.1612,-6.207,-6.2032,-6.1353,-6.0116,-5.8615,-5.8216,-5.8091,-5.8079,-5.8065,-5.8047,-5.8099,-5.8176,-5.7643,-5.687,-5.66,-5.6444,-5.63,-5.6406,-5.6636,-5.6576,-5.6287,-5.6043,-5.5611,-5.4979,-5.4449,-5.3675,-5.2469,-5.1744,-5.1773,-5.1537,-5.1261,-5.18,-5.1376,-5.1509,-5.1746,-5.1727,-5.1509,-5.1008,-5.0828,-5.0694,-5.0434,-5.0271,-5.0031,-5.0031,-5.0031,-5.0031,-5.024,-5.0563,-5.0494,-5.0406,-5.0767,-5.1056,-5.1147,-5.1331,-5.1446,-5.1414,-5.0829,-5.0674,-5.0797,-5.0879,-5.0701,-5.0177,-4.9705,-4.9569,-5.0052,-5.0001,-4.9976,-5.024,-5.0571,-5.0501,-5.0175,-5.0199,-5.024,-4.9605,-4.9029,-4.8856,-4.9244,-4.9364,-5.0004,-4.9748,-4.901,-4.8601,-4.8067,-4.7445,-4.7698,-4.8353,-4.9289,-5.0351,-5.1326,-5.2174,-5.2767,-5.2734,-5.2265,-5.214,-5.222,-5.2488,-5.2976,-5.3721,-5.4818,-5.5943,-5.6851,-5.7702,-5.8369,-5.8848,-5.8802,-5.8578,-5.8453,-5.8462,-5.8479,-5.8697,-5.9147,-5.9663,-6.0198,-6.1058,-6.1803,-6.249,-6.2777,-6.208,-6.0748,-5.9792,-5.8985,-5.8822,-5.8731,-5.8357,-5.8248,-5.8273,-5.8355,-5.8201,-5.7942,-5.7657,-5.7275,-5.7088,-5.7256,-5.7496,-5.7368,-5.7102,-5.6671,-5.6348,-5.5283,-5.4441,-5.3757,-5.2584,-5.1638,-5.1604,-5.2008,-5.1941,-5.2208,-5.2143,-5.2105,-5.2266,-5.237,-5.2122,-5.1703,-5.1609,-5.1347,-5.096,-5.0513,-5.0199,-4.9978,-4.9978,-4.9959,-5.0301,-5.0852,-5.0859,-5.0741,-5.1142,-5.1675,-5.1711,-5.184,-5.2142,-5.2252,-5.201,-5.1587,-5.1681,-5.1754,-5.157,-5.1579,-5.1227,-5.148,-5.1948,-5.1654,-5.1048,-5.1312,-5.1769,-5.1623,-5.1434,-5.1202,-5.0856,-5.0144,-4.9644,-4.9375,-4.9325,-4.934,-4.9194,-4.8898,-4.8429,-4.8048,-4.768,-4.739,-4.7843,-4.8568,-4.9543,-5.0497,-5.1484,-5.23,-5.2626,-5.2503,-5.2066,-5.2357,-5.2766,-5.304,-5.3553,-5.4055,-5.4742,-5.5736,-5.6842,-5.7328,-5.8597,-5.9026,-5.9152,-5.9196,-5.9235,-5.9274,-5.9281,-5.9595,-6.0179,-6.0198,-6.0867,-6.1153,-6.1593,-6.2051,-6.2471,-6.2108,-6.1464,-6.0827,-6.0003,-5.9569,-5.9517,-5.9139,-5.888,-5.8822,-5.8831,-5.88,-5.885,-5.8852,-5.8607,-5.828,-5.8525,-5.8587,-5.8422,-5.7965,-5.7333,-5.6865,-5.5445,-5.4637,-5.3894,-5.2867,-5.1783,-5.146,-5.2224,-5.2859,-5.3089,-5.2881,-5.29,-5.2908,-5.2927,-5.2696,-5.2454,-5.2309,-5.2239,-5.1706,-5.0894,-5.0732,-5.0835,-5.051,-5.0624,-5.1087,-5.1619,-5.1684,-5.1604,-5.1656,-5.1955,-5.1973,-5.2117,-5.2552,-5.2755,-5.2858,-5.254,-5.2448,-5.2549,-5.2512,-5.276,-5.2949,-5.3152,-5.3081,-5.2965,-5.2492,-5.2749,-5.2737,-5.2473,-5.2202,-5.197,-5.1525,-5.0872,-5.0123,-4.9642,-4.9879,-4.9861,-5.0144,-5.0089,-4.9673,-4.9223,-4.8621,-4.7963,-4.7992,-4.84,-4.9363,-4.9769,-5.0865,-5.1932,-5.2499,-5.267,-5.3054,-5.3555,-5.3976,-5.4352,-5.515,-5.5716,-5.6314,-5.7538,-5.7393,-5.7612,-5.8976,-5.9766,-5.9855,-5.9897,-5.9957,-6.0027,-5.9989,-6.0236,-6.0332,-6.0389,-6.0427,-6.0656,-6.1268,-6.2032,-6.2567,-6.2108,-6.1762,-6.1291,-6.0782,-6.031,-6.0271,-6.0048,-6.0048,-6.0105,-6.0201,-6.0309,-6.0402,-6.0445,-6.0496,-6.007,-5.9437,-5.8546,-5.8645,-5.8394,-5.7944,-5.722,-5.5864,-5.4893,-5.3784,-5.3308,-5.257,-5.2275,-5.344,-5.4151,-5.4114,-5.4417,-5.45,-5.4326,-5.4056,-5.3698,-5.3389,-5.3195,-5.3107,-5.2904,-5.2237,-5.2182,-5.2229,-5.1735,-5.141,-5.1912,-5.2292,-5.2384,-5.2372,-5.2367,-5.2571,-5.2621,-5.2513,-5.2891,-5.3623,-5.3666,-5.3575,-5.3345,-5.344,-5.3507,-5.3743,-5.3938,-5.3703,-5.364,-5.366,-5.3737,-5.3721,-5.3552,-5.3243,-5.2892,-5.254,-5.2113,-5.1631,-5.0826,-4.9733,-5.045,-5.0372,-5.0341,-5.0166,-4.9875,-4.9442,-4.9061,-4.8821,-4.9075,-4.943,-4.988,-5.0235,-5.0901,-5.1744,-5.2264,-5.2953,-5.3569,-5.4252,-5.4809,-5.5447,-5.6156,-5.6612,-5.6687,-5.7279,-5.7435,-5.8216,-5.9143,-6.0183,-6.038,-6.0254,-6.0106,-6.0254,-6.0256,-6.0218,-6.0465,-6.0408,-6.0389,-6.0771,-6.1535,-6.2204,-6.2242,-6.2233,-6.1936,-6.1056,-6.0663,-6.0537,-6.0499,-6.0499,-6.0499,-6.0499,-6.0525,-6.0559,-6.0635,-6.0666,-6.0714,-6.0727,-6.0214,-5.9832,-5.9777,-5.9271,-5.8642,-5.7815,-5.6352,-5.4402,-5.2992,-5.2463,-5.2323,-5.1661,-5.3224,-5.4164,-5.4427,-5.4644,-5.4742,-5.4736,-5.4673,-5.4406,-5.4072,-5.4169,-5.4044,-5.3811,-5.3626,-5.3516,-5.329,-5.2741,-5.2341,-5.252,-5.2973,-5.3217,-5.3079,-5.2883,-5.3137,-5.3511,-5.332,-5.3206,-5.4148,-5.4727,-5.465,-5.4503,-5.458,-5.4652,-5.4677,-5.4685,-5.4458,-5.465,-5.4977,-5.4939,-5.4689,-5.4554,-5.4397,-5.3774,-5.305,-5.2414,-5.1683,-5.0262,-4.9305,-5.0857,-5.0877,-5.078,-5.0606,-5.0397,-5.0002,-4.9719,-4.955,-5.0044,-5.0311,-5.057,-5.1179,-5.1715,-5.2082,-5.2926,-5.3754,-5.4346,-5.4883,-5.5515,-5.621,-5.6846,-5.7246,-5.7529,-5.7676,-5.8,-5.8408,-5.9318,-6.0113,-6.0513,-6.0653,-6.057,-6.0738,-6.1065,-6.0838,-6.0724,-6.0752,-6.0733,-6.0523,-6.1717,-6.208,-6.186,-6.2223,-6.1726,-6.1058,-6.0542,-6.0389,-6.0389,-6.0417,-6.0417,-6.0761,-6.0827,-6.0958,-6.1115,-6.1371,-6.1384,-6.144,-6.1209,-6.1146,-6.0671,-6.0013,-5.9388,-5.8209,-5.6587,-5.4063,-5.2634,-5.1874,-5.1939,-5.2106,-5.331,-5.4012,-5.4124,-5.4595,-5.4673,-5.4705,-5.4608,-5.4491,-5.4405,-5.4425,-5.4414,-5.4277,-5.4207,-5.4489,-5.417,-5.3651,-5.3366,-5.328,-5.3552,-5.391,-5.3734,-5.3448,-5.3391,-5.3702,-5.376,-5.3588,-5.4218,-5.4982,-5.5174,-5.5409,-5.5451,-5.5446,-5.5266,-5.5355,-5.5323,-5.5653,-5.5924,-5.5731,-5.5229,-5.542,-5.5511,-5.4636,-5.3724,-5.2564,-5.1484,-5.0084,-4.9296,-5.0981,-5.1482,-5.1891,-5.1921,-5.1796,-5.1547,-5.0883,-5.0311,-5.0446,-5.0548,-5.0771,-5.2228,-5.3044,-5.3541,-5.3997,-5.4683,-5.5204,-5.6334,-5.6793,-5.7357,-5.8148,-5.8478,-5.8615,-5.8764,-5.894,-5.8744,-5.9564,-6.0075,-6.0431,-6.1394,-6.1811,-6.2456,-6.2239,-6.2012,-6.1659,-6.1363,-6.0943,-6.0714,-6.143,-6.1736,-6.1554,-6.1688,-6.1593,-6.1344,-6.0771,-6.0389,-6.0408,-6.0599,-6.0924,-6.1497,-6.1564,-6.1687,-6.1934,-6.2276,-6.231,-6.2221,-6.2202,-6.2023,-6.1383,-6.0233,-5.8974,-5.7621,-5.5938,-5.4185,-5.3316,-5.3451,-5.3518,-5.3385,-5.4116,-5.4646,-5.4739,-5.481,-5.4956,-5.4861,-5.4764,-5.4491,-5.4458,-5.4472,-5.4482,-5.4552,-5.4635,-5.478,-5.4841,-5.4267,-5.4183,-5.4097,-5.4017,-5.4364,-5.4263,-5.397,-5.3588,-5.3645,-5.3874,-5.3989,-5.418,-5.4677,-5.5231,-5.5409,-5.5446,-5.5476,-5.547,-5.5638,-5.6013,-5.5862,-5.5961,-5.5884,-5.5806,-5.5728,-5.5551,-5.5176,-5.4281,-5.2794,-5.1553,-5.0321,-4.9892,-5.0999,-5.1515,-5.104,-5.1009,-5.1383,-5.1643,-5.1579,-5.1329,-5.1423,-5.1281,-5.1063,-5.2221,-5.2886,-5.3354,-5.4045,-5.5094,-5.6145,-5.6779,-5.7433,-5.8034,-5.8654,-5.8926,-5.9101,-5.9234,-5.9286,-5.9333,-6.0059,-6.1041,-6.1787,-6.2224,-6.3397,-6.3909,-6.3356,-6.2775,-6.2328,-6.1745,-6.1105,-6.0771,-6.1039,-6.1402,-6.0981,-6.1363,-6.1382,-6.0809,-6.1287,-6.1096,-6.123,-6.1707,-6.2051,-6.2299,-6.2433,-6.2614,-6.2748,-6.3072,-6.3023,-6.2755,-6.2678,-6.221,-6.1685,-6.0472,-5.9209,-5.7153,-5.5668,-5.4573,-5.4082,-5.3533,-5.3506,-5.3821,-5.4553,-5.5102,-5.5492,-5.5536,-5.5511,-5.5282,-5.5013,-5.4754,-5.4683,-5.4848,-5.4731,-5.4839,-5.4786,-5.481,-5.4841,-5.4825,-5.4876,-5.4914,-5.4817,-5.4752,-5.4728,-5.4562,-5.4218,-5.3951,-5.4161,-5.4352,-5.4543,-5.4944,-5.5403,-5.5409,-5.544,-5.5509,-5.5657,-5.6284,-5.6527,-5.6282,-5.619,-5.6344,-5.6286,-5.5941,-5.5628,-5.5369,-5.4207,-5.2602,-5.1476,-5.0503,-5.0245,-5.1091,-5.1133,-5.0578,-5.0533,-5.1016,-5.1413,-5.1759,-5.1987,-5.2084,-5.2022,-5.1701,-5.2415,-5.2898,-5.3362,-5.4446,-5.5432,-5.6665,-5.7346,-5.7925,-5.8392,-5.8747,-5.8984,-5.9063,-5.9215,-5.9455,-5.9731,-6.0232,-6.1065,-6.204,-6.3067,-6.3828,-6.4188,-6.4142,-6.3588,-6.2576,-6.1812,-6.0856,-6.0389,-6.0714,-6.1039,-6.0542,-6.0867,-6.1077,-6.0618,-6.1134,-6.1478,-6.1707,-6.2185,-6.2873,-6.3169,-6.337,-6.3513,-6.3657,-6.3695,-6.357,-6.3206,-6.2795,-6.227,-6.1562,-6.0234,-5.8811,-5.6885,-5.5847,-5.5019,-5.4383,-5.3739,-5.4028,-5.4239,-5.4943,-5.5576,-5.6084,-5.616,-5.6252,-5.6135,-5.5932,-5.5657,-5.5604,-5.5642,-5.5319,-5.5145,-5.5126,-5.5114,-5.4848,-5.4947,-5.5369,-5.5513,-5.5663,-5.563,-5.5644,-5.5403,-5.4963,-5.4696,-5.4581,-5.4753,-5.4906,-5.546,-5.5861,-5.5562,-5.5613,-5.5662,-5.5926,-5.6587,-5.6925,-5.6665,-5.6667,-5.6898,-5.7016,-5.6958,-5.6357,-5.5698,-5.421,-5.2609,-5.1676,-5.0779,-5.0345,-5.131,-5.0446,-5.0931,-5.1085,-5.0984,-5.098,-5.1401,-5.1922,-5.2137,-5.2278,-5.2454,-5.3299,-5.3708,-5.4109,-5.5377,-5.6363,-5.6948,-5.7876,-5.8455,-5.8558,-5.8865,-5.8984,-5.9101,-5.9272,-5.9474,-5.9616,-5.9949,-6.0553,-6.1564,-6.2516,-6.339,-6.418,-6.4363,-6.4027,-6.2834,-6.1268,-6.0064,-5.9434,-6.0198,-6.0389,-6.0485,-6.0618,-6.0695,-6.0828,-6.1593,-6.2089,-6.2319,-6.2949,-6.3618,-6.4087,-6.4163,-6.4431,-6.4889,-6.4985,-6.4603,-6.3743,-6.3838,-6.3112,-6.165,-5.9338,-5.7905,-5.6988,-5.6255,-5.5656,-5.5298,-5.5034,-5.4895,-5.5085,-5.57,-5.6102,-5.6419,-5.6733,-5.6974,-5.6945,-5.6741,-5.6428,-5.6337,-5.6284,-5.5961,-5.5823,-5.571,-5.5588,-5.512,-5.5,-5.5605,-5.5988,-5.633,-5.6488,-5.6504,-5.6122,-5.5625,-5.5384,-5.5174,-5.5174,-5.5422,-5.6033,-5.6282,-5.5944,-5.5951,-5.6256,-5.652,-5.7066,-5.7213,-5.7069,-5.7434,-5.7937,-5.8069,-5.8165,-5.7239,-5.6181,-5.4293,-5.2768,-5.1855,-5.1079,-5.0574,-5.1499,-5.1115,-5.0685,-5.038,-5.0434,-5.1434,-5.1741,-5.1488,-5.1581,-5.1973,-5.2545,-5.2999,-5.3526,-5.4318,-5.5302,-5.636,-5.7162,-5.8098,-5.8614,-5.8698,-5.8982,-5.9042,-5.912,-5.9234,-5.9438,-5.9529,-5.971,-6.0255,-6.1356,-6.2161,-6.3161,-6.4027,-6.3942,-6.3446,-6.2758,-6.1707,-6.0809,-6.0141,-6.0274,-6.0408,-6.0465,-6.0848,-6.1134,-6.1153,-6.2357,-6.3045,-6.3121,-6.379,-6.4496,-6.484,-6.4879,-6.5089,-6.5375,-6.5394,-6.4936,-6.4038,-6.3751,-6.2548,-6.1077,-5.9396,-5.8402,-5.7714,-5.7141,-5.6591,-5.6194,-5.6025,-5.5922,-5.5987,-5.6436,-5.6961,-5.7692,-5.7834,-5.7921,-5.7664,-5.7404,-5.6974,-5.6735,-5.6753,-5.6622,-5.6616,-5.6557,-5.6191,-5.5794,-5.5725,-5.622,-5.6565,-5.6949,-5.7149,-5.7224,-5.6717,-5.6202,-5.5969,-5.5804,-5.5728,-5.5919,-5.6492,-5.6988,-5.6931,-5.706,-5.7404,-5.767,-5.7738,-5.7924,-5.7992,-5.8492,-5.8973,-5.8838,-5.8569,-5.778,-5.6547,-5.4833,-5.3332,-5.2346,-5.1418,-5.0569,-5.1944,-5.1609,-5.1147,-5.0516,-5.0137,-5.1076,-5.1329,-5.1194,-5.1321,-5.1828,-5.2454,-5.2672,-5.3105,-5.3939,-5.4846,-5.5828,-5.6871,-5.7839,-5.8646,-5.8725,-5.9061,-5.91,-5.9177,-5.9234,-5.9401,-5.9493,-5.9637,-6.0093,-6.0773,-6.1761,-6.2704,-6.3282,-6.3197,-6.2815,-6.2261,-6.1478,-6.0637,-6.0083,-6.0064,-6.0389,-6.0523,-6.079,-6.1096,-6.1554,-6.249,-6.3618,-6.4,-6.463,-6.5394,-6.5394,-6.5394,-6.5394,-6.5394,-6.5299,-6.484,-6.3874,-6.2508,-6.1467,-6.038,-5.9922,-5.9283,-5.9283,-5.8462,-5.7557,-5.691,-5.6521,-5.6519,-5.6675,-5.7075,-5.7602,-5.8193,-5.8336,-5.8622,-5.8382,-5.8215,-5.7785,-5.773,-5.7732,-5.7544,-5.7522,-5.735,-5.6945,-5.6587,-5.6708,-5.6898,-5.7225,-5.7533,-5.7737,-5.7949,-5.7501,-5.6881,-5.6477,-5.6339,-5.6243,-5.6415,-5.6893,-5.7371,-5.781,-5.8112,-5.8419,-5.8284,-5.8275,-5.8596,-5.8969,-5.9435,-5.9685,-5.9377,-5.8934,-5.8377,-5.73,-5.572,-5.4276,-5.2988,-5.2022,-5.1171,-5.2468,-5.1877,-5.2263,-5.133,-5.0028,-4.9973,-5.047,-5.123,-5.1383,-5.1792,-5.2526,-5.2868,-5.3072,-5.3286,-5.4262,-5.5203,-5.6125,-5.7104,-5.7835,-5.8511,-5.8763,-5.8914,-5.9084,-5.9197,-5.9327,-5.9474,-5.9618,-5.9776,-6.0134,-6.145,-6.2342,-6.2871,-6.3064,-6.2624,-6.1956,-6.1077,-6.0293,-5.9969,-6.0102,-6.0351,-6.0485,-6.0618,-6.0848,-6.1344,-6.2242,-6.3102,-6.3675,-6.4439,-6.5108,-6.5356,-6.5394,-6.5394,-6.5394,-6.5394,-6.4314,-6.2906,-6.1283,-6.0491,-6.0224,-6.0015,-6.0441,-6.0403,-5.931,-5.8244,-5.7625,-5.727,-5.7047,-5.7018,-5.7224,-5.7672,-5.8132,-5.8719,-5.9321,-5.9248,-5.9212,-5.9082,-5.9045,-5.8877,-5.8614,-5.8444,-5.8256,-5.7912,-5.7389,-5.7394,-5.7605,-5.7876,-5.8186,-5.8482,-5.8612,-5.8597,-5.7882,-5.6842,-5.6744,-5.6721,-5.7008,-5.7485,-5.8154,-5.8727,-5.8999,-5.923,-5.9032,-5.8985,-5.9384,-5.9815,-6.0319,-6.0396,-6.005,-5.9665,-5.9219,-5.7989,-5.6758,-5.5297,-5.3988,-5.3099,-5.2401,-5.1807,-5.1032,-5.0914,-5.0188,-4.9177,-4.8518,-4.9324,-5.0995,-5.0849,-5.1328,-5.2599,-5.2992,-5.3127,-5.3243,-5.4308,-5.4914,-5.5593,-5.6251,-5.6757,-5.7377,-5.8091,-5.8241,-5.8559,-5.8915,-5.9178,-5.9383,-5.9526,-5.9685,-6.0207,-6.1368,-6.2742,-6.3547,-6.3092,-6.2701,-6.2032,-6.1096,-6.0427,-6.0083,-6.0274,-6.0332,-6.0561,-6.0809,-6.0943,-6.1421,-6.2108,-6.2911,-6.3732,-6.418,-6.481,-6.5318,-6.5375,-6.5394,-6.5394,-6.5337,-6.4638,-6.2887,-6.1302,-6.0137,-6.0201,-6.0658,-6.1102,-6.1424,-6.0912,-6.038,-5.9476,-5.8534,-5.787,-5.7791,-5.7597,-5.7962,-5.8382,-5.8966,-5.938,-5.9419,-5.9383,-5.9346,-5.929,-5.9215,-5.899,-5.8952,-5.8801,-5.8629,-5.8129,-5.8098,-5.8311,-5.8565,-5.8837,-5.9115,-5.9254,-5.9193,-5.8749,-5.7692,-5.7431,-5.7485,-5.7753,-5.8192,-5.8956,-5.9633,-5.981,-5.9958,-5.9952,-6.0008,-6.0292,-6.0492,-6.0646,-6.0723,-6.0685,-6.0258,-5.9811,-5.9215,-5.8043,-5.6508,-5.5105,-5.4158,-5.3421,-5.1287,-5.0809,-5.0446,-4.9755,-4.8779,-4.7958,-4.862,-4.9974,-5.0206,-5.1103,-5.2545,-5.2974,-5.3188,-5.335,-5.4078,-5.4663,-5.515,-5.579,-5.6332,-5.6912,-5.7266,-5.7753,-5.8165,-5.854,-5.8933,-5.9213,-5.9455,-5.9616,-6.0255,-6.1654,-6.3116,-6.3326,-6.2985,-6.2739,-6.2051,-6.1048,-6.0447,-6.0323,-6.0361,-6.0389,-6.0618,-6.0886,-6.1039,-6.1344,-6.1994,-6.2796,-6.3637,-6.3913,-6.46,-6.5261,-6.5394,-6.5394,-6.5135,-6.478,-6.4095,-6.242,-6.1064,-6.0102,-5.9999,-6.0709,-6.1174,-6.1694,-6.2265,-6.2079,-6.1247,-6.0248,-5.9499,-5.8996,-5.8493,-5.8269,-5.8685,-5.9044,-5.9213,-5.9383,-5.9346,-5.929,-5.929,-5.929,-5.929,-5.929,-5.9214,-5.9118,-5.8999,-5.8933,-5.8963,-5.9162,-5.9336,-5.9514,-5.9621,-5.9619,-5.9185,-5.8387,-5.8301,-5.8364,-5.8612,-5.8784,-5.9357,-5.9901,-6.0238,-6.0406,-6.0629,-6.0641,-6.0604,-6.0666,-6.0762,-6.08,-6.0777,-6.0695,-6.0306,-5.9672,-5.888,-5.7455,-5.6057,-5.5001,-5.4399,-5.0947,-5.0877,-5.0527,-4.9628,-4.8627,-4.7989,-4.8164,-4.8738,-4.9655,-5.0939,-5.2326,-5.2919,-5.3193,-5.3418,-5.3845,-5.4352,-5.4783,-5.5267,-5.5639,-5.6518,-5.6628,-5.7058,-5.7677,-5.8145,-5.8708,-5.9158,-5.9512,-5.9764,-6.0421,-6.173,-6.2837,-6.2868,-6.2901,-6.2682,-6.2051,-6.0924,-6.0361,-6.0323,-6.0332,-6.0313,-6.0389,-6.0427,-6.0408,-6.058,-6.1191,-6.1956,-6.2892,-6.3683,-6.4505,-6.507,-6.5394,-6.5394,-6.4913,-6.3848,-6.2927,-6.2127,-6.0904,-6.0236,-6.0112,-6.066,-6.1344,-6.201,-6.2823,-6.3031,-6.2447,-6.1428,-6.0582,-6.0114,-5.972,-5.9569,-5.9853,-6.0022,-6.0154,-6.021,-6.021,-5.9985,-5.9778,-5.9609,-5.929,-5.9309,-5.9308,-5.9213,-5.934,-5.9204,-5.9269,-5.962,-5.9777,-5.9874,-5.9918,-5.9924,-5.9528,-5.8967,-5.914,-5.9109,-5.8975,-5.9185,-5.9625,-6.01,-6.0449,-6.0597,-6.0604,-6.0704,-6.08,-6.0781,-6.0781,-6.0753,-6.071,-6.0647,-6.0424,-5.9843,-5.9032,-5.8106,-5.6994,-5.5849,-5.5174,-5.0935,-5.0358,-4.9492,-4.871,-4.8042,-4.7961,-4.8218,-4.8746,-4.9137,-5.0275,-5.1799,-5.2815,-5.3381,-5.3484,-5.3794,-5.4149,-5.4317,-5.465,-5.472,-5.5205,-5.5613,-5.638,-5.7206,-5.7751,-5.8501,-5.9212,-5.9621,-6.0025,-6.1036,-6.211,-6.3073,-6.3574,-6.3272,-6.2682,-6.2395,-6.1162,-6.0332,-6.0264,-6.0245,-6.0256,-6.0323,-6.0361,-6.0408,-6.0427,-6.0828,-6.1593,-6.2433,-6.3111,-6.4142,-6.507,-6.5318,-6.5364,-6.5245,-6.3505,-6.2957,-6.2747,-6.1035,-6.027,-6.0311,-6.0672,-6.124,-6.1995,-6.2749,-6.3388,-6.3313,-6.2316,-6.1657,-6.1319,-6.1093,-6.098,-6.0886,-6.0961,-6.1036,-6.1036,-6.1055,-6.0661,-6.0304,-5.9853,-5.9403,-5.929,-5.929,-5.9383,-5.9474,-5.9564,-5.9669,-5.9753,-5.9899,-5.9994,-6.0007,-6.0011,-5.9797,-5.9474,-5.9874,-5.9873,-5.9606,-5.9548,-5.9977,-6.0196,-6.0487,-6.0552,-6.0623,-6.0704,-6.08,-6.0757,-6.0757,-6.0729,-6.068,-6.0585,-6.0284,-5.9874,-5.9381,-5.8517,-5.7611,-5.653,-5.5899,-5.1039,-5.0269,-4.9275,-4.8587,-4.8172,-4.8111,-4.8265,-4.8478,-4.9003,-4.9779,-5.0806,-5.2132,-5.3111,-5.3508,-5.3869,-5.4019,-5.4055,-5.4237,-5.4437,-5.4603,-5.4862,-5.5535,-5.6361,-5.7206,-5.801,-5.8759,-5.9559,-6.0335,-6.16,-6.2408,-6.3169,-6.4088,-6.3596,-6.2853,-6.2633,-6.1296,-6.0284,-6.0216,-6.0118,-6.0167,-6.0235,-6.0304,-6.0361,-6.0389,-6.0637,-6.1382,-6.227,-6.2966,-6.3871,-6.4844,-6.5302,-6.4915,-6.447,-6.325,-6.2511,-6.1905,-6.0858,-5.992,-6.0261,-6.0621,-6.1111,-6.1845,-6.2653,-6.3347,-6.4024,-6.318,-6.2804,-6.2502,-6.2258,-6.2088,-6.1543,-6.1468,-6.1468,-6.1468,-6.1393,-6.1168,-6.0736,-6.0266,-5.9741,-5.929,-5.9346,-5.9438,-5.9529,-5.9634,-5.9723,-5.9791,-5.9937,-6.0026,-6.0087,-6.0167,-5.9902,-5.9827,-6.017,-6.0313,-6.0045,-6.0054,-6.0245,-6.0453,-6.0525,-6.0604,-6.068,-6.0753,-6.08,-6.0757,-6.071,-6.0704,-6.0629,-6.0506,-6.036,-6.0008,-5.9569,-5.9035,-5.8072,-5.7025,-5.6206,-5.1327,-5.0567,-4.965,-4.9022,-4.8642,-4.8381,-4.8208,-4.8138,-4.8839,-4.9325,-4.9735,-5.1161,-5.2389,-5.3326,-5.3926,-5.4055,-5.4164,-5.4289,-5.434,-5.4375,-5.4465,-5.5194,-5.5833,-5.6472,-5.7406,-5.8449,-5.936,-6.0638,-6.2008,-6.2604,-6.334,-6.4508,-6.3947,-6.2892,-6.2366,-6.1334,-6.0264,-6.0167,-6.0118,-6.0087,-6.0137,-6.0216,-6.0304,-6.038,-6.0523,-6.1249,-6.2203,-6.2887,-6.3581,-6.4121,-6.4603,-6.4215,-6.3631,-6.2691,-6.2159,-6.1382,-6.0504,-5.9869,-5.9853,-6.019,-6.0905,-6.1713,-6.2538,-6.3233,-6.3852,-6.4021,-6.3646,-6.3477,-6.3214,-6.297,-6.2426,-6.2181,-6.2181,-6.2125,-6.2013,-6.1844,-6.1355,-6.0773,-6.0116,-5.9515,-5.9477,-5.9568,-5.9564,-5.9688,-5.9757,-5.9824,-5.9904,-5.9994,-6.0099,-6.0226,-6.0151,-6.0132,-6.0274,-6.0332,-6.0313,-6.036,-6.0417,-6.048,-6.0552,-6.0655,-6.0729,-6.0753,-6.0734,-6.071,-6.0685,-6.0629,-6.0533,-6.0425,-6.0227,-6.0072,-5.9722,-5.9153,-5.8034,-5.7062,-5.6201,-5.2348,-5.1541,-5.0703,-5.003,-4.9455,-4.8771,-4.8284,-4.8002,-4.8174,-4.8696,-4.9402,-4.9947,-5.108,-5.2828,-5.3758,-5.4127,-5.42,-5.4324,-5.4393,-5.4409,-5.4424,-5.5021,-5.5657,-5.6271,-5.7092,-5.8245,-5.9436,-6.0538,-6.1728,-6.2439,-6.3249,-6.4207,-6.3473,-6.2777,-6.2529,-6.1401,-6.0264,-6.0167,-6.0057,-6.0057,-6.0106,-6.0186,-6.0323,-6.0352,-6.0371,-6.0933,-6.1476,-6.1664,-6.228,-6.282,-6.3207,-6.3047,-6.2634,-6.2056,-6.1614,-6.1171,-6.0295,-6.0035,-5.9982,-5.987,-6.0473,-6.1526,-6.222,-6.2709,-6.3366,-6.4005,-6.3796,-6.389,-6.3759,-6.3836,-6.3516,-6.3573,-6.3573,-6.3404,-6.3272,-6.2915,-6.2444,-6.1524,-6.0642,-6.0173,-5.9834,-5.9756,-5.9547,-5.9653,-5.9791,-5.9857,-5.9982,-6.0038,-6.0099,-6.0207,-6.0361,-6.0389,-6.0389,-6.0389,-6.037,-6.0398,-6.0444,-6.0506,-6.0559,-6.0635,-6.0685,-6.0704,-6.0704,-6.066,-6.0585,-6.0525,-6.0417,-6.0294,-6.0099,-5.9906,-5.973,-5.9213,-5.8091,-5.703,-5.614]}]]